[[{"header":{"parameterUnit":"m.s-1","parameterCategory":1,"la1":30.6,"la2":28.766,"lo1":-90.7593,"lo2":-88.6598,"dy":0.0162,"dx":0.0183,"nx":116,"ny":114,"refTime":"2023-04-24T06:00:00:Z","depth":0,"parameterNumber":2,"parameterNumberName":"U-component_of_WINDS"},"data":[0.0,0.0,0.0,0.0,0.0,0.0,0.0,0.0,0.0,0.0,0.0,0.0,0.0,0.0,0.0,0.0,0.0,0.0,0.0,0.0,0.0,0.0,0.0,0.0,0.0,0.0,0.0,0.0,0.0,0.0,0.0,0.0,0.0,0.0,0.0,0.0,0.0,0.0,0.0,0.0,0.0,0.0,0.0,0.0,0.0,0.0,0.0,0.0,0.0,0.0,0.0,0.0,0.0,0.0,0.0,0.0,0.0,0.0,0.0,0.0,0.0,0.0,0.0,0.0,0.0,0.0,0.0,0.0,0.0,0.0,0.0,0.0,0.0,0.0,0.0,0.0,0.0,0.0,0.0,0.0,0.0,0.0,0.0,0.0,0.0,0.0,0.0,0.0,0.0,0.0,0.0,0.0,0.0,0.0,0.0,0.0,0.0,0.0,0.0,0.0,0.0,0.0,0.0,0.0,0.0,0.0,0.0,0.0,0.0,0.0,0.0,0.0,0.0,0.0,0.0,0.0,0.0,0.0,0.0,0.0,0.0,0.0,0.0,0.0,0.0,0.0,0.0,0.0,0.0,0.0,0.0,0.0,0.0,0.0,0.0,0.0,0.0,0.0,0.0,0.0,0.0,0.0,0.0,0.0,0.0,0.0,0.0,0.0,0.0,0.0,0.0,0.0,0.0,0.0,0.0,0.0,0.0,0.0,0.0,0.0,0.0,0.0,0.0,0.0,0.0,0.0,0.0,0.0,0.0,0.0,0.0,0.0,0.0,0.0,0.0,0.0,0.0,0.0,0.0,0.0,0.0,0.0,0.0,0.0,0.0,0.0,0.0,0.0,0.0,0.0,0.0,0.0,0.0,0.0,0.0,0.0,0.0,0.0,0.0,0.0,0.0,0.0,0.0,0.0,0.0,0.0,0.0,0.0,0.0,0.0,0.0,0.0,0.0,0.0,0.0,0.0,0.0,0.0,0.0,0.0,0.0,0.0,0.0,0.0,0.0,0.0,0.0,0.0,0.0,0.0,0.0,0.0,0.0,0.0,0.0,0.0,0.0,0.0,0.0,0.0,0.0,0.0,0.0,0.0,0.0,0.0,0.0,0.0,0.0,0.0,0.0,0.0,0.0,0.0,0.0,0.0,0.0,0.0,0.0,0.0,0.0,0.0,0.0,0.0,0.0,0.0,0.0,0.0,0.0,0.0,0.0,0.0,0.0,0.0,0.0,0.0,0.0,0.0,0.0,0.0,0.0,0.0,0.0,0.0,0.0,0.0,0.0,0.0,0.0,0.0,0.0,0.0,0.0,0.0,0.0,0.0,0.0,0.0,0.0,0.0,0.0,0.0,0.0,0.0,0.0,0.0,0.0,0.0,0.0,0.0,0.0,0.0,0.0,0.0,0.0,0.0,0.0,0.0,0.0,0.0,0.0,0.0,0.0,0.0,0.0,0.0,0.0,0.0,0.0,0.0,0.0,0.0,0.0,0.0,0.0,0.0,0.0,0.0,0.0,0.0,0.0,0.0,0.0,0.0,0.0,0.0,0.0,0.0,0.0,0.0,0.0,0.0,0.0,0.0,0.0,0.0,0.0,0.0,0.0,0.0,0.0,0.0,0.0,0.0,0.0,0.0,0.0,0.0,0.0,0.0,0.0,0.0,0.0,0.0,0.0,0.0,0.0,0.0,0.0,0.0,0.0,0.0,0.0,0.0,0.0,0.0,0.0,0.0,0.0,0.0,0.0,0.0,0.0,0.0,0.0,0.0,0.0,0.0,0.0,0.0,0.0,0.0,0.0,0.0,0.0,0.0,0.0,0.0,0.0,0.0,0.0,0.0,0.0,0.0,0.0,0.0,0.0,0.0,0.0,0.0,0.0,0.0,0.0,0.0,0.0,0.0,0.0,0.0,0.0,0.0,0.0,0.0,0.0,0.0,0.0,0.0,0.0,0.0,0.0,0.0,0.0,0.0,0.0,0.0,0.0,0.0,0.0,0.0,0.0,0.0,0.0,0.0,0.0,0.0,0.0,0.0,0.0,0.0,0.0,0.0,0.0,0.0,0.0,0.0,0.0,0.0,0.0,0.0,0.0,0.0,0.0,0.0,0.0,0.0,0.0,0.0,0.0,0.0,0.0,0.0,0.0,0.0,0.0,0.0,0.0,0.0,0.0,0.0,0.0,0.0,0.0,0.0,0.0,0.0,0.0,0.0,0.0,0.0,0.0,0.0,0.0,0.0,0.0,0.0,0.0,0.0,0.0,0.0,0.0,0.0,0.0,0.0,0.0,0.0,0.0,0.0,0.0,0.0,0.0,0.0,0.0,0.0,0.0,0.0,0.0,0.0,0.0,0.0,0.0,0.0,0.0,0.0,0.0,0.0,0.0,0.0,0.0,0.0,0.0,0.0,0.0,0.0,0.0,0.0,0.0,0.0,0.0,0.0,0.0,0.0,0.0,0.0,0.0,0.0,0.0,0.0,0.0,0.0,0.0,0.0,0.0,0.0,0.0,0.0,0.0,0.0,0.0,0.0,0.0,0.0,0.0,0.0,0.0,0.0,0.0,0.0,0.0,0.0,0.0,0.0,0.0,0.0,0.0,0.0,0.0,0.0,0.0,0.0,0.0,0.0,0.0,0.0,0.0,0.0,0.0,0.0,0.0,0.0,0.0,0.0,0.0,0.0,0.0,0.0,0.0,0.0,0.0,0.0,0.0,0.0,0.0,0.0,0.0,0.0,0.0,0.0,0.0,0.0,0.0,0.0,0.0,0.0,0.0,0.0,0.0,0.0,0.0,0.0,0.0,0.0,0.0,0.0,0.0,0.0,0.0,0.0,0.0,0.0,0.0,0.0,0.0,0.0,0.0,0.0,0.0,0.0,0.0,0.0,0.0,0.0,0.0,0.0,0.0,0.0,0.0,0.0,0.0,0.0,0.0,0.0,0.0,0.0,0.0,0.0,0.0,0.0,0.0,0.0,0.0,0.0,0.0,0.0,0.0,0.0,0.0,0.0,0.0,0.0,0.0,0.0,0.0,0.0,0.0,0.0,0.0,0.0,0.0,0.0,0.0,0.0,0.0,0.0,0.0,0.0,0.0,0.0,0.0,0.0,0.0,0.0,0.0,0.0,0.0,0.0,0.0,0.0,0.0,0.0,0.0,0.0,0.0,0.0,0.0,0.0,0.0,0.0,0.0,0.0,0.0,0.0,0.0,0.0,0.0,0.0,0.0,0.0,0.0,0.0,0.0,0.0,0.0,0.0,0.0,0.0,0.0,0.0,0.0,0.0,0.0,0.0,0.0,0.0,0.0,0.0,0.0,0.0,0.0,0.0,0.0,0.0,0.0,0.0,0.0,0.0,0.0,0.0,0.0,0.0,0.0,0.0,0.0,0.0,0.0,0.0,0.0,0.0,0.0,0.0,0.0,0.0,0.0,0.0,0.0,0.0,0.0,0.0,0.0,0.0,0.0,0.0,0.0,0.0,0.0,0.0,0.0,0.0,0.0,0.0,0.0,0.0,0.0,0.0,0.0,0.0,0.0,0.0,0.0,0.0,0.0,0.0,0.0,0.0,0.0,0.0,0.0,0.0,0.0,0.0,0.0,0.0,0.0,0.0,0.0,0.0,0.0,0.0,0.0,0.0,0.0,0.0,0.0,0.0,0.0,0.0,0.0,0.0,0.0,0.0,0.0,0.0,0.0,0.0,0.0,0.0,0.0,0.0,0.0,0.0,0.0,0.0,0.0,0.0,0.0,0.0,0.0,0.0,0.0,0.0,0.0,0.0,0.0,0.0,0.0,0.0,0.0,0.0,0.0,0.0,0.0,0.0,0.0,0.0,0.0,0.0,0.0,0.0,0.0,0.0,0.0,0.0,0.0,0.0,0.0,0.0,0.0,0.0,0.0,0.0,0.0,0.0,0.0,0.0,0.0,0.0,0.0,0.0,0.0,0.0,0.0,0.0,0.0,0.0,0.0,0.0,0.0,0.0,0.0,0.0,0.0,0.0,0.0,0.0,0.0,0.0,0.0,0.0,0.0,0.0,0.0,0.0,0.0,0.0,0.0,0.0,0.0,0.0,0.0,0.0,0.0,0.0,0.0,0.0,0.0,0.0,0.0,0.0,0.0,0.0,0.0,0.0,0.0,0.0,0.0,0.0,0.0,0.0,0.0,0.0,0.0,0.0,0.0,0.0,0.0,0.0,0.0,0.0,0.0,0.0,0.0,0.0,0.0,0.0,0.0,0.0,0.0,0.0,0.0,0.0,0.0,0.0,0.0,0.0,0.0,0.0,0.0,0.0,0.0,0.0,0.0,0.0,0.0,0.0,0.0,0.0,0.0,0.0,0.0,0.0,0.0,0.0,0.0,0.0,0.0,0.0,0.0,0.0,0.0,0.0,0.0,0.0,0.0,0.0,0.0,0.0,0.0,0.0,0.0,0.0,0.0,0.0,0.0,0.0,0.0,0.0,0.0,0.0,0.0,0.0,0.0,0.0,0.0,0.0,0.0,0.0,0.0,0.0,0.0,0.0,0.0,0.0,0.0,0.0,0.0,0.0,0.0,0.0,0.0,0.0,0.0,0.0,0.0,0.0,0.0,0.0,0.0,0.0,0.0,0.0,0.0,0.0,0.0,0.0,0.0,0.0,0.0,0.0,0.0,0.0,0.0,0.0,0.0,0.0,0.0,0.0,0.0,0.0,0.0,0.0,0.0,0.0,0.0,0.0,0.0,0.0,0.0,0.0,0.0,0.0,0.0,0.0,0.0,0.0,0.0,0.0,0.0,0.0,0.0,0.0,0.0,0.0,0.0,0.0,0.0,0.0,0.0,0.0,0.0,0.0,0.0,0.0,0.0,0.0,0.0,0.0,0.0,0.0,0.0,0.0,0.0,0.0,0.0,0.0,0.0,0.0,0.0,0.0,0.0,0.0,0.0,0.0,0.0,0.0,0.0,0.0,0.0,0.0,0.0,0.0,0.0,0.0,0.0,0.0,0.0,0.0,0.0,0.0,0.0,0.0,0.0,0.0,0.0,0.0,0.0,0.0,0.0,0.0,0.0,0.0,0.0,0.0,0.0,0.0,0.0,0.0,0.0,0.0,0.0,0.0,0.0,0.0,0.0,0.0,0.0,0.0,0.0,0.0,0.0,0.0,0.0,0.0,0.0,0.0,0.0,0.0,0.0,0.0,0.0,0.0,0.0,0.0,0.0,0.0,0.0,0.0,0.0,0.0,0.0,0.0,0.0,0.0,0.0,0.0,0.0,0.0,0.0,0.0,0.0,0.0,0.0,0.0,0.0,0.0,0.0,0.0,0.0,0.0,0.0,0.0,0.0,0.0,0.0,0.0,0.0,0.0,0.0,0.0,0.0,0.0,0.0,0.0,0.0,0.0,0.0,0.0,0.0,0.0,0.0,0.0,0.0,0.0,0.0,0.0,0.0,0.0,0.0,0.0,0.0,0.0,0.0,0.0,0.0,0.0,0.0,0.0,0.0,0.0,0.0,0.0,0.0,0.0,0.0,0.0,0.0,0.0,0.0,0.0,0.0,0.0,0.0,0.0,0.0,0.0,0.0,0.0,0.0,0.0,0.0,0.0,0.0,0.0,0.0,0.0,0.0,0.0,0.0,0.0,0.0,0.0,0.0,0.0,0.0,0.0,0.0,0.0,0.0,0.0,0.0,0.0,0.0,0.0,0.0,0.0,0.0,0.0,0.0,0.0,0.0,0.0,0.0,0.0,0.0,0.0,0.0,0.0,0.0,0.0,0.0,0.0,0.0,0.0,0.0,0.0,0.0,0.0,0.0,0.0,0.0,0.0,0.0,0.0,0.0,0.0,0.0,0.0,0.0,0.0,0.0,0.0,0.0,0.0,0.0,0.0,0.0,0.0,0.0,0.0,0.0,0.0,0.0,0.0,0.0,0.0,0.0,0.0,0.0,0.0,0.0,0.0,0.0,0.0,0.0,0.0,0.0,0.0,0.0,0.0,0.0,0.0,0.0,0.0,0.0,0.0,0.0,0.0,0.0,0.0,0.0,0.0,0.0,0.0,0.0,0.0,0.0,0.0,0.0,0.0,0.0,0.0,0.0,0.0,0.0,0.0,0.0,0.0,0.0,0.0,0.0,0.0,0.0,0.0,-3.4498,-3.5169,0.0,0.0,0.0,0.0,0.0,0.0,0.0,0.0,0.0,0.0,0.0,0.0,0.0,0.0,0.0,0.0,0.0,0.0,0.0,0.0,0.0,0.0,0.0,0.0,0.0,0.0,0.0,0.0,0.0,0.0,0.0,0.0,0.0,0.0,0.0,0.0,0.0,0.0,-1.1849,-1.3171,-1.458,-1.5576,-1.6814,-1.823,0.0,0.0,0.0,0.0,0.0,0.0,0.0,0.0,0.0,0.0,0.0,0.0,0.0,0.0,0.0,0.0,0.0,0.0,0.0,0.0,0.0,0.0,0.0,0.0,0.0,0.0,0.0,0.0,0.0,0.0,0.0,0.0,0.0,0.0,0.0,0.0,0.0,0.0,0.0,0.0,0.0,0.0,0.0,0.0,0.0,0.0,0.0,0.0,0.0,0.0,0.0,0.0,0.0,0.0,0.0,0.0,0.0,0.0,0.0,0.0,0.0,0.0,0.0,0.0,0.0,0.0,0.0,0.0,0.0,0.0,-3.3979,-3.4371,0.0,0.0,0.0,0.0,0.0,0.0,0.0,0.0,0.0,0.0,0.0,0.0,0.0,0.0,0.0,0.0,0.0,0.0,0.0,0.0,0.0,0.0,0.0,0.0,0.0,0.0,0.0,0.0,0.0,0.0,0.0,0.0,0.0,0.0,0.0,0.0,0.0,-1.1881,-1.2745,-1.4476,-1.7001,-1.8149,-1.8638,-1.87,-1.9687,0.0,0.0,0.0,0.0,0.0,0.0,0.0,0.0,0.0,0.0,0.0,0.0,0.0,0.0,0.0,0.0,0.0,0.0,0.0,0.0,0.0,0.0,0.0,0.0,0.0,0.0,0.0,0.0,0.0,0.0,0.0,0.0,0.0,0.0,0.0,0.0,0.0,0.0,0.0,0.0,0.0,0.0,0.0,0.0,0.0,0.0,0.0,0.0,0.0,0.0,0.0,0.0,0.0,0.0,0.0,0.0,0.0,0.0,0.0,0.0,0.0,0.0,0.0,-3.4297,-3.3939,-3.3848,-3.3848,-3.3515,-3.2865,-3.3598,-3.3495,-3.3089,-3.4436,0.0,0.0,0.0,0.0,0.0,0.0,0.0,0.0,0.0,0.0,0.0,0.0,0.0,0.0,0.0,0.0,0.0,0.0,0.0,0.0,0.0,1.0962,0.9674,0.7693,0.7464,0.6615,0.0,0.0,0.0,0.0,0.0,0.0,0.0,-0.9142,-1.037,-1.1802,-1.3911,-1.5655,-1.7001,-1.831,-1.9362,-2.0098,-2.0557,-2.0819,-2.0868,0.0,0.0,0.0,0.0,0.0,0.0,0.0,0.0,0.0,0.0,0.0,0.0,0.0,0.0,0.0,0.0,0.0,0.0,0.0,0.0,0.0,0.0,0.0,0.0,0.0,0.0,0.0,0.0,0.0,0.0,0.0,0.0,0.0,0.0,0.0,0.0,0.0,0.0,0.0,0.0,0.0,-2.61,-2.8633,0.0,0.0,0.0,0.0,0.0,0.0,0.0,0.0,0.0,0.0,0.0,0.0,0.0,-3.3079,-3.324,-3.3167,-3.2988,-3.2637,-3.2566,-3.2243,-3.1776,-3.1776,-3.1763,-3.1612,-3.1776,0.0,-3.2328,-3.2554,0.0,0.0,0.0,0.0,0.0,0.0,0.0,0.0,0.0,0.0,0.0,0.0,0.0,0.0,0.0,0.0,0.0,0.0,0.0,0.0,0.0,1.0738,0.9906,0.8309,0.8161,0.731,0.5234,0.0,0.0,0.0,0.0,0.0,-0.8826,-0.9559,-1.0987,-1.3396,-1.5276,-1.6705,-1.7742,-1.9243,-2.0089,-2.0489,-2.0634,-2.0781,-2.0947,-2.1937,0.0,0.0,0.0,0.0,0.0,0.0,0.0,0.0,0.0,0.0,0.0,0.0,0.0,0.0,0.0,0.0,0.0,0.0,0.0,0.0,0.0,0.0,0.0,0.0,0.0,0.0,0.0,0.0,0.0,0.0,0.0,0.0,0.0,0.0,0.0,0.0,0.0,0.0,0.0,-2.6827,-2.7669,-2.8998,-2.9171,-2.9685,0.0,0.0,0.0,0.0,0.0,0.0,0.0,0.0,0.0,-3.3081,-3.2754,-3.2591,-3.2591,-3.2277,-3.2001,-3.175,-3.175,-3.1625,-3.1386,-3.1386,-3.1386,-3.1386,-3.1386,-3.1361,-3.1336,-3.1637,-3.1599,-3.1386,0.0,0.0,0.0,0.0,-3.1386,-3.1386,0.0,0.0,0.0,0.0,0.0,0.0,0.0,0.0,0.0,0.0,0.0,0.0,1.0663,1.0513,0.9986,0.8775,0.8703,0.7855,0.5699,0.4051,0.0,0.0,0.0,-0.5684,-0.9221,-1.0144,-1.1741,-1.4219,-1.583,-1.7141,-1.8053,-1.9687,-2.0459,-2.0566,-2.0566,-2.0673,-2.0835,-2.1589,-2.2313,-2.3087,0.0,0.0,0.0,0.0,0.0,0.0,0.0,0.0,0.0,0.0,0.0,0.0,0.0,0.0,0.0,0.0,0.0,0.0,0.0,0.0,0.0,0.0,0.0,0.0,0.0,0.0,0.0,0.0,0.0,0.0,0.0,0.0,0.0,0.0,0.0,0.0,0.0,-2.7824,-2.8343,-2.9515,-2.9334,-2.9875,0.0,0.0,0.0,0.0,0.0,0.0,-3.2867,-3.2855,-3.2792,-3.2654,-3.2227,-3.2001,-3.2001,-3.1738,-3.1537,-3.1386,-3.1537,-3.1524,-3.1386,-3.1386,-3.1386,-3.1386,-3.1248,-3.0972,-3.0645,-3.1035,-3.111,-3.0984,-3.0984,-3.0984,-3.0984,-3.0984,-3.0984,-3.0984,0.0,0.0,0.0,0.0,0.0,0.0,0.0,0.0,0.0,0.0,0.0,1.1855,1.0663,1.0513,0.9986,0.8775,0.8703,0.7855,0.5699,0.4051,0.1788,-0.1088,-0.2885,-0.5526,-0.9221,-1.1186,-1.2465,-1.3064,-1.4926,-1.633,-1.7259,-1.9079,-2.0166,-2.0566,-2.0566,-2.0576,-2.0673,-2.1502,-2.1807,-2.198,-2.353,0.0,0.0,0.0,0.0,0.0,0.0,0.0,0.0,0.0,0.0,0.0,0.0,0.0,0.0,0.0,0.0,0.0,0.0,0.0,0.0,0.0,0.0,0.0,0.0,0.0,0.0,0.0,0.0,0.0,0.0,0.0,0.0,0.0,0.0,0.0,0.0,0.0,0.0,-3.0723,-2.8924,0.0,0.0,0.0,0.0,-3.3068,-3.3081,-3.283,-3.229,-3.2252,-3.2014,-3.1486,-3.1449,-3.1436,-3.1436,-3.1926,-3.1901,-3.1399,-3.1926,-3.1901,-3.1386,-3.1386,-3.1386,-3.1361,-3.0871,-3.0633,-3.062,-3.0645,-3.0344,-2.988,-2.988,-2.988,-2.988,-2.988,-2.988,-2.988,0.0,0.0,0.0,0.0,0.0,0.0,0.0,0.0,0.0,1.2879,1.2445,1.1855,1.0812,1.0588,1.0293,0.9685,0.9539,0.8846,0.7464,0.5197,0.2631,-0.0077,-0.2489,-0.5526,-0.9221,-1.0645,-1.2029,-1.3483,-1.4998,-1.6275,-1.7234,-1.9042,-2.0,-2.0156,-2.1034,-2.1088,-2.0644,-2.0944,-2.1318,-2.1842,-2.2424,-2.2947,0.0,0.0,0.0,0.0,0.0,0.0,0.0,0.0,0.0,0.0,0.0,0.0,0.0,0.0,0.0,0.0,0.0,0.0,0.0,0.0,0.0,0.0,0.0,0.0,0.0,0.0,0.0,0.0,0.0,0.0,0.0,0.0,0.0,0.0,0.0,0.0,0.0,-2.95,-2.9149,0.0,-3.1488,-3.192,-3.2164,-3.2516,-3.219,-3.1901,-3.17,-3.1687,-3.175,-3.1913,-3.1574,-3.1562,-3.1913,-3.1763,-3.1587,-3.1386,-3.1587,-3.1587,-3.1386,-3.1386,-3.1386,-3.1386,-3.1198,-3.111,-3.111,-3.111,-3.0595,-2.9792,-2.9792,-2.9792,-2.9792,-2.9792,-2.9792,-2.9792,0.0,0.0,0.0,0.0,0.0,0.0,0.0,0.0,0.0,1.2806,1.2224,1.1632,1.0887,1.0588,1.0443,1.0218,0.9992,0.9382,0.8075,0.5653,0.3091,0.0386,-0.295,-0.614,-0.9221,-1.0265,-1.1749,-1.3745,-1.4896,-1.6093,-1.7261,-1.8708,-1.9574,-1.9932,-2.0803,-2.0948,-2.0566,-2.0489,-2.0867,-2.1385,-2.169,-2.2059,-2.251,0.0,0.0,0.0,0.0,0.0,0.0,0.0,0.0,0.0,0.0,0.0,0.0,0.0,0.0,0.0,0.0,0.0,0.0,0.0,0.0,0.0,0.0,0.0,0.0,0.0,0.0,0.0,0.0,0.0,0.0,0.0,0.0,0.0,0.0,-2.8011,-2.7589,-2.8624,-2.844,-2.8821,-3.0537,-3.0918,-3.1232,-3.1855,-3.1763,-3.1587,-3.1399,-3.1562,-3.175,-3.1926,-3.1587,-3.1562,-3.1938,-3.1763,-3.1675,-3.1675,-3.1863,-3.1951,-3.1951,-3.1951,-3.1951,-3.1951,-3.175,-3.1675,-3.165,-3.1461,-3.0972,-3.0319,-3.0143,-3.0068,-3.0043,-2.9867,-2.9792,-2.9792,0.0,0.0,0.0,0.0,0.0,0.0,0.0,1.4482,1.3462,1.3462,1.2063,1.1037,1.0812,1.0663,1.0438,1.0218,0.9992,0.9155,0.7391,0.5428,0.31,0.0389,-0.4031,-0.7291,-0.9221,-1.0265,-1.1749,-1.376,-1.4545,-1.5648,-1.7162,-1.8005,-1.8885,-1.9873,-1.9902,-2.0146,-2.0547,-2.0411,-2.042,-2.0644,-2.1461,-2.1614,-2.1538,0.0,0.0,0.0,0.0,0.0,0.0,0.0,0.0,0.0,0.0,0.0,0.0,0.0,0.0,0.0,0.0,0.0,0.0,0.0,0.0,0.0,0.0,0.0,0.0,0.0,0.0,0.0,0.0,0.0,0.0,0.0,0.0,0.0,-2.8164,-2.7714,-2.7452,-2.8151,-2.6794,-2.6901,-2.9494,-2.9192,-2.9447,-3.1248,-3.1888,-3.1964,-3.1424,-3.1901,-3.1951,-3.1436,-3.1411,-3.1424,-3.1436,-3.1976,-3.224,-3.2252,-3.2805,-3.3081,-3.3081,-3.3081,-3.3081,-3.3043,-3.2478,-3.224,-3.2202,-3.1662,-3.1449,-3.1386,-3.0859,-3.0633,-3.057,-3.0043,-2.9829,-2.9817,0.0,0.0,0.0,0.0,0.0,0.0,0.0,1.4114,1.3317,1.2739,1.1706,1.1111,1.1037,1.0812,1.0663,1.0443,1.0218,0.9609,0.8394,0.6513,0.3405,-0.109,-0.3186,-0.5736,-0.8832,-0.9442,-1.0645,-1.2519,-1.4106,-1.5095,-1.5551,-1.7358,-1.8342,-1.8653,-1.9841,-2.0056,-1.9745,-2.0564,-2.0547,-2.0098,-2.0323,-2.0401,-2.0401,0.0,0.0,0.0,0.0,0.0,0.0,0.0,0.0,0.0,0.0,0.0,0.0,0.0,0.0,0.0,0.0,0.0,0.0,0.0,0.0,0.0,0.0,0.0,0.0,0.0,0.0,0.0,0.0,0.0,0.0,0.0,-2.383,-2.4723,-2.6417,-2.6135,-2.5625,-2.5533,-2.6146,-2.7291,-2.8942,-2.9619,-3.0236,-3.087,-3.1335,-3.1302,-3.0396,-3.1195,-3.1725,-3.1976,-3.1989,-3.219,-3.2616,-3.2767,-3.2842,-3.2842,-3.3006,-3.3081,-3.3081,-3.3081,-3.3081,-3.3068,-3.2905,-3.2842,-3.283,-3.2679,-3.2531,-3.2249,-3.1467,-3.1173,-3.116,-3.1009,-3.0628,-3.0132,0.0,0.0,0.0,0.0,0.0,0.0,0.0,1.425,1.3528,1.2445,1.1855,1.1484,1.1111,1.1186,1.1111,1.0663,1.0663,1.0137,0.8927,0.6674,0.3335,-0.1247,-0.2259,-0.4498,-0.8286,-0.8832,-1.0335,-1.2938,-1.4099,-1.5037,-1.5895,-1.7128,-1.7835,-1.8176,-1.9053,-1.9456,-1.9354,-1.9733,-1.9756,-1.9469,-1.9231,-1.939,-1.9784,-1.9784,-1.939,-1.8904,-1.8816,-1.8656,-1.8407,-1.806,0.0,0.0,0.0,0.0,0.0,0.0,0.0,0.0,0.0,0.0,0.0,0.0,0.0,0.0,0.0,0.0,0.0,0.0,0.0,0.0,0.0,0.0,0.0,0.0,-2.2725,-2.3615,-2.4486,-2.4762,-2.4697,-2.4443,-2.537,-2.642,-2.7586,-2.8805,-2.9514,-2.9612,-3.0917,-3.1311,-3.0386,-3.145,-3.2252,-3.2566,-3.2579,-3.2742,-3.3081,-3.3081,-3.3081,-3.3081,-3.3081,-3.3081,-3.3081,-3.3081,-3.3081,-3.3081,-3.3081,-3.3081,-3.3081,-3.3081,-3.2896,-3.2624,0.0,0.0,0.0,0.0,-3.0872,-3.0449,0.0,0.0,0.0,0.0,0.0,0.0,0.0,1.4681,1.4099,1.2732,1.2445,1.2077,1.1409,1.1781,1.1781,1.1105,1.1329,1.0807,0.915,0.6447,0.3346,-0.0156,-0.1247,-0.3569,-0.7588,-0.8367,-1.0461,-1.4083,-1.4163,-1.5163,-1.6959,-1.7028,-1.7362,-1.7806,-1.7917,-1.8395,-1.8984,-1.8479,-1.8505,-1.8843,-1.8282,-1.8594,-1.9399,-1.932,-1.8736,-1.7836,-1.7577,-1.7423,-1.7098,-1.6257,0.0,0.0,0.0,0.0,0.0,0.0,0.0,0.0,0.0,0.0,0.0,0.0,0.0,0.0,0.0,0.0,0.0,0.0,0.0,0.0,0.0,0.0,0.0,0.0,-2.1519,-2.2217,-2.2706,-2.3657,-2.4346,-2.4346,-2.4628,-2.5229,-2.6097,-2.7392,-2.8206,-2.8107,-3.0541,-3.1613,-3.0742,-3.2179,0.0,0.0,0.0,-3.3081,-3.3081,-3.3081,-3.3081,-3.3081,-3.3081,-3.3081,-3.3081,-3.3081,-3.3081,-3.3081,-3.3068,-3.3068,-3.3081,-3.2995,-3.2896,-3.2587,-3.2104,-3.1821,-3.1504,-3.1026,-3.0805,-3.0744,0.0,0.0,0.0,0.0,0.0,0.0,0.0,1.5054,1.4458,1.4171,1.3091,1.2519,1.2945,1.2586,1.2372,1.2725,1.2218,1.1099,0.9377,0.7302,0.5132,0.2947,0.0621,-0.248,-0.6437,-0.7982,-1.0024,-1.2712,-1.344,-1.4394,-1.5621,-1.5903,-1.6149,-1.6254,-1.6907,-1.7188,-1.7377,-1.7828,-1.8112,-1.8201,-1.8031,-1.8121,-1.8273,-1.7691,-1.7359,-1.7115,-1.6503,-1.6332,-1.625,-1.6085,-1.6085,-1.6175,-1.6175,-1.6175,0.0,0.0,0.0,0.0,0.0,0.0,0.0,0.0,0.0,0.0,0.0,0.0,0.0,0.0,0.0,0.0,0.0,0.0,0.0,-2.0792,-2.1267,-2.1783,-2.2394,-2.3127,-2.3625,-2.3916,-2.4614,-2.5495,-2.6668,-2.7374,-2.7772,-2.7925,-2.994,-3.0814,-2.9986,-3.1741,-3.2896,-3.3081,-3.3081,-3.3081,-3.3081,-3.3081,-3.3081,-3.3081,-3.3081,0.0,-3.3081,-3.3081,-3.3081,-3.3081,-3.2896,-3.281,-3.2797,-3.2562,-3.2388,-3.2113,-3.2265,-3.2228,-3.2216,-3.1845,-3.143,-3.1041,0.0,0.0,0.0,0.0,0.0,0.0,0.0,1.5204,1.4911,1.4178,1.3382,1.2879,1.2879,1.2519,1.2224,1.2137,1.17,1.0651,0.8841,0.7846,0.6381,0.4448,0.1554,-0.1784,-0.552,-0.7218,-0.9417,-1.2098,-1.2851,-1.3882,-1.5046,-1.5551,-1.5392,-1.4617,-1.5415,-1.5811,-1.6005,-1.5744,-1.6026,-1.6609,-1.5944,-1.5606,-1.5771,-1.6617,-1.6698,-1.6198,-1.5177,-1.4935,-1.4949,-1.4266,-1.4357,-1.4873,-1.4873,-1.4873,-1.4873,0.0,0.0,0.0,0.0,0.0,0.0,0.0,0.0,0.0,0.0,0.0,0.0,0.0,0.0,-1.9002,-1.9002,0.0,-2.0292,-2.0661,-2.1207,-2.1831,-2.2419,-2.3104,-2.3645,-2.3929,-2.4584,-2.5431,-2.6209,-2.7086,-2.74,-2.701,-2.9407,-3.0519,-2.9681,-3.1448,-3.2636,-3.2736,-3.281,-3.2896,-3.2896,-3.3068,-3.3081,-3.3081,-3.2982,-3.2896,-3.2896,-3.2822,-3.2736,-3.2736,-3.2649,-3.255,-3.2562,-3.23,-3.2125,-3.2038,-3.2025,-3.2025,-3.2025,-3.1937,-3.1668,-3.1426,0.0,0.0,0.0,0.0,0.0,0.0,0.0,0.0,1.5363,1.4114,1.3825,1.3462,1.2806,1.2592,1.2224,1.1409,1.1186,1.0432,0.8765,0.8385,0.7395,0.5643,0.2413,-0.0932,-0.4283,-0.6217,-0.8495,-1.1403,-1.2024,-1.307,-1.4378,-1.4807,-1.4299,-1.3077,-1.382,-1.4263,-1.4491,-1.3536,-1.3884,-1.4851,-1.3678,-1.3178,-1.3432,-1.5357,-1.5613,-1.4859,-1.3678,-1.3353,-1.3372,-1.2266,-1.2443,-1.3222,-1.3222,-1.3222,-1.33,-1.3457,-1.3535,0.0,0.0,0.0,0.0,0.0,0.0,0.0,0.0,-1.7797,-1.7878,-1.7959,-1.8282,-1.8638,-1.8798,-1.9642,-2.0373,-2.0604,-2.119,-2.1848,-2.2425,-2.3185,-2.3672,-2.3961,-2.4694,-2.5342,-2.5703,-2.6668,-2.6849,-2.61,-2.8773,-3.0158,-2.9315,-3.127,-3.2313,-3.24,-3.255,-3.2636,-3.2636,-3.2822,-3.2995,-3.2995,-3.2723,-3.2636,-3.2636,-3.2475,-3.24,-3.24,-3.23,-3.23,-3.2213,-3.2025,-3.1937,-3.195,-3.1761,-3.1661,-3.1661,-3.1661,-3.1661,-3.1661,0.0,0.0,0.0,0.0,0.0,0.0,0.0,0.0,0.0,1.5584,1.4911,1.4458,1.4314,1.3745,1.3025,1.2224,1.215,1.1706,1.0807,0.9291,0.8152,0.7617,0.3807,0.0545,-0.2021,-0.4501,-0.7034,-0.9515,-1.0387,-1.1366,-1.2524,-1.2251,-1.1964,-1.1687,-1.2227,-1.2505,-1.2514,-1.2669,-1.2939,-1.3237,-1.2808,-1.2814,-1.299,-1.2656,-1.2589,-1.2601,-1.1832,-1.158,-1.158,-1.1408,-1.1494,-1.158,-1.158,-1.158,-1.158,-1.158,-1.2009,-1.2693,-1.3451,-1.4119,-1.4538,-1.4294,-1.4789,-1.5455,0.0,-1.7057,-1.7554,-1.7959,-1.804,-1.8305,-1.9062,-1.9359,-1.9802,-2.0839,-2.1117,-2.1328,-2.1741,-2.2722,-2.3486,-2.3672,-2.487,-2.5684,-2.5732,-2.583,-2.583,-2.5732,-2.7757,-2.8947,-2.905,-3.0913,-3.2125,-3.24,-3.2388,-3.2388,-3.2388,-3.2475,-3.2475,-3.2475,-3.2487,-3.2388,-3.2388,-3.2388,-3.24,-3.24,-3.2125,-3.1937,-3.1761,-3.1761,-3.1749,-3.1749,-3.1749,-3.1661,-3.1661,-3.1661,-3.1661,-3.1661,0.0,0.0,0.0,0.0,0.0,0.0,0.0,0.0,0.0,0.0,1.5125,1.4601,1.4601,1.3528,1.2666,1.2305,1.2003,1.1409,1.0438,0.9377,0.8228,0.6996,0.3807,0.109,-0.0935,-0.3267,-0.5428,-0.7479,-0.817,-0.916,-1.0284,-1.0507,-1.0306,-0.983,-1.0517,-1.084,-1.0813,-1.0624,-1.092,-1.1444,-1.0904,-1.0788,-1.0788,-1.0539,-1.0458,-1.0549,-1.0636,-1.0895,0.0,-1.0809,-1.0895,-1.1154,-1.1235,-1.1241,-1.1068,-1.0977,-1.0977,-1.1235,-1.1746,-1.2077,-1.2419,-1.2857,-1.362,-1.4455,-1.5379,-1.6221,-1.6894,-1.7221,-1.7473,-1.7834,-1.8371,-1.8869,-1.9536,-2.0506,-2.0871,-2.1248,-2.1925,-2.2751,-2.3383,-2.3738,-2.4668,-2.5333,-2.5645,-2.5742,-2.5742,-2.5742,-2.702,-2.784,-2.7934,-2.9326,-3.0441,-3.1092,-3.1193,-3.156,-3.2125,-3.23,-3.24,-3.24,-3.2213,-3.2213,-3.2125,-3.2038,-3.2025,-3.2025,-3.1849,-3.1761,-3.1661,-3.1661,-3.1661,-3.1661,-3.1661,-3.1661,-3.1661,-3.1661,-3.1661,-3.1661,0.0,0.0,0.0,0.0,0.0,0.0,0.0,0.0,0.0,0.0,0.0,1.4832,1.4601,1.3455,1.2519,1.2298,1.1929,1.1335,1.0368,0.9755,0.8756,0.7222,0.4809,0.2642,0.078,-0.1479,-0.3496,-0.5115,-0.6036,-0.6881,-0.7804,-0.8241,-0.8179,-0.7617,-0.828,-0.8613,-0.8779,-0.8423,-0.8853,-0.9723,-0.9117,-0.9039,-0.9082,-0.9174,-0.9262,-0.9345,-0.9864,-1.0207,-1.0467,-1.012,-1.0207,-1.0554,-1.0722,-1.0641,-1.0467,-1.0294,-1.0294,-1.0376,-1.0289,-1.0549,-1.0895,-1.1666,-1.2687,-1.3698,-1.4455,-1.547,-1.6402,-1.6566,-1.6894,-1.7253,-1.787,-1.8489,-1.929,-2.0105,-2.066,-2.1185,-2.1835,-2.2594,-2.3186,-2.3709,-2.4216,-2.4809,-2.5421,-2.5538,-2.5635,-2.5732,-2.6648,-2.7189,-2.7189,-2.8111,-2.905,-2.9795,-3.017,-3.0734,-3.1484,-3.1937,-3.2213,-3.2213,-3.2038,-3.195,-3.1937,-3.1761,-3.1661,-3.1661,-3.1661,-3.1661,-3.1661,-3.1661,-3.1661,-3.1661,-3.1661,-3.1661,-3.1661,-3.1661,-3.1472,-3.1104,0.0,0.0,0.0,0.0,0.0,0.0,0.0,0.0,0.0,0.0,0.0,0.0,0.0,1.389,1.3171,1.2372,1.2452,1.2231,1.1409,1.0795,1.0115,0.9221,0.7592,0.5665,0.3585,0.1166,-0.0855,-0.2339,-0.3971,-0.4908,-0.5143,-0.5143,-0.5063,-0.4828,-0.5068,-0.5611,-0.6304,-0.6311,-0.6973,-0.811,-0.8041,-0.8229,-0.8636,-0.8819,-0.9087,-0.9262,-0.9345,-0.9349,-0.9349,-0.9349,-0.9349,-0.9345,-0.9345,-0.9345,-0.9349,-0.9349,-0.9951,-1.0463,-0.9777,-1.0294,-1.0895,-1.0722,-1.1826,-1.3184,-1.362,-1.4977,-1.617,-1.6394,-1.6394,-1.6743,-1.777,-1.8311,-1.8849,-1.9658,-2.0482,-2.0997,-2.1006,-2.1808,-2.2585,-2.3261,-2.369,-2.4206,-2.4894,-2.5137,-2.544,-2.5635,-2.6648,-2.7189,-2.7189,-2.8111,-2.868,-2.8773,-2.9704,-3.026,-3.026,-3.1193,-3.1749,-3.1749,-3.1749,-3.1749,-3.1749,-3.1661,-3.1661,-3.1661,-3.1661,-3.1661,-3.1661,-3.1661,-3.1661,-3.1661,-3.1661,-3.1661,-3.1661,-3.1661,-3.1104,-3.0079,0.0,0.0,0.0,0.0,0.0,0.0,0.0,0.0,0.0,0.0,0.0,0.0,0.0,0.0,0.0,0.0,1.3251,1.2666,1.2432,1.131,1.0484,1.0115,0.8201,0.6663,0.5576,0.3947,0.2325,0.0932,0.0388,-0.0543,-0.1708,-0.2491,-0.3191,-0.3809,-0.4365,-0.4465,-0.4342,-0.506,-0.5549,-0.5794,-0.6556,-0.6943,-0.7246,-0.7771,-0.819,-0.838,0.0,-0.8644,-0.8999,-0.8999,-0.8999,-0.9087,-0.9257,-0.9174,-0.8999,-0.8999,-0.9345,-0.9689,-0.9432,-0.9607,-0.9864,-0.9946,-1.0804,-1.1918,-1.3014,-1.4132,-1.5242,-1.5997,-1.6162,-1.6428,-1.7099,-1.7342,-1.8042,-1.9957,-2.0597,-2.1304,-2.2473,-2.2881,-2.3104,-2.3338,-2.3504,-2.3795,-2.4225,-2.4673,-2.503,-2.5137,-2.5606,-2.5984,-2.5984,-2.6466,-2.7305,-2.868,-2.905,-2.9886,-3.1193,-3.156,-3.1661,-3.1661,-3.1661,-3.1661,-3.1661,-3.1661,-3.1661,-3.1661,-3.1661,-3.1661,-3.1661,-3.1661,-3.1294,-3.0722,-3.0722,-3.026,-2.9612,-2.8784,-2.8215,-2.8038,0.0,0.0,0.0,0.0,0.0,0.0,0.0,0.0,0.0,0.0,0.0,0.0,0.0,0.0,0.0,0.0,0.0,1.3397,1.3368,1.2124,1.1316,1.1156,0.9643,0.8344,0.7194,0.588,0.4493,0.3184,0.2874,0.2175,0.1088,0.0389,-0.0389,-0.1008,-0.179,-0.226,-0.2419,-0.3173,-0.3792,-0.4428,-0.5273,-0.5978,-0.6573,-0.7285,-0.7621,0.0,-0.7763,-0.8154,-0.856,-0.8644,-0.8736,-0.8828,-0.9003,-0.8823,-0.8648,-0.874,-0.8823,-0.8907,-0.9082,-0.9174,-0.9174,-0.9432,-1.0207,-1.1149,-1.2504,-1.3444,-1.4475,-1.5741,-1.5997,-1.6065,-1.653,-1.6745,-1.7475,-1.9385,-2.0217,-2.1268,-2.2775,-2.3007,-2.3156,-2.34,-2.3252,-2.3226,-2.3712,-2.4165,-2.4575,-2.4824,-2.5039,-2.5137,-2.5137,-2.5333,-2.6091,-2.7474,-2.7808,-2.8833,-3.0633,-3.0652,-3.0843,-3.1193,-3.156,-3.1661,-3.1661,-3.1661,-3.1661,-3.1661,-3.1661,-3.1484,-3.1193,-3.1193,-3.0543,-2.9704,-2.9704,-2.9235,-2.8495,-2.7673,-2.7295,-2.7189,0.0,0.0,0.0,0.0,0.0,0.0,0.0,0.0,0.0,0.0,0.0,0.0,0.0,0.0,0.0,0.0,0.0,0.0,1.4235,1.3018,1.2291,1.2345,1.1768,1.0501,0.8609,0.7198,0.5813,0.4593,0.3736,0.3269,0.3195,0.3272,0.3272,0.3195,0.2422,0.1094,-0.0547,-0.0703,-0.1925,-0.3752,-0.4313,-0.5306,-0.6557,-0.7166,-0.7457,-0.7603,-0.7603,-0.7711,-0.794,-0.8113,-0.8292,-0.8476,-0.8388,-0.8204,-0.8113,-0.8384,-0.8292,-0.8197,-0.8732,-0.8823,-0.8911,-0.917,-0.9859,-1.0804,-1.1986,-1.293,-1.4041,-1.5394,-1.5733,-1.5824,-1.6004,-1.6591,-1.7299,-1.8129,-1.9606,-2.0985,-2.2026,-2.2331,-2.2761,-2.3332,-2.2765,-2.263,-2.3409,-2.3519,-2.3897,-2.4777,-2.4824,-2.4833,-2.4833,-2.4932,-2.5039,-2.5333,-2.627,-2.7379,-2.868,-2.869,-2.9148,-3.017,-3.1104,-3.1572,-3.1661,-3.1572,-3.1572,-3.1661,-3.156,-3.1003,-3.017,-3.017,-2.951,-2.8588,-2.8588,-2.8402,-2.8132,-2.8111,-2.7902,-2.7411,0.0,0.0,0.0,0.0,0.0,0.0,0.0,0.0,0.0,0.0,0.0,0.0,0.0,0.0,0.0,0.0,0.0,0.0,1.3673,1.2806,1.2372,1.2519,1.2077,1.1477,1.0651,0.9959,0.8661,0.6685,0.6451,0.5761,0.4538,0.5572,0.5497,0.447,0.4321,0.3932,0.3383,0.0863,-0.1105,-0.255,-0.2921,-0.3928,-0.5437,-0.638,-0.6861,-0.7097,-0.7097,-0.7284,-0.768,-0.7856,-0.7492,-0.6861,-0.6154,-0.5885,-0.5974,-0.6956,-0.7041,-0.7037,-0.8109,-0.8292,-0.8292,-0.864,-0.8986,-0.9589,-1.166,-1.2266,-1.2948,-1.4824,-1.5741,-1.6147,-1.5824,-1.7106,-1.8391,-1.9162,-2.0697,-2.2247,-2.3461,-2.372,-2.3687,-2.3467,-2.3137,-2.2768,-2.2612,-2.3189,-2.3584,-2.3879,-2.4361,-2.4637,-2.4637,-2.4833,-2.5314,-2.6061,-2.6401,-2.7044,-2.8111,-2.8057,-2.8533,-2.9349,-2.9635,-3.0011,-3.0578,-3.0011,-3.0283,-3.1026,-2.9715,-2.9521,-3.017,-2.9154,-2.8226,-2.7295,-2.7084,-2.6522,-2.5741,-2.5226,-2.5014,-2.4785,0.0,0.0,0.0,0.0,0.0,0.0,0.0,0.0,0.0,0.0,0.0,0.0,0.0,0.0,0.0,0.0,0.0,0.0,0.0,1.2432,1.1842,1.1896,1.162,1.126,1.0738,1.0432,0.9523,0.8003,0.7693,0.7007,0.6089,0.6504,0.6274,0.5485,0.5185,0.4562,0.3853,0.2671,0.0868,0.0,0.0,-0.4367,-0.5594,-0.6086,-0.6441,-0.6736,-0.6803,-0.6791,-0.67,-0.6874,-0.6425,-0.5706,-0.5176,-0.491,-0.5087,-0.6242,-0.6419,-0.6508,-0.7757,-0.8028,-0.8116,-0.8372,-0.8811,-0.9676,-1.1488,-1.2174,-1.2948,-1.4741,-1.5824,-1.6312,-1.6139,-1.7107,-1.8308,-1.9567,-2.0504,-2.1752,-2.3658,-2.3782,-2.3791,-2.381,-2.3438,-2.3217,-2.3128,-2.3298,-2.3551,-2.3729,-2.4105,-2.4341,-2.4341,-2.4538,-2.4922,-2.5577,-2.5615,-2.5905,-2.6532,-2.7463,-2.7934,-2.7945,-2.8319,-2.8784,-2.9165,-2.8784,-2.9165,-3.0011,-2.8691,-2.8495,-2.8969,-2.7934,-2.6791,-2.5698,-2.5506,-2.491,-2.4162,-2.3737,-2.3567,-2.3444,0.0,0.0,0.0,0.0,0.0,0.0,0.0,0.0,0.0,0.0,0.0,0.0,0.0,0.0,0.0,0.0,0.0,0.0,0.0,0.0,0.0,0.0,1.0714,1.0363,0.9765,0.9523,0.9069,0.8394,0.7698,0.731,0.7157,0.6395,0.6086,0.6012,0.5404,0.3995,0.227,0.3692,0.2624,-0.0242,-0.3401,-0.5252,-0.6144,0.0,0.0,-0.6495,-0.6668,-0.6294,-0.5697,-0.5714,-0.527,-0.4732,-0.4732,-0.4467,-0.4467,-0.5797,-0.5974,-0.6157,-0.7496,-0.794,-0.8025,-0.8113,-0.8899,-0.9937,-1.1305,-1.2328,-1.3353,-1.4908,-1.5982,-1.6706,-1.678,-1.7188,-1.7989,-1.9659,-1.9925,-2.0752,-2.3101,-2.333,-2.3517,-2.4104,-2.3831,-2.373,-2.4009,-2.374,-2.3654,-2.4021,-2.4125,-2.4113,-2.407,-2.407,-2.4196,-2.443,-2.4486,-2.4594,-2.4773,-2.6532,-2.6979,-2.6234,-2.7169,-2.7641,-2.7735,-2.7641,-2.8028,-2.8795,-2.7829,-2.7463,-2.7389,-2.6461,-2.5381,-2.422,-2.4173,-2.3729,-2.3196,-2.3233,-2.3037,-2.2774,0.0,0.0,0.0,0.0,0.0,0.0,0.0,0.0,0.0,0.0,0.9884,1.011,0.0,0.0,0.0,0.0,0.0,0.0,0.0,0.0,0.0,0.0,0.9804,0.9432,0.9135,0.8595,0.7757,0.6626,0.6472,0.6089,0.5401,0.5473,0.5398,0.5249,0.5422,0.3606,0.047,0.0706,0.055,-0.0158,-0.2117,-0.4001,-0.5593,0.0,0.0,0.0,-0.679,-0.6313,-0.5583,-0.5687,-0.465,-0.3223,-0.3223,-0.2686,-0.2329,-0.4289,-0.4734,-0.509,-0.7054,-0.7411,-0.7319,-0.7591,-0.7944,-0.8719,-1.0697,-1.1884,-1.3243,-1.522,-1.6854,-1.7908,-1.7602,-1.8886,-2.0001,-1.9904,-2.0908,-2.209,-2.3122,-2.3588,-2.3865,-2.42,-2.4166,-2.4013,-2.3911,-2.4087,-2.4247,-2.4327,-2.4161,-2.3947,-2.3629,-2.3648,-2.3804,-2.4242,-2.426,-2.426,-2.4359,-2.4627,-2.5099,-2.5479,-2.5674,-2.6051,-2.6733,-2.6051,-2.6426,-2.7474,-2.5761,-2.5674,-2.6502,-2.4919,-2.4181,-2.3904,-2.3379,-2.3109,-2.2905,-2.2557,-2.2428,-2.2392,0.0,0.0,0.0,0.0,0.0,0.0,0.0,0.6371,0.6268,0.6195,0.6335,0.7087,0.878,0.9074,0.915,0.0,0.0,0.0,0.0,0.0,0.0,0.0,0.0,0.0,0.7532,0.7452,0.731,0.7111,0.0,0.6261,0.6285,0.5494,0.5098,0.5023,0.5193,0.4325,0.251,0.0706,-0.0157,-0.0392,-0.1175,-0.3129,0.0,0.0,0.0,0.0,0.0,-0.6195,-0.5545,-0.6132,-0.5137,-0.3667,-0.3667,-0.331,-0.3221,-0.4736,-0.5095,-0.5359,-0.6877,-0.7323,-0.7323,-0.7507,-0.8025,-0.8978,-1.0616,-1.1718,-1.3081,-1.522,-1.669,-1.7819,-1.8238,-1.9125,-1.9913,-2.0469,-2.0801,-2.1411,-2.268,-2.3225,-2.3681,-2.4041,-2.4459,-2.468,-2.4498,-2.4619,-2.4482,-2.4132,-2.3623,-2.3486,-2.3749,-2.3416,-2.3327,-2.3519,-2.3529,-2.3629,-2.3831,-2.384,-2.4137,-2.4726,-2.4726,-2.4922,-2.5304,-2.4913,-2.5179,-2.5819,-2.4494,-2.4468,-2.5094,-2.388,-2.3296,-2.3084,-2.2703,-2.2502,-2.2208,-2.2098,-2.2016,-2.1997,0.0,0.0,0.0,0.0,0.0,0.0,0.0,0.3686,0.3497,0.3352,0.3343,0.4355,0.6976,0.7629,0.7914,0.0,0.0,0.0,0.0,0.0,0.0,0.0,0.0,0.0,0.0,0.0,0.0,0.6641,0.5544,0.0,0.0,0.0,0.0,0.0,0.4401,0.4646,0.4726,0.0628,-0.1335,0.0,0.0,-0.3288,0.0,0.0,0.0,0.0,0.0,-0.6125,-0.5808,-0.6645,-0.5953,-0.4884,-0.4905,-0.4645,-0.4467,-0.545,-0.5719,-0.5897,-0.6874,-0.7234,-0.7415,-0.7415,-0.8281,-0.9405,-1.0611,-1.1809,-1.3256,-1.5462,-1.6609,-1.7658,-1.8957,-1.9204,-1.9599,-2.0964,-2.0634,-2.0693,-2.2272,-2.2811,-2.3327,-2.396,-2.4661,-2.5094,-2.5274,-2.5115,-2.4775,-2.4145,-2.3299,-2.3022,-2.3585,-2.3074,-2.2762,-2.2857,-2.2857,-2.3012,-2.3419,-2.3419,-2.3584,-2.3895,-2.3895,-2.3895,-2.3895,-2.3895,-2.41,-2.426,-2.3601,-2.3521,-2.3775,-2.3037,-2.2621,-2.2318,-2.2236,-2.1916,-2.1553,-2.1553,-2.1463,-2.1374,0.0,0.0,0.0,0.0,0.0,0.0,0.0,0.2931,0.2676,0.2001,0.1917,0.2066,0.2419,0.3555,0.4295,0.0,0.0,0.0,0.0,0.0,0.0,0.0,0.0,0.0,0.0,0.0,0.0,0.2422,0.1559,0.0,0.0,0.0,0.0,0.0,0.0,0.3608,0.4567,-0.1803,0.0,0.0,0.0,0.0,0.0,0.0,0.0,0.0,0.0,-0.6488,-0.6475,-0.6749,-0.6764,-0.6711,-0.6835,-0.5711,-0.4467,-0.545,-0.5719,-0.5897,-0.6874,-0.7139,-0.7143,-0.7143,-0.8017,-0.9235,-1.0351,-1.214,-1.4176,-1.6198,-1.7261,-1.8318,-1.9618,-1.9784,-2.0098,-2.1051,-2.1128,-2.1433,-2.235,-2.2532,-2.3033,-2.4299,-2.453,-2.4815,-2.5516,-2.5559,-2.538,-2.5105,-2.3617,-2.2602,-2.2447,-2.2348,-2.247,-2.2866,-2.2857,-2.2875,-2.2911,-2.2911,-2.2939,-2.3061,-2.3061,-2.3061,-2.3061,-2.3061,-2.3043,-2.31,-2.3006,-2.2988,-2.3017,-2.2538,-2.2364,-2.2291,-2.1933,-2.1491,-2.1087,-2.1087,-2.0826,-2.0473,0.0,0.0,0.0,0.0,0.0,0.0,0.0698,0.0698,0.0608,0.0257,0.0171,-0.0,-0.0579,-0.0163,0.0884,0.2503,0.0,0.0,0.0,0.0,0.0,0.0,0.0,0.0,0.0,0.0,0.0312,-0.0,-0.0311,0.0,0.0,0.0,0.0,0.0,0.0,-0.1478,-0.0078,-0.2728,0.0,0.0,0.0,0.0,0.0,0.0,0.0,0.0,0.0,0.0,-0.7605,-0.7667,-0.7935,-0.8199,-0.8267,-0.817,-0.7891,-0.6864,-0.652,-0.6609,-0.6962,-0.7139,-0.7228,-0.7841,-0.8281,-0.9235,-1.1386,-1.2656,-1.4169,-1.6601,-1.7594,-1.8407,-1.9696,-1.9863,-2.0323,-2.17,-2.1928,-2.2283,-2.3295,-2.3351,-2.3455,-2.3989,-2.4239,-2.4501,-2.493,-2.5209,-2.5115,-2.468,-2.327,-2.2381,-2.1933,-2.1652,-2.1559,-2.1751,-2.2299,-2.2419,-2.2119,-2.2668,-2.2973,-2.2857,-2.2857,-2.2857,-2.2857,-2.2857,-2.2729,-2.2482,-2.2213,-2.1976,-2.1733,-2.1298,-2.1063,-2.1046,-2.0896,-2.0736,-2.0555,-2.0555,-2.0464,-2.0292,0.0,0.0,0.0,0.0,0.0,-0.1274,-0.1448,-0.1716,-0.206,-0.2193,-0.2275,-0.2515,-0.3132,-0.321,-0.2409,-0.0478,0.0079,0.0,0.0,0.0,0.0,0.0,0.0,0.0,0.0,0.0,-0.2176,-0.2863,-0.3098,-0.4428,0.0,0.0,-0.6486,-0.6173,0.0,0.0,0.0,0.0,0.0,0.0,0.0,0.0,0.0,0.0,0.0,0.0,0.0,0.0,0.0,0.0,0.0,-0.9275,-0.934,-0.9923,-1.0265,-0.8532,-0.7837,-0.7577,-0.758,-0.7316,-0.7316,-0.8281,-0.8803,-0.9666,-1.2157,-1.3256,-1.4504,-1.6935,-1.7755,-1.8407,-1.9696,-2.0089,-2.0692,-2.2069,-2.251,-2.301,-2.3902,-2.3913,-2.3818,-2.382,-2.4115,-2.436,-2.4405,-2.4756,-2.468,-2.3897,-2.3096,-2.2394,-2.1961,-2.1606,-2.1257,-2.0817,-2.1713,-2.186,-2.1239,-2.1871,-2.2199,-2.2128,-2.2128,-2.2128,-2.2128,-2.2128,-2.1967,-2.1688,-2.1331,-2.1081,-2.0727,-2.0464,-2.0292,-2.0292,-2.0292,-2.0201,-2.0102,-2.0102,-2.0019,-1.9837,0.0,0.0,0.0,0.0,0.0,0.0,-0.3236,-0.4139,-0.5017,-0.5552,-0.5628,-0.567,-0.5548,-0.5537,-0.5485,-0.5446,-0.4172,0.0,0.0,0.0,0.0,0.0,0.0,0.0,0.0,0.0,-0.5963,-0.6707,-0.7563,-0.7875,-0.7715,-0.858,-0.8429,-0.7499,0.0,0.0,0.0,0.0,0.0,0.0,0.0,0.0,0.0,0.0,0.0,0.0,0.0,0.0,0.0,0.0,0.0,0.0,0.0,-1.0349,-1.0524,-1.0356,-0.9579,-0.8803,-0.8544,-0.7841,-0.7316,-0.8281,-0.9405,-1.0697,-1.2334,-1.386,-1.5455,-1.7107,-1.7755,-1.8407,-1.9696,-2.0537,-2.1298,-2.2025,-2.2883,-2.3599,-2.3841,-2.3986,-2.4095,-2.4004,-2.4426,-2.4538,-2.424,-2.4366,-2.409,-2.3183,-2.3096,-2.2921,-2.2394,-2.2394,-2.1784,-2.0382,-2.1257,-2.1257,-2.0292,-2.0292,-2.03,-2.0309,-2.0309,-2.0309,-2.0309,-2.0309,-2.03,-2.0292,-2.03,-2.0292,-2.0292,-2.0292,-2.0292,-2.0292,-2.0292,-2.0011,-1.9646,-1.9646,-1.9279,-1.8827,0.0,0.0,0.0,0.0,0.0,0.0,0.0,-0.5543,-0.5813,-0.6059,-0.6054,-0.6587,-0.7894,-0.7355,-0.7588,-0.9473,-0.6652,0.0,0.0,0.0,0.0,0.0,0.0,0.0,0.0,0.0,-0.7888,-0.8727,-0.8817,-0.8822,-0.8817,-0.9059,-0.9059,-0.8746,-0.9341,-0.9679,0.0,0.0,0.0,0.0,0.0,0.0,-0.914,0.0,0.0,0.0,0.0,0.0,0.0,0.0,0.0,0.0,0.0,0.0,0.0,-1.2626,-1.1391,-1.0009,-0.9923,-0.9749,-0.9662,-1.0453,-1.1552,-1.2735,-1.4196,-1.5771,-1.709,-1.8103,-1.8585,-1.9283,-2.045,-2.0914,-2.1659,-2.339,-2.3902,-2.4409,-2.5324,-2.5016,-2.4778,-2.487,-2.5292,-2.5397,-2.4843,-2.533,-2.5189,-2.4176,-2.409,-2.3734,-2.2921,-2.3464,-2.3202,-2.1784,-2.2677,-2.2677,-2.1695,-2.1695,-2.1606,-2.1257,-2.0645,-2.0292,-2.0292,-2.0292,-2.0292,-2.0292,-1.992,-1.9828,-1.9828,-1.9463,-1.9288,-1.9288,-1.9288,-1.9196,-1.9004,-1.9004,-1.892,-1.8827,0.0,0.0,0.0,0.0,0.0,0.0,0.0,-0.719,-0.7357,-0.7308,-0.7302,-0.7948,-0.9515,-0.905,-0.9483,-1.1596,-0.9407,0.0,0.0,0.0,0.0,0.0,0.0,0.0,0.0,-0.9751,-1.0297,-1.1459,-1.1306,-1.1453,-1.1746,-1.1746,-1.1746,-1.1663,-1.2016,-1.1821,0.0,0.0,0.0,0.0,0.0,0.0,-1.1137,0.0,0.0,0.0,0.0,0.0,0.0,0.0,0.0,0.0,0.0,0.0,0.0,0.0,-1.3847,-1.2886,-1.1878,-1.137,-1.1364,-1.2486,-1.3406,-1.433,-1.5711,-1.6935,-1.7997,-1.8612,-1.924,-1.9913,-2.0904,-2.1517,-2.2489,-2.4036,-2.4636,-2.5229,-2.591,-2.5676,-2.5455,-2.5433,-2.5616,-2.5542,-2.5065,-2.5639,-2.56,-2.4625,-2.454,-2.4272,-2.3637,-2.4176,-2.41,-2.3202,-2.3377,-2.3115,-2.2138,-2.2129,-2.1952,-2.1695,-2.1078,-2.0637,-2.0275,-2.0275,-2.0102,-1.9745,-1.982,-1.9637,0.0,-1.9363,-1.9188,-1.8827,-1.8827,-1.8827,-1.8827,-1.8827,-1.8827,-1.8827,0.0,0.0,0.0,0.0,0.0,0.0,0.0,-0.8887,-0.9507,-0.9341,-0.932,-0.9779,-1.0784,-1.0764,-1.1216,-1.2329,0.0,0.0,0.0,0.0,0.0,0.0,0.0,0.0,-1.2141,-1.2141,-1.2929,-1.4513,-1.4513,-1.4972,-1.5803,-1.5803,-1.5726,-1.5549,-1.5158,-1.4852,0.0,0.0,0.0,0.0,0.0,0.0,0.0,0.0,0.0,0.0,0.0,0.0,0.0,0.0,0.0,0.0,0.0,0.0,0.0,0.0,0.0,0.0,0.0,-1.2952,-1.2681,-1.4289,-1.4968,-1.5569,-1.6772,-1.7594,0.0,-1.8692,-1.9548,-2.0391,-2.1068,-2.2274,-2.3475,-2.4047,-2.5087,-2.577,-2.5606,-2.598,-2.6095,-2.5767,-2.5594,-2.5407,-2.5092,-2.5574,-2.5557,-2.47,-2.4625,-2.454,-2.454,-2.4454,-2.4454,-2.4454,-2.3637,-2.2746,-2.1872,-2.1872,-2.1784,-2.1784,-2.1695,-2.1248,-2.043,-2.0339,-1.9903,-1.9004,-1.9894,-1.972,-1.892,-1.9812,-1.9629,-1.8735,-1.8735,-1.8735,-1.8735,-1.8735,-1.8735,-1.8735,0.0,0.0,0.0,0.0,0.0,0.0,0.0,0.0,0.0,0.0,-1.1895,-1.2283,-1.3339,-1.2592,-1.2757,0.0,0.0,0.0,0.0,0.0,0.0,0.0,0.0,0.0,-1.3423,-1.3423,-1.3967,-1.5057,-1.5057,-1.5419,-1.6228,-1.6228,-1.6228,-1.6144,-1.607,-1.5873,0.0,0.0,0.0,0.0,0.0,0.0,0.0,0.0,0.0,0.0,-1.4736,-1.4673,0.0,0.0,0.0,0.0,0.0,0.0,0.0,0.0,-1.7106,-1.7291,-1.7365,0.0,-1.5808,-1.5913,-1.6667,-1.7326,0.0,-1.8318,-1.9054,-1.9152,-1.9696,-2.0459,-2.1364,-2.2285,-2.3213,-2.4478,-2.4849,-2.5206,-2.5548,-2.598,-2.6181,-2.6082,-2.6406,-2.6478,-2.6158,-2.6514,-2.6496,-2.608,-2.5454,-2.5031,-2.5031,-2.4358,-2.3927,-2.3927,-2.3744,-2.3744,-2.3831,-2.3105,-2.2746,-2.2746,-2.2041,-2.1606,-2.1338,-2.115,-2.0979,-2.0709,-1.9985,-1.953,-1.9263,-1.8812,-1.845,-1.8272,-1.8272,-1.8272,-1.8272,-1.8272,-1.8272,-1.8272,0.0,0.0,0.0,0.0,0.0,0.0,0.0,0.0,0.0,0.0,0.0,-1.3119,-1.4196,-1.3862,0.0,0.0,0.0,0.0,0.0,0.0,0.0,0.0,0.0,-1.5095,-1.5427,-1.5427,-1.5897,-1.6764,-1.6764,-1.7225,-1.7991,-1.7991,-1.7991,-1.7982,-1.7805,-1.7512,0.0,0.0,0.0,0.0,-1.6277,0.0,0.0,0.0,0.0,0.0,-1.6178,-1.6032,0.0,-1.6032,-1.6032,-1.6125,0.0,0.0,0.0,0.0,-1.8506,-1.8937,-1.9265,-1.855,-1.7819,-1.798,-1.8479,-1.8807,-1.8718,-1.9125,-1.9539,-1.9539,-2.0245,-2.1011,-2.1745,-2.2521,-2.3519,-2.4838,-2.4838,-2.4897,-2.5581,-2.5804,-2.6094,-2.6589,-2.7139,-2.7214,-2.6466,-2.6745,-2.671,-2.5811,-2.5348,-2.5022,-2.5022,-2.421,-2.3823,-2.4039,-2.371,-2.3725,-2.4186,-2.3647,-2.3377,-2.3377,-2.294,-2.2413,-2.205,-2.1863,-2.1606,-2.1168,-2.097,-2.0331,-1.953,-1.9886,-1.9521,-1.8719,-1.8719,-1.8996,-1.9355,-1.845,-1.8357,-1.8719,0.0,0.0,0.0,0.0,0.0,0.0,0.0,0.0,0.0,0.0,0.0,0.0,0.0,0.0,0.0,0.0,0.0,0.0,0.0,0.0,0.0,0.0,0.0,-1.7075,-1.7589,-1.7531,-1.7912,-1.8807,-1.8754,-1.9125,-2.002,-2.0098,-2.0167,-2.0157,-1.9803,-1.9514,0.0,0.0,-1.9251,-1.9203,-1.8255,0.0,0.0,0.0,0.0,0.0,0.0,0.0,0.0,-1.7459,-1.7459,-1.753,-1.7852,0.0,0.0,0.0,0.0,0.0,-2.042,-1.9696,-1.9125,-1.9775,-1.9863,-1.9863,-1.9863,-1.9863,-1.9942,-2.0089,-2.0867,-2.1721,-2.2145,-2.2979,-2.4032,-2.4957,-2.4886,-2.5016,-2.5755,-2.5836,-2.6126,-2.7027,-2.7546,-2.7507,-2.6479,-2.6773,-2.6542,-2.5392,-2.5093,-2.5015,-2.5015,-2.4252,-2.3977,-2.4381,-2.3577,-2.3352,-2.3715,-2.377,-2.3841,-2.3841,-2.3841,-2.3387,-2.257,-2.258,-2.2138,-2.1445,-2.205,-2.132,-1.9977,-2.1409,-2.1051,-1.9347,-1.9347,-1.9894,-2.0447,-1.8812,-1.8719,-1.9255,0.0,0.0,0.0,0.0,0.0,0.0,0.0,0.0,0.0,0.0,0.0,0.0,0.0,0.0,0.0,0.0,0.0,0.0,0.0,0.0,0.0,-1.9092,-1.8774,-1.8658,-1.9024,-1.8622,-1.8798,-1.9715,-1.9377,-1.9618,-2.0489,-2.1165,-2.1527,-2.1527,-2.1466,-2.1535,-2.1613,-2.0877,-2.1116,-2.1924,-2.1045,0.0,0.0,0.0,0.0,0.0,0.0,0.0,0.0,-1.9466,-1.9466,-1.9555,-1.9944,0.0,0.0,0.0,0.0,0.0,-2.0829,-2.0664,-2.042,-2.002,-1.9863,-1.9863,-1.9863,-1.9863,-2.0089,-2.0769,-2.1527,-2.2145,-2.2542,-2.3446,-2.42,-2.4334,-2.5111,-2.5816,-2.6277,-2.6427,-2.6577,-2.6782,-2.6858,-2.7031,-2.7276,-2.6986,-2.6871,-2.7087,-2.613,-2.5515,-2.5515,-2.4635,-2.4194,-2.419,-2.3499,-2.3135,-2.3207,-2.3628,-2.3841,-2.3841,-2.3841,-2.3754,-2.357,-2.3396,-2.3232,-2.3057,-2.2236,-2.1606,-2.1338,-2.0782,-1.9877,-1.888,-1.888,-1.8972,-1.9063,-1.8796,-1.8796,-1.8796,0.0,0.0,0.0,0.0,0.0,0.0,0.0,0.0,0.0,0.0,0.0,0.0,0.0,0.0,0.0,0.0,0.0,0.0,0.0,0.0,0.0,-2.0713,-2.0974,-2.1019,-2.068,-2.0486,-2.0559,-2.099,-2.0799,-2.0947,-2.136,-2.2127,-2.2892,-2.3491,-2.3491,-2.3337,-2.3115,-2.3182,-2.297,-2.259,0.0,0.0,0.0,0.0,0.0,0.0,0.0,0.0,0.0,0.0,-2.0581,-2.0622,-2.0843,0.0,0.0,0.0,0.0,0.0,-2.1061,-2.1061,-2.0974,-2.0654,-2.0411,-2.0401,-2.0914,-2.1058,-2.1288,-2.2178,-2.2776,-2.3305,-2.3683,-2.4057,-2.4295,-2.4127,-2.5154,-2.6043,-2.6164,-2.6553,-2.6973,-2.739,-2.7469,-2.7439,-2.7426,-2.7176,-2.6999,-2.6897,-2.6383,-2.5876,-2.5448,-2.4607,-2.4039,-2.385,-2.3098,-2.2824,-2.3082,-2.333,-2.321,-2.28,-2.28,-2.2928,-2.3061,-2.2975,-2.3103,-2.3232,-2.2687,-2.2148,-2.1695,-2.1774,-2.123,-2.0331,-2.0331,-2.0692,-2.1051,-2.0512,-1.9695,-1.8696,0.0,0.0,0.0,0.0,0.0,0.0,0.0,0.0,0.0,0.0,0.0,0.0,0.0,0.0,0.0,0.0,0.0,0.0,0.0,0.0,-2.1418,-2.1695,-2.2413,-2.265,-2.2197,-2.209,-2.2031,-2.2031,-2.2162,-2.2513,-2.2991,-2.3615,-2.4399,-2.5249,-2.5249,-2.4926,-2.4483,-2.5116,-2.4719,-2.3688,0.0,0.0,0.0,0.0,0.0,0.0,0.0,0.0,0.0,0.0,0.0,0.0,0.0,0.0,0.0,-2.1359,-2.1359,-2.1339,-2.1151,-2.1131,-2.11,-2.1141,-2.0881,-2.0914,-2.1676,-2.187,-2.2137,-2.3201,-2.3741,-2.4237,-2.4588,-2.4611,-2.4585,-2.4685,-2.5534,-2.6205,-2.6491,-2.6865,-2.7351,-2.7934,-2.8013,-2.7815,-2.7403,-2.7268,-2.7053,-2.6564,-2.6414,-2.6139,-2.5581,-2.4992,-2.4449,-2.4033,-2.3209,-2.285,-2.3071,-2.2922,-2.2554,-2.1967,-2.1967,-2.2051,-2.2184,-2.2184,-2.2359,-2.2669,-2.2669,-2.2273,-2.1743,-2.2456,-2.2337,-2.1606,-2.1606,-2.2059,-2.2687,-2.1971,-2.0782,-1.9422,0.0,0.0,0.0,0.0,0.0,0.0,0.0,0.0,0.0,0.0,0.0,0.0,0.0,0.0,0.0,0.0,0.0,0.0,0.0,0.0,-2.0692,-2.1695,-2.1952,-2.2375,-2.296,-2.2666,-2.2471,-2.2471,-2.3084,-2.4298,-2.6053,-2.613,-2.6206,-2.6282,-2.6282,-2.6233,-2.6041,-2.6109,-2.6382,-2.671,-2.5937,0.0,0.0,0.0,0.0,0.0,0.0,0.0,0.0,0.0,0.0,0.0,0.0,0.0,-2.1731,-2.1731,-2.1731,-2.1638,-2.0992,-2.0795,-2.0841,-2.0833,-2.1018,-2.1237,-2.1502,-2.1544,-2.1851,-2.2891,-2.3628,-2.4132,-2.4521,-2.4782,-2.5409,-2.6683,-2.6673,-2.6882,-2.7802,-2.7829,-2.7776,-2.7776,-2.7656,-2.7536,-2.7456,-2.7175,-2.6973,-2.6973,-2.662,-2.6346,-2.6346,-2.6277,-2.5943,-2.5218,-2.4394,-2.37,-2.3025,-2.2282,-2.2022,-2.2205,-2.2205,-2.1885,-2.1313,-2.1313,-2.1332,-2.136,-2.136,-2.1504,-2.1787,-2.1873,-2.1646,-2.1338,-2.1338,-2.1516,-2.1784,-2.1695,-2.1606,-2.1329,0.0,0.0,0.0,0.0,0.0,0.0,0.0,0.0,0.0,0.0,0.0,0.0,0.0,0.0,0.0,0.0,0.0,0.0,0.0,-2.2138,-2.2413,-2.2775,-2.3038,-2.3212,-2.3484,-2.3421,-2.3342,-2.3342,-2.4127,-2.5414,-2.7234,-2.7234,-2.7627,-2.8261,-2.8261,-2.8047,-2.7676,-2.8174,-2.7634,-2.6295,-2.624,-2.5458,0.0,0.0,0.0,0.0,0.0,0.0,0.0,0.0,-2.1807,-2.1807,-2.1807,-2.1807,-2.1807,-2.1807,-2.16,-2.1342,-2.1092,-2.0761,-2.0566,-2.0747,-2.1111,-2.1732,-2.258,-2.3028,-2.3499,-2.4316,-2.5154,-2.5774,-2.5761,-2.604,-2.6235,-2.6257,-2.668,-2.6991,-2.7059,-2.76,-2.8118,-2.8417,-2.7908,-2.7656,-2.8105,-2.7643,-2.7323,-2.7323,-2.7188,-2.6905,-2.6414,-2.6414,-2.607,-2.5312,-2.4492,-2.3975,-2.3694,-2.2905,-2.2431,-2.2169,-2.2012,-2.1749,-2.1435,-2.1759,-2.1663,-2.1182,-2.1607,-2.1704,-2.1428,-2.1428,-2.1334,-2.1237,-2.1506,-2.1845,-2.2157,-2.2157,-2.1802,-2.1168,0.0,0.0,0.0,0.0,0.0,0.0,0.0,0.0,0.0,0.0,0.0,0.0,0.0,0.0,0.0,0.0,0.0,0.0,-2.3309,-2.3493,-2.359,-2.359,-2.3851,-2.3937,-2.3937,-2.4024,-2.409,-2.4241,-2.5462,-2.6871,-2.8462,-2.8462,-2.8779,-2.9521,-2.9521,-2.8949,-2.8131,-2.904,-2.7956,-2.5661,-2.5981,-2.5286,0.0,0.0,0.0,0.0,0.0,0.0,0.0,0.0,-2.1807,-2.1807,-2.1807,-2.1807,-2.1807,-2.1807,-2.158,-2.1269,-2.0979,-2.0659,-2.049,-2.0615,-2.0953,-2.1688,-2.3066,-2.3732,-2.4229,-2.4893,-2.5921,-2.6733,-2.6749,-2.694,-2.6963,-2.6517,-2.6976,-2.7363,-2.7215,-2.7884,-2.8534,-2.8853,-2.8417,-2.8338,-2.8776,-2.8403,-2.8026,-2.7842,-2.7842,-2.751,-2.6769,-2.6769,-2.6414,-2.5652,-2.5134,-2.4696,-2.4409,-2.3925,-2.3497,-2.2979,-2.2681,-2.2161,-2.145,-2.1852,-2.1709,-2.1192,-2.1445,-2.1361,-2.1056,-2.091,-2.0902,-2.1146,-2.1665,-2.2006,-2.2261,-2.2385,-2.1989,-2.1445,0.0,0.0,0.0,0.0,0.0,0.0,0.0,0.0,0.0,0.0,0.0,0.0,0.0,0.0,0.0,0.0,0.0,0.0,-2.3754,-2.3841,-2.3841,-2.3841,-2.4024,-2.4206,-2.4206,-2.4368,-2.468,-2.5126,-2.7093,-2.8688,-2.9792,-2.9792,-2.9792,-2.9792,-2.9792,-2.8803,-2.7151,-2.8131,-2.7265,-2.5201,-2.5201,-2.4905,-2.4399,0.0,0.0,0.0,0.0,0.0,0.0,0.0,-2.1807,-2.1807,-2.1807,-2.1807,-2.1807,-2.1807,-2.1797,-2.159,-2.0669,-2.0552,-2.0614,-2.0468,-2.0495,-2.1008,-2.2555,-2.3084,-2.3555,-2.4326,-2.5591,-2.664,-2.7115,-2.7276,-2.7454,-2.7909,-2.7905,-2.8016,-2.8587,-2.889,-2.9011,-2.9066,-2.9345,-2.949,-2.949,-2.949,-2.9192,-2.8519,-2.8454,-2.8208,-2.751,-2.751,-2.7162,-2.6414,-2.6414,-2.5918,-2.5004,-2.5229,-2.5229,-2.5004,-2.4409,-2.3084,-2.1242,-2.1242,-2.1242,-2.1165,-2.0469,-2.0476,-2.0771,-2.0161,-2.0319,-2.0978,-2.157,-2.1826,-2.1883,-2.228,-2.2344,-2.2353,0.0,0.0,0.0,0.0,0.0,0.0,0.0,0.0,0.0,0.0,0.0,0.0,0.0,0.0,0.0,0.0,0.0,0.0,-2.3754,-2.4024,-2.411,-2.411,-2.4282,-2.4368,-2.4368,-2.5684,-2.6412,-2.6472,-2.7128,-2.8211,-2.9792,-2.9792,-2.9792,-2.9792,-2.9934,-2.9611,-2.8937,-2.8468,-2.7411,-2.6029,-2.4848,-2.395,-2.3264,0.0,0.0,0.0,0.0,0.0,0.0,0.0,0.0,0.0,-2.2176,-2.2252,-2.2252,-2.2252,-2.1723,-2.1165,-2.0881,-2.0254,-1.9744,-1.9801,-2.0226,-2.073,-2.1388,-2.2567,-2.4047,-2.5591,-2.6283,-2.6774,-2.7233,-2.766,-2.7775,-2.7565,-2.807,-2.8396,-2.8088,-2.8353,-2.8699,-2.8973,-2.858,-2.8462,-2.8828,-2.8418,-2.8075,-2.7894,-2.7848,-2.7726,-2.7421,-2.7064,-2.6874,-2.7013,-2.6092,-2.5661,-2.5767,-2.5288,-2.5087,-2.5004,-2.4707,-2.3818,-2.2638,-2.2521,-2.1928,-2.1021,-2.1405,-2.1245,-2.082,-2.0359,-2.0127,-2.02,-2.0412,-2.08,-2.1299,-2.142,-2.166,-2.1909,0.0,0.0,0.0,0.0,0.0,0.0,0.0,0.0,0.0,0.0,0.0,0.0,0.0,0.0,0.0,0.0,0.0,0.0,0.0,-2.4196,-2.4292,-2.4292,-2.4454,-2.454,-2.4615,-2.6091,-2.7058,-2.7395,-2.7891,-2.8712,-2.9792,-2.9869,-2.9934,-2.9934,-3.0152,-2.9754,-2.8924,-2.8053,-2.6839,-2.5351,-2.4161,-2.3285,-2.2576,0.0,0.0,0.0,0.0,0.0,0.0,0.0,0.0,0.0,-2.2327,-2.2402,-2.2402,-2.2327,-2.1627,-2.0813,-2.0452,-1.9737,-1.9168,-1.9147,-1.9639,-2.0204,-2.0816,-2.2421,-2.4302,-2.5877,-2.6496,-2.6982,-2.766,-2.814,-2.8352,-2.8161,-2.8627,-2.8832,-2.8464,-2.8604,-2.8867,-2.9119,-2.8832,-2.8749,-2.9042,-2.8637,-2.8297,-2.7996,-2.7996,-2.7836,-2.7485,-2.7069,-2.7006,-2.7359,-2.6509,-2.6155,-2.6387,-2.6031,-2.5812,-2.571,-2.5355,-2.4825,-2.4253,-2.3841,-2.3043,-2.2004,-2.1873,-2.1415,-2.0789,-2.0479,-2.0084,-1.9696,-1.9852,-2.006,-2.0381,-2.0716,-2.111,-2.1463,0.0,0.0,0.0,0.0,0.0,0.0,0.0,0.0,0.0,0.0,0.0,0.0,0.0,0.0,0.0,0.0,0.0,0.0,0.0,0.0,-2.454,-2.454,-2.454,-2.47,-2.5031,-2.5997,-2.6976,-2.7879,-2.9118,-2.9792,-2.9869,-3.0011,-3.0152,-3.0152,-3.0216,-2.9406,-2.7844,-2.7199,-2.5757,-2.3855,-2.3253,-2.2785,-2.2402,-2.2402,0.0,0.0,0.0,0.0,0.0,0.0,0.0,0.0,-2.2478,-2.2478,-2.2402,-2.2252,-2.1517,-2.0599,-1.961,-1.9136,-1.8759,-1.8574,-1.89,-1.9628,-2.0805,-2.2494,-2.42,-2.5439,-2.6361,-2.7159,-2.8046,-2.8591,-2.9028,-2.9271,-2.9364,-2.9388,-2.9286,-2.9357,-2.9368,-2.9342,-2.9569,-2.9735,-2.9682,-2.9599,-2.9301,-2.8671,-2.8601,-2.8378,-2.7711,-2.7479,-2.739,-2.7446,-2.7138,-2.6987,-2.6889,-2.7042,-2.6999,-2.6799,-2.6246,-2.5962,-2.5926,-2.5122,-2.4299,-2.353,-2.2252,-2.1272,-2.0644,-2.0644,-2.0167,-1.9417,-1.9696,-1.9603,-1.9333,-2.007,-2.0625,-2.0953,0.0,0.0,0.0,0.0,0.0,0.0,0.0,0.0,0.0,0.0,0.0,0.0,0.0,0.0,0.0,0.0,0.0,0.0,0.0,0.0,-2.4861,-2.5031,-2.5031,-2.5369,-2.6113,-2.6351,-2.7232,-2.8846,-2.9094,-2.9574,-3.0292,-3.0292,-3.0368,-3.0292,-2.9819,-2.9328,-2.8706,-2.6656,-2.5362,-2.4737,-2.334,-2.2714,-2.2628,-2.2628,-2.2628,0.0,0.0,0.0,0.0,0.0,0.0,0.0,-2.2852,-2.2852,-2.2852,-2.2852,-2.1807,-2.0639,-2.0164,-1.9189,-1.8383,-1.8494,-1.9121,-1.9987,-2.088,-2.1854,-2.2977,-2.4757,-2.5957,-2.693,-2.766,-2.8528,-2.9073,-2.8873,-2.954,-2.9886,-2.9372,-2.9327,-2.9171,-2.8698,-2.8976,-2.9121,-2.883,-2.9074,-2.9139,-2.8719,-2.8881,-2.8768,-2.8323,-2.7513,-2.7326,-2.7795,-2.6847,-2.653,-2.6889,-2.695,-2.6944,-2.6898,-2.6612,-2.6469,-2.6544,-2.5281,-2.4299,-2.3593,-2.315,-2.2327,-2.1272,-2.1272,-2.0954,-2.0255,-1.9631,-1.9597,-1.9742,-1.9571,-1.9704,-2.0147,0.0,0.0,0.0,0.0,0.0,0.0,0.0,0.0,0.0,0.0,0.0,0.0,0.0,0.0,0.0,0.0,0.0,0.0,0.0,0.0,-2.5115,-2.52,-2.5295,-2.5633,-2.6041,-2.6528,-2.7255,-2.8211,-2.9003,-2.9716,-3.0368,-3.052,-3.0292,-2.9896,-2.9639,-2.8934,-2.768,-2.6213,-2.5136,-2.4327,-2.3285,-2.2852,-2.2852,-2.2852,-2.2852,-2.2852,-2.2703,0.0,0.0,0.0,0.0,0.0,0.0,0.0,-2.2628,-2.2777,-2.1659,-2.0212,-1.9555,-1.8485,-1.7722,-1.8339,-1.9044,-1.9781,-2.0442,-2.1376,-2.2445,-2.3755,-2.5218,-2.6534,-2.7449,-2.8225,-2.8888,-2.9257,-2.9645,-2.9837,-2.9738,-2.9694,-2.9499,-2.9198,-2.9303,-2.9316,-2.9073,-2.9148,-2.9148,-2.8934,-2.8919,-2.8889,-2.8795,-2.7997,-2.775,-2.8182,-2.7369,-2.7115,-2.7377,-2.7199,-2.7131,-2.7055,-2.6779,-2.6512,-2.6242,-2.5399,-2.4802,-2.4383,-2.3936,-2.3128,-2.2252,-2.2252,-2.1558,-2.0469,-2.0079,-1.9611,-1.925,-1.9221,-1.9325,-1.9487,0.0,0.0,0.0,0.0,0.0,0.0,0.0,0.0,0.0,0.0,0.0,0.0,0.0,0.0,0.0,0.0,0.0,0.0,0.0,0.0,0.0,-2.5285,-2.5549,-2.5644,-2.5728,-2.661,-2.7174,-2.7418,-2.8846,-2.9793,-3.0444,-3.052,-3.005,-2.925,-2.9238,-2.8204,-2.6347,-2.5721,-2.478,-2.3689,-2.3198,-2.3001,-2.3001,-2.3001,-2.3001,-2.3001,-2.3001,-2.3001,-2.3001,-2.3001,0.0,0.0,0.0,0.0,-2.2187,-2.2478,-2.1422,-1.9938,-1.8924,-1.7797,-1.7151,-1.8047,-1.8767,-1.9441,-1.9868,-2.0996,-2.2089,-2.2712,-2.4372,-2.604,-2.7238,-2.7868,-2.8528,-2.9633,-2.9661,-2.9645,-3.0146,-3.013,-3.0054,-3.0027,-2.9935,-2.9876,-2.9816,-2.9641,-2.9464,-2.9419,-2.9134,-2.9028,-2.9212,-2.8637,-2.8398,-2.8559,-2.811,-2.7898,-2.7898,-2.761,-2.7365,-2.7245,-2.6835,-2.6294,-2.5778,-2.5461,-2.5293,-2.5109,-2.4529,-2.3779,-2.3001,-2.3001,-2.208,-2.0702,-2.0547,-1.9795,-1.8889,-1.9279,-1.9312,-1.9188,0.0,0.0,0.0,0.0,0.0,0.0,0.0,0.0,0.0,0.0,0.0,0.0,0.0,0.0,0.0,0.0,0.0,0.0,0.0,0.0,0.0,-2.5812,-2.5812,-2.6052,-2.6362,-2.6528,-2.7174,-2.8303,-2.8542,-2.9341,-3.0622,-3.0114,-2.9381,-2.8505,-2.781,-2.7117,-2.6347,-2.5127,-2.427,-2.3689,-2.3198,-2.3001,-2.3001,-2.3001,-2.3001,-2.3001,-2.3001,-2.3001,-2.3001,-2.3001,-2.2628,0.0,0.0,0.0,-2.2101,-2.2176,-2.1725,-2.0939,-1.9663,-1.8228,-1.7144,-1.7226,-1.8287,-1.9299,-1.9375,-2.0344,-2.1428,-2.2089,-2.3787,-2.5481,-2.6602,-2.7318,-2.8048,-2.9058,-2.9617,-2.9984,-3.0189,-3.0316,-3.0342,-3.0011,-3.0377,-3.0584,-3.0418,-3.0576,-3.0535,-3.0166,-3.007,-2.9897,-2.9705,-2.912,-2.8811,-2.8858,-2.8255,-2.7898,-2.7898,-2.781,-2.7503,-2.6928,-2.6497,-2.6235,-2.6099,-2.5694,-2.5181,-2.465,-2.4955,-2.4299,-2.3001,-2.3001,-2.2478,-2.1568,-2.0779,-2.042,-2.0194,-1.9823,-1.9697,-1.9722,0.0,0.0,0.0,0.0,0.0,0.0,0.0,0.0,0.0,0.0,0.0,0.0,0.0,0.0,0.0,0.0,0.0,0.0,0.0,0.0,0.0,-2.6622,-2.6622,-2.6704,-2.6857,-2.6857,-2.7174,-2.7742,-2.8303,-2.8542,-2.8779,-2.8619,-2.8549,-2.8448,-2.777,-2.6628,-2.5181,-2.4614,-2.4083,-2.3608,-2.2789,-2.2703,-2.2927,-2.2402,-2.2252,-2.2327,-2.2327,-2.2327,-2.2327,-2.2176,-2.1797,-2.1339,-2.1558,0.0,0.0,0.0,-2.1525,-2.0666,-1.9193,-1.8228,-1.7619,-1.7823,-1.8633,-1.9375,-1.966,-2.0431,-2.1313,-2.1978,-2.3075,-2.4425,-2.604,-2.673,-2.7485,-2.8591,-2.9058,-2.9422,-2.9897,-3.0172,-3.0443,-3.0634,-3.074,-3.0885,-3.1038,-3.0975,-3.0831,-3.0634,-3.0359,-3.0146,-3.0044,-2.9499,-2.9243,-2.9243,-2.8748,-2.8463,-2.8463,-2.8155,-2.761,-2.6774,-2.6569,-2.6148,-2.5513,-2.5329,-2.5345,-2.5411,-2.5388,-2.4953,-2.4227,-2.3779,-2.3191,-2.2402,-2.1558,-2.0934,-2.0479,-2.027,-1.9758,-1.902,0.0,0.0,0.0,0.0,0.0,0.0,0.0,0.0,0.0,0.0,0.0,0.0,0.0,0.0,0.0,0.0,0.0,0.0,0.0,0.0,0.0,-2.7185,-2.7185,-2.7267,-2.736,-2.736,-2.7441,-2.751,-2.8155,-2.8164,-2.7531,-2.7627,-2.7907,-2.8139,-2.7468,-2.6135,-2.4484,-2.4484,-2.4052,-2.3372,-2.2628,-2.2478,-2.2628,-2.1883,-2.1655,-2.1807,-2.1807,-2.1807,-2.1807,-2.1655,-2.1185,-2.0712,-2.1011,-2.0779,0.0,0.0,0.0,-2.0492,-1.9027,-1.8379,-1.8104,-1.8162,-1.87,-1.9375,-1.966,-2.0237,-2.0996,-2.1678,-2.2347,-2.3361,-2.5162,-2.604,-2.6849,-2.8046,-2.84,-2.8826,-2.9617,-2.9897,-3.0258,-3.0838,-3.0861,-3.0925,-3.1252,-3.1072,-3.0912,-3.0912,-3.0443,-3.0146,-3.0087,-2.9738,-2.947,-2.938,-2.9044,-2.8904,-2.8904,-2.835,-2.771,-2.7049,-2.6736,-2.6136,-2.5342,-2.5092,-2.5249,-2.573,-2.5432,-2.5159,-2.4897,-2.4506,-2.3768,-2.2852,-2.2327,-2.1558,-2.0857,-2.0857,-2.0182,-1.9326,0.0,0.0,0.0,0.0,0.0,0.0,0.0,0.0,0.0,0.0,0.0,0.0,-2.0292,-2.1961,-2.3096,-2.3096,-2.5158,-2.6693,-2.7103,-2.7185,-2.7185,-2.7185,-2.7185,0.0,-2.7881,-2.7881,-2.8042,-2.8431,-2.851,-2.847,-2.8496,-2.7948,-2.7454,-2.7033,-2.6083,-2.5417,-2.4837,-2.4837,-2.4179,-2.3001,-2.3001,-2.2553,-2.1883,-2.1807,-2.1807,-2.1807,-2.1807,-2.1807,-2.1807,-2.1807,-2.1415,-2.0867,-2.0944,-2.0867,-2.1011,0.0,0.0,0.0,-1.9653,-1.8884,-1.823,-1.7413,-1.822,-1.9166,-1.87,-1.932,-2.0183,-2.0996,-2.1565,-2.2408,-2.3852,-2.5078,-2.6201,-2.7369,-2.7898,-2.8448,-2.9316,-2.954,-2.9717,-3.0011,-3.0518,-3.0747,-3.0666,-3.0797,-3.0912,-3.0912,-3.0443,-3.0103,-2.9853,-2.9605,-2.938,-2.9121,-2.8967,-2.8904,-2.8904,-2.8125,-2.781,-2.7905,-2.6826,-2.6283,-2.6176,-2.5147,-2.472,-2.4787,-2.504,-2.4679,-2.4014,-2.4661,-2.407,-2.2703,-2.2852,-2.2478,-2.1731,-2.1731,-2.1665,-2.142,0.0,0.0,0.0,0.0,0.0,0.0,0.0,0.0,0.0,0.0,0.0,0.0,0.0,-2.2394,-2.3704,-2.3973,-2.5841,-2.7115,-2.7626,-2.7626,-2.7777,-2.8007,-2.8007,-2.8099,-2.8271,-2.8283,-2.8351,-2.851,-2.8174,-2.7987,-2.8001,-2.7083,-2.6614,-2.6384,-2.6065,-2.5507,-2.483,-2.483,-2.4276,-2.3298,-2.2681,-2.2155,-2.17,-2.1108,-2.0954,-2.1031,-2.1031,-2.1031,-2.1031,-2.0876,-2.0722,-2.0489,-2.0333,-2.0255,-2.0401,-2.1088,-2.1208,-2.0938,-2.0073,-1.9689,-1.9386,-1.87,-1.9177,-1.9726,-1.9594,-1.9736,-2.0129,-2.0933,-2.1502,-2.2187,-2.3135,-2.4697,-2.6054,-2.6849,-2.7479,-2.8042,-2.8496,-2.8779,-2.9104,-2.9689,-2.9865,-3.0182,-3.0666,-3.0551,-3.0584,-3.0871,-3.0443,-3.0087,-2.9793,-2.9605,-2.938,-2.9121,-2.8905,-2.8763,-2.8573,-2.8365,-2.8057,-2.7645,-2.6901,-2.639,-2.5988,-2.4908,-2.4281,-2.3996,-2.4167,-2.4369,-2.4679,-2.4434,-2.4272,-2.407,-2.3139,-2.2703,-2.2478,-2.1949,-2.1415,-2.0886,0.0,0.0,0.0,0.0,0.0,0.0,0.0,0.0,0.0,-2.0464,0.0,0.0,0.0,0.0,-2.3973,-2.5084,-2.6268,-2.7278,-2.8042,-2.8122,-2.8203,-2.851,-2.851,-2.851,-2.851,-2.833,-2.8246,-2.8246,-2.7717,-2.7368,-2.7164,-2.643,-2.5997,-2.5829,-2.5829,-2.5505,-2.4992,-2.4992,-2.4322,-2.3361,-2.267,-2.1983,-2.1318,-2.0644,-2.0489,-2.0566,-2.0566,-2.0566,-2.0566,-2.0411,-2.042,-2.0342,-2.0177,-2.0323,-2.0547,-2.0634,-2.0886,-2.0997,-2.0339,-2.009,-1.9929,-1.9417,-1.9726,-2.0074,-1.9868,-1.9868,-2.0064,-2.056,-2.1123,-2.1678,-2.2359,-2.3865,-2.5301,-2.6122,-2.6826,-2.7458,-2.7894,-2.8125,-2.8496,-2.912,-2.9364,-2.9722,-3.0251,-3.0258,-3.0316,-3.0651,-3.0443,-3.013,-2.981,-2.9677,-2.9425,-2.8998,-2.8905,-2.8684,-2.8411,-2.8541,-2.8365,-2.7879,-2.7093,-2.6534,-2.619,-2.5021,-2.4292,-2.3839,-2.3697,-2.3965,-2.4384,-2.4238,-2.4364,-2.4484,-2.3795,-2.3213,-2.2777,-2.2327,-2.1634,-2.0779,0.0,0.0,0.0,0.0,0.0,0.0,0.0,0.0,-2.0997,-2.0997,0.0,0.0,0.0,0.0,0.0,-2.6268,-2.6528,-2.7103,-2.8351,-2.851,-2.851,-2.851,-2.851,-2.8498,-2.8486,-2.7981,-2.7717,-2.7705,-2.7176,-2.6635,-2.6093,-2.6081,-2.5793,-2.5312,-2.5312,-2.5312,-2.5229,-2.5229,-2.442,-2.3032,-2.2957,-2.1983,-2.0566,-2.0566,-2.0566,-2.0566,-2.0566,-2.0566,-2.0566,-2.0566,-2.0566,-2.0566,-2.0566,-2.1165,-2.1614,-2.0644,-2.0777,-2.1126,0.0,0.0,0.0,-1.9425,-1.9726,-1.9944,-1.9441,-1.9649,-1.9868,-1.9868,-2.0291,-2.0782,-2.1491,-2.2615,-2.391,-2.5161,-2.5892,-2.6616,-2.7458,-2.778,-2.8027,-2.8348,-2.9029,-2.9425,-2.9305,-2.9826,-3.0146,-3.0189,-3.0359,-3.0241,-2.9793,-2.9793,-2.947,-2.8794,-2.8889,-2.8748,-2.8396,-2.8541,-2.8573,-2.8573,-2.7312,-2.6782,-2.6849,-2.5591,-2.4765,-2.4292,-2.3813,-2.3366,-2.3103,-2.4287,-2.4369,-2.3805,-2.4661,-2.3925,-2.2478,-2.2841,-2.2327,-2.1425,0.0,0.0,0.0,0.0,0.0,0.0,-2.0546,-2.0808,-2.1087,0.0,0.0,0.0,-2.1741,-2.2853,-2.4145,-2.5443,-2.6445,-2.7185,-2.7522,-2.8179,-2.851,-2.851,-2.851,-2.833,-2.7945,-2.7801,-2.7536,-2.7152,-2.6598,-2.625,-2.6093,-2.5709,-2.5444,-2.5312,-2.5312,-2.5016,-2.4409,-2.4409,-2.3902,-2.2957,-2.236,-2.1538,-2.0566,-2.0566,-2.0566,-2.0566,-2.0566,-2.0566,-2.0566,-2.0566,-2.0566,-2.0566,-2.0566,-2.0712,-2.0944,-2.0964,-2.1251,-2.1438,-2.0852,0.0,0.0,0.0,0.0,0.0,-1.9933,-1.9868,-1.9868,-1.9868,-2.0291,-2.0794,-2.1376,-2.2224,-2.3182,-2.4266,-2.5398,-2.6404,-2.7078,-2.7386,-2.766,-2.7978,-2.835,-2.8779,-2.938,-2.9257,-2.9257,-2.9601,-2.9528,-2.9438,-2.9303,-2.9273,-2.9121,-2.8794,-2.8889,-2.8748,-2.8396,-2.8541,-2.8429,-2.8152,-2.7393,-2.6811,-2.6443,-2.5674,-2.4948,-2.4292,-2.3813,-2.3321,-2.2985,-2.3741,-2.4261,-2.451,-2.4732,-2.412,-2.3169,-2.2883,-2.2241,-2.1502,0.0,0.0,0.0,0.0,0.0,-1.9629,-2.0266,-2.0538,-2.0988,0.0,0.0,0.0,-2.1998,-2.2862,-2.381,-2.485,-2.5589,-2.6423,-2.7174,-2.7684,-2.8004,-2.8198,-2.8186,-2.7933,-2.7404,-2.7164,-2.6887,-2.6586,-2.6033,-2.5769,-2.5757,-2.5456,-2.5312,-2.5312,-2.4933,-2.4564,-2.4047,-2.3379,-2.2872,-2.2435,-2.1983,-2.1318,-2.0566,-2.0566,-2.0566,-2.0566,-2.0566,-2.0566,-2.0566,-2.0566,-2.0566,-2.0566,-2.0566,-2.0566,-2.0644,-2.0886,-2.1298,-2.1576,-2.1352,-2.1296,-2.1206,-2.0743,0.0,0.0,-2.0009,-1.9944,-1.9868,-1.9671,-1.9857,-2.0226,-2.0741,-2.1491,-2.2347,-2.3433,-2.454,-2.5522,-2.6258,-2.6616,-2.6967,-2.7261,-2.7745,-2.8189,-2.8638,-2.8685,-2.8779,-2.9012,-2.9028,-2.8997,-2.8997,-2.8873,-2.8811,-2.8794,-2.8889,-2.8748,-2.8396,-2.8365,-2.822,-2.8054,-2.7188,-2.6707,-2.6549,-2.5798,-2.5257,-2.4778,-2.3989,-2.3518,-2.3308,-2.3587,-2.4013,-2.4456,-2.44,-2.4008,-2.3452,-2.2957,-2.2241,-2.1502,0.0,0.0,-1.7131,-1.7037,-1.7684,-1.8511,-1.9438,-1.9977,-2.0628,0.0,-2.1741,-2.1909,-2.2353,-2.2618,-2.3222,-2.4241,-2.4361,-2.5094,-2.6685,-2.6955,-2.7162,-2.7574,-2.7639,-2.75,-2.7031,-2.6538,-2.625,-2.619,-2.5661,-2.5396,-2.5396,-2.5336,-2.5229,-2.5158,-2.4409,-2.3963,-2.3745,-2.2349,-2.1756,-2.169,-2.169,-2.1242,-2.0566,-2.0566,-2.0566,-2.0566,-2.0566,-2.0566,-2.0566,-2.0566,-2.0566,-2.0566,-2.0566,-2.0566,-2.0644,-2.0644,-2.1165,-2.1662,-2.1671,-2.1586,-2.1472,-2.1364,-2.0732,0.0,-1.9944,-1.9933,-1.9813,-1.9407,-1.9351,-1.9539,-2.0161,-2.0741,-2.1553,-2.2822,-2.3564,-2.435,-2.5175,-2.57,-2.6026,-2.639,-2.7122,-2.753,-2.7464,-2.8046,-2.8384,-2.8255,-2.8511,-2.8701,-2.8764,-2.8494,-2.8414,-2.8636,-2.8685,-2.8574,-2.8186,-2.7929,-2.783,-2.7974,-2.6864,-2.6496,-2.6745,-2.5948,-2.555,-2.5439,-2.4337,-2.3859,-2.378,-2.3554,-2.3646,-2.3976,-2.4006,-2.3779,-2.3374,-2.318,-2.2392,-2.1502,0.0,0.0,-1.7777,-1.7326,-1.8056,-1.8972,-1.9977,-2.0249,-2.0628,-2.1553,-2.1919,-2.2185,-2.2715,-2.2803,-2.2969,-2.3309,-2.3734,-2.4106,-2.4428,-2.5451,-2.6173,-2.672,-2.7316,-2.7669,-2.7572,-2.7464,-2.72,-2.6767,-2.6214,-2.5937,-2.5925,-2.5504,-2.4933,-2.4337,-2.4192,-2.3379,-2.2199,-2.1907,-2.1461,-2.0867,-2.0867,-2.0722,-2.0566,-2.0566,-2.0566,-2.0566,-2.0566,-2.0566,-2.0566,-2.0566,-2.0566,-2.0566,-2.0566,-2.0566,-2.0644,-2.0974,-2.1852,-2.2563,-2.188,-2.2336,-2.2705,-2.134,-2.0851,0.0,-2.0172,-2.0074,-2.0009,-1.9813,-1.9802,-2.0118,-2.1112,-2.1428,-2.1865,-2.3125,-2.3437,-2.3839,-2.4697,-2.5217,-2.5605,-2.5918,-2.6308,-2.6692,-2.7004,-2.6849,-2.6678,-2.6477,-2.6872,-2.7384,-2.8061,-2.8012,-2.7864,-2.7615,-2.76,-2.7449,-2.7056,-2.699,-2.6849,-2.6654,-2.6616,-2.6457,-2.6096,-2.615,-2.5893,-2.5439,-2.4593,-2.4047,-2.3754,-2.3142,-2.3157,-2.3671,-2.4627,-2.4129,-2.2905,-2.3453,-2.2745,-2.1512,0.0,-1.5913,-1.6749,-1.648,-1.6943,-1.777,-1.9338,-1.9521,-2.0076,-2.1553,-2.2008,-2.2277,-2.2515,-2.2573,-2.2572,-2.2529,-2.2725,-2.3091,-2.3795,-2.481,-2.5508,-2.5744,-2.698,-2.7353,-2.6694,-2.709,-2.72,-2.6935,-2.6647,-2.637,-2.6093,-2.5443,-2.4725,-2.4036,-2.3305,-2.2499,-2.1766,-2.1395,-2.0934,-2.0566,-2.0566,-2.0566,-2.0566,-2.0566,-2.0566,-2.0566,-2.0566,-2.0566,-2.0566,-2.0566,-2.0566,-2.0566,-2.0566,-2.0566,-2.0644,-2.0809,-2.1918,-2.2903,-2.2453,-2.2889,-2.3316,-2.2387,-2.1552,0.0,0.0,-2.0183,-1.9944,-1.9802,-1.9736,-1.9922,-2.0495,-2.1175,-2.1753,-2.2334,-2.2702,-2.3113,-2.3741,-2.4163,-2.4496,-2.4741,-2.5134,-2.5522,-2.5849,-2.5918,-2.5932,-2.5823,-2.5986,-2.6414,-2.7246,-2.7195,-2.7261,-2.7545,-2.7414,-2.7246,-2.7122,-2.6625,-2.6467,-2.6736,-2.6418,-2.6326,-2.634,-2.6297,-2.6136,-2.5839,-2.4865,-2.4279,-2.4092,-2.3245,-2.307,-2.3331,-2.375,-2.3388,-2.2693,-2.2916,-2.2241,-2.1347,-1.479,-1.5166,-1.554,-1.554,-1.5737,-1.648,-1.8511,-1.8611,-1.9131,-2.0989,-2.1514,-2.1711,-2.1655,-2.1779,-2.1815,-2.1655,-2.1549,-2.2079,-2.3329,-2.4172,-2.4681,-2.4772,-2.6336,-2.6761,-2.5902,-2.66,-2.7083,-2.7236,-2.714,-2.6776,-2.6172,-2.5268,-2.45,-2.3745,-2.2392,-2.169,-2.1538,-2.0867,-2.0566,-2.0566,-2.0566,-2.0566,-2.0566,-2.0566,-2.0566,-2.0566,-2.0566,-2.0566,-2.0566,-2.0566,-2.0566,-2.0566,-2.0566,-2.0566,-2.0566,-2.0789,-2.1832,-2.2947,-2.2957,-2.3279,-2.3557,-2.3313,-2.2201,-2.1112,0.0,0.0,0.0,-1.9876,-1.9735,-1.9736,-1.9868,-2.0741,-2.1439,-2.1451,-2.2002,-2.2494,-2.2714,-2.309,-2.3378,-2.3636,-2.3995,-2.4328,-2.4627,-2.4966,-2.5204,-2.5217,-2.5161,-2.555,-2.6361,-2.6162,-2.6443,-2.7306,-2.7108,-2.7056,-2.7255,-2.6414,-2.6322,-2.6959,-2.6258,-2.6218,-2.6712,-2.6472,-2.6297,-2.6068,-2.5063,-2.4509,-2.4292,-2.3424,-2.3078,-2.3067,-2.2916,-2.2781,-2.258,-2.2343,-2.1811,-2.1313,-1.5083,-1.5458,-1.5737,-1.5737,-1.5737,-1.648,-1.8511,-1.8056,-1.7957,-1.9181,-1.9309,-1.9431,-1.9573,-1.9615,-1.9938,-2.0671,-2.0338,-2.0721,-2.1997,-2.2452,-2.3057,-2.3929,-2.4783,-2.5864,-2.7001,-2.7094,-2.7509,-2.833,-2.7861,-2.7198,-2.6311,-2.5378,-2.408,-2.26,-2.2018,-2.1385,-2.0712,-2.0644,-2.0566,-2.0566,-2.0566,-2.0566,-2.0566,-2.0566,-2.0566,-2.0566,-2.0566,-2.0566,-2.0566,-2.0566,-2.0566,-2.0566,-2.0566,-2.0489,-2.0489,-2.1385,-2.2124,-2.2713,-2.2905,-2.3548,-2.3861,-2.2712,-2.2308,-2.204,-2.1603,0.0,-2.0773,-2.0784,0.0,-2.0194,-2.0816,0.0,0.0,-2.1502,-2.2051,-2.2372,-2.2237,-2.2641,-2.303,-2.3125,-2.3458,-2.3682,-2.3741,-2.3826,-2.3813,-2.3774,-2.415,-2.4624,-2.5175,-2.5175,-2.5287,-2.5673,-2.5618,-2.5797,-2.6111,-2.5988,-2.5934,-2.6056,-2.619,-2.6297,-2.6351,-2.6659,-2.6258,-2.5453,-2.5119,-2.4452,-2.3675,-2.3258,-2.3078,-2.3128,-2.3642,-2.3426,-2.2728,-2.2569,-2.2288,-2.1908,-1.5356,-1.5547,-1.5832,-1.5832,-1.5832,-1.6292,-1.7692,-1.8355,-1.8897,-1.9488,-1.9962,-2.0331,-2.0356,-2.0402,-2.0218,-1.9905,-1.965,-1.9987,-2.1061,-2.1722,-2.2501,-2.3328,-2.4692,-2.5539,-2.5663,-2.6163,-2.6588,-2.6905,-2.6701,-2.6208,-2.5594,-2.4882,-2.3796,-2.2371,-2.1973,-2.1308,-2.0566,-2.0566,-2.0566,-2.0566,-2.0489,-2.042,-2.042,-2.0566,-2.0566,-2.0566,-2.0566,-2.0566,-2.0566,-2.0566,-2.0566,-2.0566,-2.0489,-2.0411,-2.0644,-2.1385,-2.2199,-2.2872,-2.3213,-2.3751,-2.3998,-2.3274,-2.2655,-2.2269,-2.2062,-2.1636,-2.1286,-2.1286,0.0,0.0,0.0,0.0,0.0,0.0,-2.1479,-2.1667,-2.2555,-2.2137,-2.2025,-2.2787,-2.2896,-2.2944,-2.3078,-2.3125,-2.31,-2.3015,-2.2955,-2.3255,-2.4066,-2.4079,-2.4368,-2.5119,-2.4951,-2.5021,-2.537,-2.5034,-2.5034,-2.537,-2.5632,-2.5673,-2.5563,-2.6042,-2.5879,-2.5119,-2.4681,-2.4234,-2.3852,-2.3318,-2.3078,-2.3103,-2.3401,-2.2786,-2.1824,-2.2062,-2.1585,-2.0783,-1.554,-1.573,-1.5832,-1.5832,-1.5832,-1.5988,-1.6649,-1.79,-1.8783,-1.8658,-1.9125,-1.9582,-1.9616,-1.957,-1.9371,-1.8674,-1.8664,-1.9263,-2.0541,-2.1239,-2.2136,-2.3105,-2.4402,-2.4904,-2.4498,-2.5158,-2.5663,-2.6163,-2.5913,-2.5561,-2.5213,-2.4503,-2.3562,-2.2249,-2.1781,-2.1286,-2.0566,-2.0566,-2.0489,-2.0489,-2.0264,-2.0186,-2.0186,-2.0411,-2.0489,-2.0489,-2.0489,-2.0489,-2.0489,-2.0411,-2.0411,-2.0411,-2.0264,-2.0255,-2.0489,-2.1155,-2.1983,-2.2734,-2.3213,-2.3677,-2.397,-2.3519,-2.297,-2.2499,-2.2499,-2.2138,-2.1789,-2.1789,-2.1396,0.0,0.0,0.0,-2.0955,-2.119,0.0,-2.091,-2.2125,-2.1502,-2.1411,-2.2555,-2.2494,-2.2297,-2.2297,-2.2519,-2.2543,-2.2175,-2.2002,-2.2237,-2.293,-2.2882,-2.3289,-2.4226,-2.4195,-2.431,-2.4697,-2.4439,-2.4567,-2.5007,-2.5175,-2.5175,-2.5007,-2.5425,-2.5314,-2.4738,-2.4292,-2.4015,-2.378,-2.3305,-2.3078,-2.3078,-2.3078,-2.2372,-2.1411,-2.1548,-2.0975,-2.0075,-1.5737,-1.5832,-1.5832,-1.5832,-1.5832,-1.5732,-1.5544,-1.6034,-1.6243,-1.5425,-1.5382,-1.544,-1.5558,-1.5612,-1.5922,-1.6698,-1.7092,-1.8204,-2.0466,-2.0955,-2.1708,-2.3028,-2.3135,-2.356,-2.4498,-2.4498,-2.5421,-2.7185,-2.6246,-2.5819,-2.5786,-2.4409,-2.3154,-2.1928,-2.1406,-2.0967,-2.0566,-2.042,-2.0342,-2.0264,-2.002,-1.9942,-1.9942,-2.0186,-2.0342,-2.0342,-2.0342,-2.0342,-2.0264,-2.002,-1.9942,-1.9942,-1.9942,-1.9794,-1.9872,-2.0837,-2.1431,-2.1897,-2.2542,-2.315,-2.3519,-2.315,-2.299,-2.2979,-2.2979,-2.2619,-2.2291,-2.2291,-2.1909,-2.1559,-2.1559,-2.0892,-2.0364,-2.0364,-2.0214,0.0,0.0,-2.0741,-2.1514,-2.2555,-2.2432,-2.1937,-2.1285,-2.1753,-2.1803,-2.1019,-2.1514,-2.1815,-2.1678,-2.1678,-2.1904,-2.2348,-2.299,-2.3513,-2.3929,-2.4627,-2.4951,-2.5007,-2.5007,-2.5007,-2.5007,-2.5007,-2.4681,-2.4118,-2.4131,-2.3721,-2.3138,-2.3138,-2.3078,-2.3078,-2.3078,-2.2689,-2.199,-2.1336,-2.0938,-2.0704,-1.5291,-1.5445,-1.5545,-1.5545,-1.5545,-1.5378,-1.489,-1.55,-1.5906,-1.5584,-1.6035,-1.6487,-1.6878,-1.6944,-1.6862,-1.6698,-1.7024,-1.7959,-1.9604,-2.0086,-2.1098,-2.3028,-2.3135,-2.3222,-2.356,-2.356,-2.3897,-2.4488,-2.4145,-2.3973,0.0,-2.3854,-2.3091,-2.1865,-2.198,-2.1362,-2.042,-2.0342,-2.0186,-2.002,-1.9794,-1.9715,-1.9715,-1.9942,-2.002,-2.002,-2.002,-2.002,-2.002,-1.9942,-1.9863,-1.9863,-1.9715,-1.9715,-1.9942,-2.0692,-2.1058,-2.1517,-2.2467,-2.2852,-2.3001,-2.3001,-2.3001,-2.3001,-2.3001,-2.2881,-2.2772,-2.2772,-2.24,-2.2073,-2.2073,-2.1458,-2.1053,-2.1377,-2.0633,-2.0331,0.0,-2.0944,-2.0858,-2.1112,-2.0933,-2.0688,-2.0495,-2.0344,-2.0139,-1.9835,-2.0085,-2.0268,-2.0602,-2.0944,-2.1376,-2.1842,-2.2039,-2.2212,-2.2372,-2.2628,-2.2955,-2.328,-2.3669,-2.3846,-2.3767,-2.4221,-2.406,-2.3424,-2.3424,-2.3305,-2.3078,-2.3078,-2.3078,-2.3078,-2.3078,-2.2445,-2.1439,-2.1313,-2.0918,-2.0149,-1.4917,-1.5054,-1.5244,-1.5244,-1.5157,-1.4957,-1.4576,-1.494,-1.5205,-1.5242,-1.5703,-1.6191,-1.6601,-1.6601,-1.6445,-1.6041,-1.6384,-1.7251,-1.8587,-1.9335,-2.0527,-2.2403,-2.2696,-2.2872,-2.2872,-2.2969,-2.3135,-2.3474,-2.3222,-2.3309,0.0,0.0,-2.2918,-2.1875,-2.2049,-2.1432,-2.0264,-2.0108,-1.9951,-1.9794,-1.9548,-1.9478,-1.9478,-1.9627,-1.9784,-1.9863,-1.9784,-1.9784,-1.9784,-1.9706,-1.9706,-1.9627,-1.9548,-1.9548,-1.9775,-2.0148,-2.0527,-2.0991,-2.1928,-2.2317,-2.2553,-2.2927,-2.3001,-2.3001,-2.3001,-2.3001,-2.3001,-2.3001,-2.2772,-2.2564,-2.2491,-2.1873,-2.1538,-2.1729,-2.0849,-2.035,0.0,-2.0402,-1.9824,-1.9694,-1.9901,-2.0042,-1.9911,-1.9584,-1.932,-1.9121,-1.911,-1.9243,-1.9507,-1.9835,-2.0161,-2.0398,-2.0846,-2.1037,-2.0962,-2.1416,-2.1753,-2.2149,-2.2725,-2.298,-2.2896,-2.3603,-2.3675,-2.321,-2.3258,-2.3258,-2.3258,-2.3258,-2.3125,-2.2884,-2.2871,-2.2187,-2.1198,-2.1325,-2.0752,-1.9715,-1.454,-1.4744,-1.4923,-1.4923,-1.4689,-1.4496,-1.4496,-1.4262,-1.4166,-1.4398,-1.4398,-1.4482,-1.465,-1.465,-1.465,-1.4734,-1.5294,-1.6176,-1.7406,-1.866,-1.996,-2.1239,-2.198,-2.2344,-2.2441,-2.2618,-2.3212,-2.4049,-2.3387,-2.356,0.0,0.0,-2.26,-2.1885,-2.17,-2.1053,-2.0264,-1.9794,-1.9557,-1.9557,-1.9381,-1.9301,-1.9301,-1.9301,-1.9539,-1.9863,-1.9636,-1.9557,-1.9557,-1.9381,-1.9301,-1.9301,-1.9301,-1.9301,-1.9301,-1.9301,-1.9696,-2.0313,-2.1011,-2.1634,-2.2176,-2.2852,-2.3001,-2.3001,-2.3001,-2.3001,-2.3001,-2.3001,-2.3001,-2.2927,-2.2703,-2.2178,-2.1659,-2.1439,-2.0907,-2.0296,-1.9831,-1.9056,-1.8502,-1.8482,-1.9396,-1.9846,-1.9539,-1.9539,-1.9274,-1.8808,-1.8741,-1.8664,-1.8509,-1.8509,-1.8452,-1.8337,-1.9452,-1.9955,-1.9727,-2.0899,-2.1491,-2.1553,-2.2224,-2.2433,-2.242,-2.3138,-2.345,-2.3343,-2.345,-2.3497,-2.3497,-2.3497,-2.3065,-2.2372,-2.2482,-2.2051,-2.1388,-2.1388,-2.0495,-1.9351,-1.4065,-1.4195,-1.4315,-1.4315,-1.4249,-1.4202,-1.4202,-1.4135,-1.4088,-1.4166,-1.4166,-1.4243,-1.4482,-1.4482,-1.4566,-1.465,-1.5091,-1.5842,-1.7113,-1.7796,-1.8954,-2.0944,-2.123,-2.1695,-2.2353,-2.2618,-2.2794,-2.2862,-2.2882,-2.2882,-2.295,0.0,-2.216,-2.1358,-2.1349,-2.0727,-1.9794,-1.9645,-1.9478,-1.939,-1.9301,-1.939,-1.9478,-1.9381,-1.9469,-1.9636,-1.9469,-1.9381,-1.939,-1.9301,-1.9301,-1.9301,-1.9301,-1.9301,-1.9301,-1.9301,-1.9381,-1.9766,-2.0934,-2.1318,-2.17,-2.2767,-2.3001,-2.2927,-2.2777,-2.2777,-2.2703,-2.2553,-2.2553,-2.2553,-2.2478,-2.2221,-2.1997,-2.1922,-2.1386,-2.0524,-1.9534,-1.9182,-1.8784,-1.8183,-1.8337,-1.8539,-1.8414,-1.8259,-1.8114,-1.7978,-1.8269,-1.8405,-1.8327,-1.8596,-1.8731,-1.8674,-1.8854,-1.89,-1.8824,-1.9552,-2.0074,-2.0473,-2.106,-2.1514,-2.1815,-2.2002,-2.2113,-2.2063,-2.2125,-2.2113,-2.2113,-2.2113,-2.199,-2.1803,-2.1865,-2.1502,-2.1019,-2.0892,-2.0377,-1.9528,-1.3417,-1.3762,-1.3913,-1.3913,-1.3997,-1.4088,-1.4088,-1.4088,-1.4088,-1.4088,-1.4088,-1.4166,-1.4243,-1.4243,-1.4321,-1.4412,-1.4685,-1.5273,-1.6118,-1.6691,-1.7668,-1.9107,-1.9478,-1.9929,-2.0386,-2.1094,-2.1447,-2.1447,-2.2079,-2.2358,-2.2441,0.0,-2.1987,-2.1182,-2.1099,-2.0482,-1.9557,-1.9478,-1.939,-1.9301,-1.9301,-1.939,0.0,-1.9301,-1.939,-1.9469,-1.9301,-1.9301,-1.9301,-1.9301,-1.9301,-1.9301,-1.9301,-1.9301,-1.9301,-1.9301,-1.946,-1.9923,-2.0934,-2.1328,-2.1711,-2.2628,-2.2777,-2.2703,-2.2628,-2.2553,-2.2553,-2.2402,-2.2402,-2.2402,-2.2252,-2.2176,-2.2101,-2.1959,-2.1489,-2.0792,-2.0001,-1.9535,-1.8984,-1.8449,-1.8184,-1.8008,-1.8008,-1.793,-1.7784,-1.7706,-1.792,-1.7998,-1.794,-1.8144,-1.8212,-1.8212,-1.8327,-1.8385,-1.8385,-1.8854,-1.9441,-2.0096,-2.0495,-2.0933,-2.1502,-2.1741,-2.1803,-2.1741,-2.1803,-2.1803,-2.1803,-2.1803,-2.1616,-2.125,-2.0996,-2.0752,-2.0518,-2.0172,-1.9857,-1.9396,-1.2924,-1.3398,-1.3652,-1.3737,-1.3913,-1.4004,-1.4088,-1.4088,-1.4088,-1.3913,-1.3997,-1.4088,-1.4088,-1.4088,-1.4088,-1.4088,-1.4315,-1.4562,-1.485,-1.5696,-1.6301,-1.6705,-1.7399,-1.7747,-1.7921,-1.887,-1.9661,-2.0123,-2.1108,-2.1832,-2.2268,-2.2268,-2.1825,-2.1014,-2.0866,-2.0354,-1.9557,-1.939,-1.9301,-1.9301,-1.9301,-1.9301,-1.9301,-1.9301,-1.9301,-1.9301,-1.9301,-1.9301,-1.9301,-1.9301,-1.9301,-1.9301,-1.9301,-1.9301,-1.9301,-1.9301,-1.9696,-2.0323,-2.1011,-2.1482,-2.1883,-2.2478,-2.2553,-2.2402,-2.2402,-2.2327,-2.2327,-2.2327,-2.2327,-2.2252,-2.2101,-2.2035,-2.2025,-2.1807,-2.1466,-2.1092,-2.0757,-1.9858,-1.9184,-1.8834,-1.8301,0.0,-1.8008,-1.8008,-1.7862,-1.7638,-1.7706,-1.7647,-1.7461,-1.7461,-1.7529,-1.7529,-1.794,-1.8212,-1.8212,-1.8539,-1.9131,-1.9846,-2.0085,-2.0537,-2.1262,-2.1616,-2.1741,-2.1753,-2.1803,-2.1865,-2.1865,-2.1865,-2.1439,-2.0711,-2.0064,-1.9868,-1.9944,-1.9375,-1.9054,-1.8865,-1.2887,-1.3313,-1.3483,-1.3652,-1.3568,-1.3652,-1.4004,-1.4088,-1.3828,-1.3052,-1.3652,-1.4088,-1.4088,-1.4088,-1.4088,-1.4088,-1.4135,-1.4262,-1.4589,-1.4737,-1.5297,-1.6411,-1.6602,-1.7041,-1.7834,-1.8354,-1.8961,-1.986,-2.0298,-2.0779,-2.1305,-2.1305,-2.0881,-2.0117,-2.0117,-1.985,-1.9381,-1.9301,-1.9301,-1.9301,-1.9301,-1.9301,-1.9301,-1.9301,-1.9301,-1.9301,-1.9301,-1.9301,-1.9301,-1.9301,-1.9301,-1.9301,-1.9301,-1.9301,-1.9301,-1.9301,-1.9618,-2.0098,-2.0789,-2.1262,-2.1731,-2.2327,-2.2402,-2.2327,-2.2176,-2.2176,-2.2111,-2.1959,-2.1883,-2.1883,-2.1883,-2.1873,-2.1807,-2.1807,-2.1735,-2.1264,-2.0214,-1.9909,-1.9394,-1.8272,-1.8047,-1.8008,-1.8008,-1.8008,-1.7725,-1.7079,-1.7579,-1.7657,-1.701,-1.7432,-1.7647,-1.7647,-1.7666,-1.7666,-1.7666,-1.8134,-1.8462,-1.8596,-1.9065,-1.9649,-2.0291,-2.0107,-2.0313,-2.0828,-2.0571,-2.0453,-2.0453,-2.0453,-2.0399,-2.0205,-1.9649,-1.9441,-1.9375,-1.8834,-1.8375,-1.791,-1.2015,-1.279,-1.3137,-1.2705,-1.2705,-1.2443,-1.1655,-1.1997,-1.2522,-1.3307,-1.3398,-1.3568,-1.4088,-1.4088,-1.4088,-1.4088,-1.4088,-1.4142,-1.4282,-1.4295,-1.4606,-1.5168,-1.5175,-1.5433,-1.5948,-1.6352,-1.7187,-1.8493,-1.9008,-1.9727,-2.0805,-2.0805,-2.0493,-1.9834,-1.92,-1.8833,-1.8647,-1.8647,-1.8647,-1.8647,-1.9134,-1.9301,-1.9301,-1.9301,-1.9301,-1.9301,-1.9301,-1.9301,-1.9301,-1.9301,-1.9301,-1.9301,-1.9301,-1.9301,-1.9222,-1.9082,-1.939,-1.9844,-2.0382,-2.0847,-2.1328,-2.2101,-2.2187,-2.2025,-2.1959,-2.1949,-2.1959,-2.1807,-2.1807,-2.1807,-2.1807,-2.1807,-2.1807,-2.1655,-2.146,-2.1002,-2.0176,-1.9735,-1.9143,-1.8379,-1.8144,-1.7872,-1.7442,-1.7432,-1.7295,-1.6941,-1.7226,-1.7295,-1.6932,-1.7148,-1.7285,-1.7285,-1.7588,-1.7598,-1.7166,-1.7716,-1.8192,-1.8654,-1.8664,-1.9065,-1.9857,-1.9462,-1.9462,-1.966,-1.9813,-1.9802,-1.966,-1.966,-1.9528,-1.9253,-1.8977,-1.89,-1.8834,-1.8307,-1.7901,-1.7638,-1.0971,-1.1752,-1.218,-1.1494,-1.1494,-1.1058,-0.9749,-0.9923,-1.0961,-1.2869,-1.2869,-1.2954,-1.3743,-1.3997,-1.4088,-1.4088,-1.4088,-1.4088,-1.4088,-1.4088,-1.4088,-1.3997,-1.3997,-1.3997,-1.3913,-1.4391,-1.5358,-1.6869,-1.7644,-1.8725,-2.0048,-2.0309,-2.0007,-1.9362,-1.8377,-1.7827,-1.7577,-1.7577,-1.7666,-1.7836,-1.8567,-1.8895,-1.8984,-1.8984,-1.8984,-1.8984,-1.8984,-1.8984,-1.8984,-1.8984,-1.9143,-1.9301,-1.9231,-1.9152,-1.9073,-1.8692,-1.8993,-1.9441,-1.9816,-2.0207,-2.0682,-2.1548,-2.1645,-2.1568,-2.1731,-2.1807,-2.1807,-2.1807,-2.1807,-2.1807,-2.1807,-2.1807,-2.1731,-2.1578,-2.1135,-2.066,-2.0232,-1.9561,-1.8923,-1.8305,-1.8004,-1.7536,-1.6733,-1.6655,-1.6585,-1.6437,-1.6585,-1.6585,-1.6437,-1.6585,-1.6655,-1.6655,-1.7226,-1.7295,-1.6932,-1.7285,-1.7969,-1.8777,-1.8395,-1.8674,-1.9462,-1.9142,-1.8942,-1.9008,-1.9274,-1.933,-1.91,-1.91,-1.89,-1.8509,-1.8375,-1.8307,-1.824,-1.7706,-1.751,-1.7501,-0.9836,-1.0096,-1.0269,-1.0356,-1.0269,-1.0183,-1.0438,-0.9662,-0.9323,-0.9927,-1.1386,-1.2425,-1.279,-1.3568,-1.4088,-1.4088,-1.4088,-1.4088,-1.4088,-1.4088,-1.3997,-1.3737,-1.3737,-1.3652,-1.3483,-1.3561,-1.4202,-1.5526,-1.6545,-1.7584,-1.8539,-1.9477,-1.9254,-1.7878,-1.7755,-1.7163,-1.6167,-1.6167,-1.6511,-1.7115,-1.7196,-1.761,-1.8112,-1.8112,-1.8112,-1.8112,-1.8112,-1.8112,-1.8112,-1.8112,-1.8665,-1.9222,-1.8851,-1.8772,-1.8692,-1.8201,-1.8425,-1.8816,-1.8816,-1.9116,-1.9659,-2.0459,-2.0624,-2.0857,-2.1645,-2.1807,-2.1807,-2.1807,-2.1807,-2.1807,-2.1807,-2.1655,-2.1578,-2.1731,-2.1135,-2.0484,-1.9968,-1.9703,-1.8916,-1.7288,-1.737,-1.7071,-1.5921,-1.5807,-1.5525,-1.4887,-1.5455,-1.5525,-1.4816,-1.5455,-1.5807,-1.5807,-1.5886,-1.6237,-1.6862,-1.6941,-1.7354,-1.8066,-1.8076,-1.8395,-1.9044,-1.8731,-1.8875,-1.9473,-1.9075,-1.8731,-1.8566,-1.8566,-1.8576,-1.8442,-1.7969,-1.7774,-1.7706,-1.7176,-1.6968,-1.6978,-0.879,-0.9401,-0.9749,-0.9323,-0.9148,-0.8969,-0.8532,-0.8097,-0.7929,-0.8285,-0.9579,-1.0875,-1.2186,-1.2613,-1.3052,-1.3652,-1.3652,-1.3652,-1.3652,-1.3652,-1.3652,-1.3483,-1.3483,-1.3476,-1.3398,-1.3307,-1.3776,-1.4979,-1.531,-1.5974,-1.6964,-1.7384,-1.722,-1.6667,-1.6093,-1.5681,-1.5191,-1.5191,-1.5357,-1.5703,-1.6624,-1.7123,-1.7448,-1.787,-1.804,-1.804,-1.804,-1.804,-1.804,-1.804,-1.8193,-1.8514,-1.8362,-1.8282,-1.821,-1.7797,-1.7789,-1.7951,-1.8247,-1.8399,-1.8709,-1.958,-1.9816,-1.9982,-2.0857,-2.1011,-2.1175,-2.1721,-2.1807,-2.1731,-2.1655,-2.1578,-2.1436,-2.1282,-2.0537,-1.9703,-1.9004,-1.839,-1.7511,-1.6342,-1.6307,-1.6059,-1.5117,-1.5029,-1.4752,-1.3977,-1.4609,-1.4887,-1.4601,-1.4887,-1.5108,-1.5251,-1.5675,-1.6097,-1.6515,-1.6872,-1.7432,-1.8212,-1.8076,-1.8134,-1.8395,-1.8269,-1.8482,-1.8942,-1.8482,-1.8269,-1.8192,-1.8046,-1.7842,-1.7501,-1.7304,-1.7245,-1.7176,-1.6968,-1.6621,-1.6263,-0.7654,-0.8356,-0.8794,-0.8105,-0.8017,-0.7841,-0.7228,-0.7139,-0.7143,-0.7326,-0.8105,-0.9231,-1.0971,-1.1402,-1.2009,-1.2875,-1.2966,-1.3137,-1.3398,-1.3398,-1.3398,-1.3307,-1.3307,-1.3307,-1.3222,-1.3052,-1.3379,-1.4119,-1.428,-1.4775,-1.5508,-1.5838,-1.5838,-1.5508,-1.4859,-1.4455,-1.4119,-1.4119,-1.421,-1.4461,-1.5628,-1.6131,-1.6378,-1.7049,-1.7294,-1.7375,-1.7546,-1.7635,-1.7635,-1.7635,-1.7635,-1.7635,-1.7797,-1.7797,-1.7716,-1.731,-1.7229,-1.7229,-1.7529,-1.7602,-1.7836,-1.8709,-1.9097,-1.9502,-2.0304,-2.0702,-2.1011,-2.1578,-2.1655,-2.1578,-2.1436,-2.1359,-2.1282,-2.0984,-2.0003,-1.8985,-1.8397,-1.7414,-1.6431,-1.5471,-1.5493,-1.5232,-1.4338,-1.4258,-1.4049,-1.3564,-1.3985,-1.4258,-1.4258,-1.4258,-1.433,-1.4482,-1.4982,-1.5471,-1.5886,-1.6315,-1.6941,-1.7706,-1.7725,-1.7725,-1.7794,-1.794,-1.8076,-1.8269,-1.7998,-1.7862,-1.7725,-1.7579,-1.7304,-1.6908,-1.6691,-1.6551,-1.6551,-1.6333,-1.5895,-1.5471,-0.6432,-0.6612,-0.6792,-0.6792,-0.6966,-0.7139,-0.7139,-0.7139,-0.7139,-0.7139,-0.7139,-0.7665,-0.9061,-1.0096,-1.0961,-1.1923,-1.2015,-1.2443,-1.3313,-1.3398,-1.3307,-1.3143,-1.3137,-1.2966,-1.2705,-1.2705,-1.2705,-1.2705,-1.3866,-1.4448,-1.4448,-1.5508,-1.5433,-1.4448,-1.4448,-1.3782,-1.2705,-1.2705,-1.3137,-1.373,-1.3737,-1.4153,-1.4817,-1.5484,-1.5733,-1.5816,-1.6484,-1.673,-1.673,-1.673,-1.673,-1.682,-1.7229,-1.74,-1.731,-1.682,-1.6738,-1.6738,-1.673,-1.673,-1.6886,-1.7764,-1.863,-1.9502,-2.0304,-2.1175,-2.1731,-2.1502,-2.1359,-2.1215,-2.1205,-2.1061,-2.0984,-2.1128,-1.9543,-1.8249,-1.8461,-1.7286,-1.5939,-1.4784,-1.5008,-1.4801,-1.3594,-1.3492,-1.3492,-1.3492,-1.3499,-1.3492,-1.3492,-1.3492,-1.3492,-1.3492,-1.3499,-1.3992,-1.4903,-1.4903,-1.5392,-1.6298,-1.695,-1.7235,-1.7235,-1.7725,-1.7862,-1.7706,-1.7706,-1.7501,-1.7235,-1.7235,-1.7107,-1.683,-1.6114,-1.5833,-1.5692,-1.4895,-1.4601,-1.4601,-0.6171,-0.6346,-0.652,-0.652,-0.6609,-0.6697,-0.6881,-0.6881,-0.6966,-0.7054,-0.7139,-0.7316,-0.7749,-0.8623,-0.9579,-1.0529,-1.0529,-1.0702,-1.0961,-1.158,-1.1929,-1.1843,-1.2448,-1.279,-1.2705,-1.2705,-1.2705,-1.2705,-1.3033,-1.3203,-1.3288,-1.3613,-1.3529,-1.3203,-1.3203,-1.3039,-1.2705,-1.2705,-1.279,-1.3045,-1.3483,-1.3822,-1.4068,-1.4734,-1.5318,-1.5733,-1.5899,-1.6319,-1.673,-1.673,-1.673,-1.6738,-1.6894,-1.6894,-1.6902,-1.673,-1.673,-1.673,-1.673,-1.673,-1.673,-1.7049,-1.7196,-1.7513,-1.8399,-1.959,-2.0624,-2.1195,-2.1205,-2.1138,-2.0984,-2.0498,-1.9915,-1.963,-1.8279,-1.7098,-1.6393,-1.5657,-1.4808,-1.3928,-1.4018,-1.3895,-1.3506,-1.3492,-1.3492,-1.3492,-1.3492,-1.3492,-1.3492,-1.3492,-1.3637,-1.392,-1.3783,-1.4281,-1.5471,-1.5267,-1.5551,-1.6524,-1.6594,-1.6524,-1.6394,-1.752,-1.7725,-1.7148,-1.7569,-1.7364,-1.6751,-1.6533,-1.6044,-1.5471,-1.5108,-1.4966,-1.4966,-1.4673,-1.4243,-1.3818,-0.5919,-0.6088,-0.6169,-0.6169,-0.6254,-0.6432,-0.6612,-0.6612,-0.67,-0.6786,-0.6874,-0.6874,-0.6874,-0.7401,-0.8185,-0.9318,-0.9405,-0.9666,-1.0361,-1.0971,-1.1499,-1.1843,-1.2357,-1.2705,-1.2705,-1.2705,-1.2705,-1.2705,-1.2705,-1.2705,-1.2705,-1.2705,-1.2705,-1.2705,-1.2705,-1.2705,-1.2705,-1.2705,-1.2705,-1.2705,-1.313,-1.3476,-1.3737,-1.4398,-1.5151,-1.5733,-1.5989,-1.6319,-1.673,-1.673,-1.673,-1.673,-1.673,-1.673,-1.673,-1.673,-1.673,-1.673,-1.673,-1.6648,-1.6566,-1.6566,-1.6632,-1.6952,-1.7836,-1.87,-1.9423,-1.9991,-2.0079,-1.9923,-1.9854,-1.9243,-1.8728,-1.8339,-1.7165,-1.608,-1.542,-1.4629,-1.4049,-1.3564,-1.3492,-1.3492,-1.3492,-1.3492,-1.3492,-1.3492,-1.3492,-1.3499,-1.3645,-1.3645,-1.371,-1.3992,-1.3928,-1.4353,-1.5275,-1.5062,-1.527,-1.6057,-1.6182,-1.6173,-1.6253,-1.6954,-1.695,-1.6446,-1.6793,-1.6655,-1.6175,-1.5895,-1.5471,-1.4832,-1.4466,-1.425,-1.4171,-1.3818,-1.3455,-1.3025,-0.5489,-0.5476,-0.5555,-0.5646,-0.6083,-0.6343,-0.6343,-0.6343,-0.6343,-0.6428,-0.6428,-0.6428,-0.6428,-0.6428,-0.6959,-0.8281,-0.8368,-0.9152,-1.089,-1.1063,-1.158,-1.2443,-1.2528,-1.2619,-1.2619,-1.2619,-1.2619,-1.2619,-1.2619,-1.2619,-1.2619,-1.2619,-1.2619,-1.2619,-1.2619,-1.2619,-1.2619,-1.2619,-1.2619,-1.2619,-1.2619,-1.3045,-1.3646,-1.4314,-1.4985,-1.5733,-1.6319,-1.6648,-1.673,-1.673,-1.6648,-1.6656,-1.6656,-1.6648,-1.6656,-1.6656,-1.6656,-1.6656,-1.6656,-1.6484,-1.6394,-1.6394,-1.6788,-1.7415,-1.8284,-1.8292,-1.8221,-1.8301,-1.8132,-1.7963,-1.7963,-1.7646,-1.7381,-1.7355,-1.6103,-1.5231,-1.5208,-1.4197,-1.3492,-1.3492,-1.3492,-1.3492,-1.3492,-1.3492,-1.3492,-1.3492,-1.3492,-1.3572,-1.379,-1.379,-1.3863,-1.3863,-1.3992,-1.4209,-1.4425,-1.4449,-1.4718,-1.5221,-1.5782,-1.619,-1.6439,-1.6173,-1.5921,-1.5604,-1.5675,-1.5604,-1.5463,-1.5392,-1.518,-1.4689,-1.397,-1.3615,-1.3317,-1.2592,-1.2305,-1.2298,-0.3497,-0.3585,-0.4034,-0.5481,-0.5836,-0.5827,-0.5908,-0.6083,-0.6257,-0.6343,-0.6428,-0.6428,-0.6428,-0.6428,-0.6517,-0.6871,-0.7054,-0.7492,-0.8013,-0.9056,-0.9753,-1.0014,-1.1058,-1.1671,-1.1671,-1.1671,-1.1671,-1.1671,-1.1671,-1.1671,-1.1671,-1.1671,-1.1671,-1.1671,-1.1671,-1.1671,-1.1671,-1.1671,-1.1671,-1.1671,-1.2015,-1.2272,-1.2443,-1.2954,-1.3886,-1.4985,-1.5151,-1.5816,-1.673,-1.673,-1.6566,-1.6476,-1.6476,-1.6409,-1.6245,-1.6402,-1.6476,-1.6402,-1.6245,-1.6252,-1.6162,-1.6162,-1.6147,-1.6296,-1.7017,-1.7098,-1.7261,-1.7908,-1.7845,-1.7639,-1.7639,-1.6788,-1.6065,-1.5813,-1.4969,-1.4186,-1.3932,-1.3689,-1.3492,-1.3492,-1.3492,-1.3492,-1.3492,-1.3492,-1.3492,-1.3492,-1.3492,-1.3492,-1.3572,-1.3848,-1.4065,-1.4217,-1.4137,-1.4274,-1.4569,-1.4691,-1.5072,-1.5562,-1.6154,-1.593,-1.5075,-1.6007,-1.5876,-1.4887,-1.5463,-1.5384,-1.4816,-1.4617,-1.4122,-1.3324,-1.3032,-1.2739,-1.2592,-1.2372,-1.2305,-1.2224,-0.1165,-0.1971,-0.2867,-0.3859,-0.4216,-0.4752,-0.5565,-0.583,-0.5913,-0.6088,-0.6083,-0.608,-0.608,-0.608,-0.6169,-0.6257,-0.6523,-0.6877,-0.7401,-0.8097,-0.879,-0.9222,-0.9918,-1.0529,-1.0885,-1.0885,-1.0971,-1.1327,-1.1327,-1.1327,-1.1327,-1.1327,-1.1327,-1.1327,-1.1327,-1.1327,-1.1327,-1.1327,-1.1327,-1.1322,-1.1585,-1.1843,-1.2186,-1.2443,-1.3118,-1.4041,-1.4041,-1.4545,-1.5213,-1.5636,-1.5711,-1.5718,-1.6154,-1.6162,-1.6087,-1.6072,-1.6154,-1.6245,-1.617,-1.5997,-1.5914,-1.5839,-1.5665,-1.5621,-1.5866,-1.5909,-1.5952,-1.6349,-1.6244,-1.6108,-1.6108,-1.5435,-1.4843,-1.4749,-1.4149,-1.3697,-1.3521,-1.3492,-1.3492,-1.3492,-1.3492,-1.3492,-1.3492,-1.3492,-1.3492,-1.3492,-1.3492,-1.3572,-1.3645,-1.3855,-1.4072,-1.4281,-1.4281,-1.4504,-1.4887,-1.532,-1.566,-1.592,-1.6154,-1.5894,-1.5234,-1.5442,-1.5112,-1.4475,-1.4617,-1.4482,-1.4122,-1.3985,-1.3557,-1.2826,-1.2378,-1.2003,-1.1706,-1.1323,-1.1174,-1.1174,0.0807,-0.0448,-0.1612,-0.1701,-0.2239,-0.3227,-0.4853,-0.5297,-0.5384,-0.566,-0.5741,-0.5735,-0.5735,-0.5735,-0.5822,-0.5997,-0.6169,-0.6694,-0.757,-0.7658,-0.8093,-0.8869,-0.8952,-0.9305,-0.9918,-1.0009,-1.0361,-1.0977,-1.1063,-1.1068,-1.1068,-1.1068,-1.1068,-1.1068,-1.1068,-1.1068,-1.1068,-1.1068,-1.1068,-1.1068,-1.1154,-1.1585,-1.2009,-1.2095,-1.2601,-1.3184,-1.3184,-1.3269,-1.3607,-1.4448,-1.4789,-1.4963,-1.5824,-1.6004,-1.5922,-1.5741,-1.5831,-1.6004,-1.6004,-1.5831,-1.5567,-1.5365,-1.5357,-1.527,-1.494,-1.4874,-1.4794,-1.4523,-1.4428,-1.4399,-1.4399,-1.4128,-1.3909,-1.3909,-1.3675,-1.3492,-1.3492,-1.3492,-1.3492,-1.3492,-1.3492,-1.3492,-1.3492,-1.3492,-1.3492,-1.3492,-1.3492,-1.3572,-1.3725,-1.3797,-1.3885,-1.4133,-1.4504,-1.4846,-1.534,-1.592,-1.623,-1.6285,-1.6061,-1.5942,-1.5856,-1.4866,-1.4321,-1.4246,-1.3704,-1.3492,-1.3492,-1.3492,-1.3193,-1.2673,-1.2003,-1.1409,-1.0807,-1.0121,-0.9895,-0.9895,0.1256,0.1076,0.0717,0.0358,-0.0627,-0.1611,-0.2508,-0.3223,-0.4121,-0.5486,-0.5662,-0.5744,-0.5744,-0.5738,-0.5733,-0.5733,-0.5819,-0.6083,-0.6605,-0.6959,-0.7312,-0.7401,-0.7834,-0.8093,-0.8181,-0.8798,-0.9152,-0.924,-0.9854,-1.0212,-1.0212,-1.0212,-1.0212,-1.0212,-1.0212,-1.0212,-1.0212,-1.0212,-1.0212,-1.0207,-1.0549,-1.0809,-1.0895,-1.1327,-1.1837,-1.2437,-1.2437,-1.336,-1.4531,-1.4615,-1.5047,-1.556,-1.5741,-1.5665,-1.5514,-1.5431,-1.5506,-1.5514,-1.5514,-1.5506,-1.5357,-1.5087,-1.5021,-1.4933,-1.4618,-1.4545,-1.4531,-1.4479,-1.4253,-1.4062,-1.4062,-1.3792,-1.3572,-1.3572,-1.3528,-1.3492,-1.3492,-1.3492,-1.3492,-1.3492,-1.3492,-1.3492,-1.3492,-1.3492,-1.3492,-1.3492,-1.3492,-1.3499,-1.3572,-1.3717,-1.3925,-1.4276,-1.4649,-1.5252,-1.6039,-1.615,-1.6357,-1.6651,-1.6406,-1.6095,-1.5648,-1.5015,-1.4461,-1.4035,-1.3638,-1.3492,-1.3492,-1.3492,-1.2893,-1.1855,-1.1781,-1.1031,-1.0045,-0.997,-0.9895,-0.982,0.1436,0.1423,0.1324,0.1148,0.0611,0.0087,-0.026,-0.1298,-0.2347,-0.3083,-0.3525,-0.3804,-0.3753,-0.4115,-0.4472,-0.4739,-0.5099,-0.5547,-0.5994,-0.626,-0.6349,-0.6349,-0.6523,-0.6871,-0.7217,-0.7921,-0.8273,-0.8273,-0.9065,-0.9419,-0.9419,-0.9772,-1.0038,-1.0038,-1.0038,-1.0038,-1.0038,-1.0038,-1.0038,-1.0038,-1.0207,-1.0294,-1.0294,-1.0554,-1.0809,-1.1068,-1.1068,-1.1574,-1.2248,-1.2674,-1.3099,-1.3444,-1.3951,-1.4268,-1.4406,-1.4406,-1.4743,-1.5167,-1.5167,-1.5043,-1.4874,-1.4728,-1.4684,-1.4604,-1.4282,-1.4209,-1.4157,-1.3982,-1.3821,-1.3718,-1.3718,-1.3594,-1.3492,-1.3492,-1.3492,-1.3492,-1.3492,-1.3492,-1.3492,-1.3492,-1.3492,-1.3492,-1.3492,-1.3492,-1.3492,-1.3492,-1.3492,-1.3492,-1.3492,-1.3741,-1.4052,-1.4283,-1.4935,-1.5498,-1.5888,-1.6082,-1.6254,-1.6409,-1.6154,-1.5988,-1.5835,-1.5001,-1.4532,-1.4355,-1.3326,-1.2826,-1.2826,-1.2378,-1.1774,-1.1025,-1.0576,-0.99,-0.9226,-0.8765,-0.8613,-0.8537,0.1415,0.1397,0.1383,0.1383,0.1363,0.1263,0.1263,0.0252,-0.0507,-0.043,-0.1292,-0.1905,-0.1846,-0.2566,-0.3106,-0.3459,-0.419,-0.4741,-0.5102,-0.5282,-0.5466,-0.5733,-0.5733,-0.5997,-0.6517,-0.7217,-0.757,-0.757,-0.8273,-0.8627,-0.8623,-0.9419,-0.9772,-0.9772,-0.9951,-1.0038,-1.0038,-1.0038,-1.0038,-1.0038,-1.0038,-1.0038,-1.0038,-1.0038,-1.0038,-1.0038,-1.0038,-1.0091,-1.0302,-1.0984,-1.1373,-1.1669,-1.2583,-1.3188,-1.3595,-1.3756,-1.4198,-1.4656,-1.4809,-1.4655,-1.445,-1.4377,-1.4355,-1.4275,-1.3945,-1.3865,-1.3799,-1.355,-1.3492,-1.3492,-1.3492,-1.3492,-1.3492,-1.3492,-1.3492,-1.3492,-1.3492,-1.3492,-1.3492,-1.3492,-1.3492,-1.3492,-1.3492,-1.3492,-1.3492,-1.3492,-1.3565,-1.3609,-1.3609,-1.3916,-1.4204,-1.4439,-1.5159,-1.5622,-1.5698,-1.5957,-1.6087,-1.6087,-1.5824,-1.5741,-1.565,-1.4743,-1.4202,-1.4087,-1.2701,-1.2061,-1.2003,-1.1335,-1.0726,-1.019,-0.9523,-0.8922,-0.8322,-0.7791,-0.7561,-0.748,0.127,0.1269,0.1267,0.1267,0.1265,0.1263,0.1263,0.1179,0.1096,0.1097,-0.0253,-0.118,-0.1182,-0.1803,-0.226,-0.2346,-0.2918,-0.3309,-0.3398,-0.4028,-0.4835,-0.5644,-0.5733,-0.5733,-0.5822,-0.652,-0.6868,-0.6868,-0.757,-0.7921,-0.7921,-0.8627,-0.8978,-0.8978,-0.9685,-1.0038,-1.0038,-1.0038,-1.0038,-1.0038,-1.0038,-1.0038,-1.0038,-1.0038,-1.0038,-1.0038,-1.0038,-1.0414,-1.0899,-1.0982,-1.1506,-1.2209,-1.3008,-1.3319,-1.3464,-1.418,-1.4127,-1.3885,-1.4421,-1.4487,-1.4399,-1.4092,-1.4018,-1.3931,-1.3601,-1.3536,-1.3521,-1.3499,-1.3492,-1.3492,-1.3492,-1.3492,-1.3492,-1.3492,-1.3492,-1.3492,-1.3492,-1.3492,-1.3492,-1.3492,-1.3492,-1.3492,-1.3492,-1.3492,-1.3492,-1.3492,-1.3777,-1.3945,-1.3945,-1.4253,-1.4567,-1.486,-1.5313,-1.5736,-1.6049,-1.6079,-1.6087,-1.6087,-1.5824,-1.5318,-1.4468,-1.3892,-1.3104,-1.2117,-1.1666,-1.1329,-1.1186,-1.1111,-1.0432,-0.9372,-0.9296,-0.8618,-0.7638,-0.7723,-0.7642,-0.7403,0.2267,0.2077,0.1976,0.1402,0.1304,0.1292,0.1292,0.1292,0.1299,0.1317,0.0742,0.0414,0.042,-0.0254,-0.0935,-0.1613,-0.2395,-0.301,-0.3698,-0.4094,-0.4416,-0.4832,-0.4837,-0.4837,-0.4837,-0.5099,-0.5275,-0.5275,-0.598,-0.6599,-0.7217,-0.7921,-0.854,-0.9165,-0.9432,-0.9607,-0.9607,-0.9607,-0.9607,-0.9607,-0.9607,-0.9529,-0.9415,-0.9415,-0.9338,-0.9233,-0.9233,-0.935,-0.9606,-0.9606,-0.9799,-1.0055,-1.0374,-1.0663,-1.1138,-1.1827,-1.1853,-1.1797,-1.198,-1.2783,-1.3454,-1.3333,-1.3305,-1.3269,-1.3148,-1.3119,-1.3119,-1.3119,-1.3119,-1.3119,-1.3119,-1.3119,-1.3119,-1.3119,-1.3119,-1.3119,-1.3119,-1.3273,-1.3346,-1.3346,-1.3419,-1.3492,-1.3492,-1.3492,-1.3492,-1.3492,-1.3799,-1.3982,-1.3982,-1.3988,-1.3831,-1.3535,-1.3708,-1.4435,-1.5673,-1.568,-1.568,-1.568,-1.4985,-1.4559,-1.4216,-1.3169,-1.2394,-1.1878,-1.0987,-1.0511,-1.0293,-0.983,-0.9301,-0.878,-0.878,-0.8399,-0.7791,-0.7246,-0.6934,-0.6777,0.328,0.2999,0.2648,0.1929,0.1587,0.1414,0.1335,0.1335,0.1264,0.1286,0.1288,0.1296,0.1317,0.0912,0.0333,-0.0498,-0.117,-0.2013,-0.2935,-0.3491,-0.3915,-0.4293,-0.43,-0.43,-0.43,-0.43,-0.43,-0.43,-0.483,-0.5361,-0.6071,-0.6684,-0.757,-0.8544,-0.8665,-0.8901,-0.9165,-0.9103,-0.9077,-0.9077,-0.9077,-0.8998,-0.8871,-0.8871,-0.8792,-0.8682,-0.8682,-0.8642,-0.8585,-0.8585,-0.8545,-0.8577,-0.8813,-0.9335,-1.0023,-1.0622,-1.0795,-1.0795,-1.1019,-1.1842,-1.2673,-1.2526,-1.2673,-1.29,-1.29,-1.29,-1.29,-1.29,-1.29,-1.29,-1.29,-1.29,-1.29,-1.29,-1.29,-1.29,-1.29,-1.3046,-1.3119,-1.3119,-1.32,-1.3346,-1.3419,-1.3419,-1.3462,-1.3638,-1.3953,-1.4139,-1.4024,-1.3865,-1.3585,-1.3184,-1.2845,-1.3444,-1.4999,-1.4741,-1.4566,-1.4566,-1.3964,-1.3542,-1.3197,-1.2337,-1.1569,-1.1003,-1.028,-0.9735,-0.9463,-0.8927,-0.8551,-0.8403,-0.8403,-0.8097,-0.7553,-0.6857,-0.6391,-0.5928,0.445,0.391,0.329,0.2896,0.2349,0.1803,0.1414,0.1335,0.1335,0.1335,0.1335,0.1335,0.1335,0.1284,0.1302,0.1302,0.0664,-0.0,-0.0672,-0.1933,-0.3172,-0.42,-0.4297,-0.4297,-0.4297,-0.4297,-0.4297,-0.4297,-0.4297,-0.4297,-0.4297,-0.5003,-0.5888,-0.6858,-0.7311,-0.8098,-0.8945,-0.8761,-0.8682,-0.8682,-0.8682,-0.8682,-0.8677,-0.8677,-0.8677,-0.8677,-0.8677,-0.855,-0.8379,-0.8379,-0.8256,-0.825,-0.8998,-0.982,-1.0565,-1.118,-1.1335,-1.1484,-1.2077,-1.2305,-1.215,-1.1781,-1.2305,-1.29,-1.29,-1.29,-1.29,-1.29,-1.29,-1.29,-1.29,-1.29,-1.29,-1.29,-1.29,-1.29,-1.29,-1.29,-1.29,-1.29,-1.29,-1.2973,-1.3193,-1.32,-1.341,-1.396,-1.4289,-1.4337,-1.4112,-1.4055,-1.4055,-1.4055,-1.319,-1.3105,-1.4055,-1.319,-1.2674,-1.2674,-1.2674,-1.2169,-1.1327,-1.1322,-1.0557,-0.9322,-0.9322,-0.9086,-0.8703,-0.8703,-0.8551,-0.8403,-0.8403,-0.7625,-0.6542,-0.6784,-0.6089,-0.4924,0.5386,0.5076,0.4766,0.4062,0.3365,0.2899,0.2823,0.2431,0.2119,0.2119,0.1883,0.1726,0.1726,0.1501,0.1112,0.0635,0.0399,-0.0161,-0.1311,-0.1806,-0.2329,-0.3169,-0.3173,-0.3173,-0.3173,-0.3173,-0.3173,-0.3173,-0.3173,-0.3514,-0.4193,-0.4361,-0.4954,-0.5887,-0.6686,-0.717,-0.7503,-0.8036,-0.818,-0.818,-0.818,-0.8187,-0.8078,-0.8078,-0.7995,-0.7882,-0.7882,-0.7844,-0.7794,-0.7794,-0.776,-0.7714,-0.794,-0.8241,-0.8461,-0.8613,-0.8694,-0.8694,-0.8917,-0.9372,-1.0126,-1.1706,-1.2305,-1.2452,-1.2452,-1.2452,-1.2452,-1.2452,-1.2452,-1.2452,-1.2452,-1.2452,-1.2452,-1.2452,-1.2452,-1.2452,-1.2452,-1.2599,-1.2673,-1.2673,-1.2298,-1.2077,-1.215,-1.1727,-1.1643,-1.1954,-1.2565,-1.2667,-1.2157,-1.218,-1.1837,-1.1235,-1.0977,-1.0977,-1.1235,-1.2254,-1.2674,-1.2674,-1.1997,-1.1574,-1.1241,-1.0636,-0.9974,-0.9322,-0.9322,-0.9086,-0.8703,-0.8703,-0.8703,-0.8551,-0.8165,-0.7783,-0.7242,-0.5848,-0.5154,-0.4611,0.6475,0.6167,0.5777,0.5148,0.4453,0.399,0.3832,0.329,0.2823,0.2823,0.243,0.2117,0.2117,0.1884,0.1649,0.1177,0.0942,0.0473,-0.032,-0.0961,-0.1451,-0.1881,-0.2292,-0.2559,-0.2691,-0.2692,-0.2692,-0.2692,-0.2692,-0.3026,-0.3526,-0.3526,-0.4026,-0.4939,-0.5388,-0.5858,-0.6263,-0.6616,-0.6995,-0.7316,-0.7316,-0.7422,-0.765,-0.765,-0.7581,-0.7484,-0.7484,-0.7484,-0.7484,-0.7484,-0.7484,-0.7484,-0.7484,-0.7484,-0.7557,-0.7863,-0.794,-0.8016,-0.8389,-0.8765,-0.9523,-1.1025,-1.1323,-1.1323,-1.1323,-1.1323,-1.1323,-1.1323,-1.1323,-1.1323,-1.1323,-1.1323,-1.1323,-1.1323,-1.1323,-1.1323,-1.1323,-1.1471,-1.1545,-1.1545,-1.1248,-1.1025,-1.1099,-1.0883,-1.088,-1.1391,-1.1958,-1.1928,-1.1316,-1.1327,-1.1068,-1.0554,-1.0207,-1.0212,-1.0554,-1.123,-1.1655,-1.1655,-1.1063,-1.0809,-1.0809,-1.0212,-0.9724,-0.9322,-0.9322,-0.9086,-0.8703,-0.8703,-0.8546,-0.8318,-0.7936,-0.7318,-0.6388,-0.5151,-0.43,-0.3679,0.7484,0.7022,0.6556,0.6079,0.5541,0.5002,0.4683,0.4066,0.3602,0.3524,0.2978,0.2588,0.2589,0.2511,0.2511,0.2511,0.196,0.1646,0.1568,0.0313,-0.0392,-0.047,-0.1411,-0.2161,-0.2506,-0.2592,-0.2676,-0.2676,-0.2676,-0.2676,-0.2676,-0.2676,-0.3091,-0.3916,-0.3751,-0.4277,-0.5071,-0.5048,-0.5389,-0.6009,-0.6086,-0.6549,-0.7249,-0.7249,-0.7326,-0.7403,-0.7326,-0.7407,-0.7484,-0.7484,-0.7484,-0.7484,-0.7484,-0.7484,-0.7638,-0.8322,-0.8551,-0.8775,-0.9448,-0.9669,-0.9669,-0.9669,-0.9669,-0.9744,-0.9895,-0.9895,-0.9895,-0.9895,-0.9895,-0.9895,-0.9895,-0.9895,-0.9895,-0.9895,-0.9895,-0.9895,-0.9895,-0.9895,-0.9895,-0.9895,-0.982,-0.9895,-1.004,-1.0209,-1.0641,-1.1609,-1.186,-1.1735,-1.1149,-1.1149,-1.1154,-1.1154,-1.0381,-1.0381,-1.1154,-1.0381,-1.0038,-1.0038,-1.0038,-1.0038,-1.0038,-0.9932,-0.9705,-0.9322,-0.9304,-0.9067,-0.8703,-0.8623,-0.8318,-0.7783,-0.7629,-0.6388,-0.4763,-0.4611,-0.3679,-0.2511,0.7484,0.7407,0.7249,0.7169,0.6633,0.6247,0.617,0.5544,0.4924,0.4465,0.3992,0.3524,0.3061,0.2668,0.2511,0.2511,0.2353,0.2117,0.1646,0.1332,0.0862,0.0392,0.0078,-0.0315,-0.1035,-0.2071,-0.2549,-0.2549,-0.2549,-0.247,-0.2309,-0.2309,-0.2312,-0.2391,-0.3007,-0.339,-0.3626,-0.4465,-0.4763,-0.4838,-0.5157,-0.5312,-0.5306,-0.5467,-0.5931,-0.6472,-0.6325,-0.6788,-0.7484,-0.7484,-0.7484,-0.7484,-0.7484,-0.7484,-0.7484,-0.7484,-0.7638,-0.7787,-0.7787,-0.794,-0.8012,-0.8012,-0.8012,-0.8313,-0.9593,-0.9895,-0.9895,-0.9895,-0.9895,-0.9895,-0.9895,-0.9895,-0.9895,-0.9895,-0.9895,-0.9895,-0.9895,-0.9895,-0.9895,-0.9895,-0.9372,-0.9003,-0.8998,-0.8881,-0.9022,-0.9502,-0.9831,-0.9946,-0.9946,-0.9946,-1.0033,-1.0294,-1.0125,-1.0125,-1.0294,-1.0125,-1.0038,-1.0038,-1.0038,-1.0038,-1.0033,-0.9786,-0.9568,-0.9313,-0.9157,-0.8944,-0.8627,-0.8165,-0.7936,-0.7706,-0.6388,-0.5538,-0.4996,-0.3839,-0.3217,-0.2912,0.7868,0.7791,0.7714,0.7561,0.7253,0.7022,0.7022,0.6479,0.5938,0.5631,0.516,0.4538,0.3919,0.3684,0.3448,0.3137,0.3136,0.2979,0.2665,0.2273,0.1882,0.1489,0.1019,0.0548,0.0157,-0.1019,-0.1803,-0.2199,-0.2199,-0.2199,-0.2042,-0.2042,-0.1964,-0.1887,-0.2356,-0.2511,-0.2588,-0.3134,-0.3521,-0.383,-0.3988,-0.43,-0.4608,-0.5076,-0.5544,-0.5931,-0.6244,-0.671,-0.7249,-0.7249,-0.7249,-0.7249,-0.7249,-0.7249,-0.7173,-0.7099,-0.7099,-0.7173,-0.7099,-0.7096,-0.7249,-0.7249,-0.7249,-0.748,-0.8537,-0.8765,-0.8765,-0.8765,-0.8765,-0.8765,-0.8765,-0.8765,-0.8765,-0.8765,-0.8765,-0.8765,-0.8765,-0.8765,-0.8765,-0.8765,-0.8394,-0.8132,-0.8225,-0.8188,-0.8296,-0.8746,-0.8858,-0.907,-0.9428,-0.9432,-0.9519,-0.9694,-0.9777,-0.9602,-0.9244,-0.9777,-0.9685,-0.8978,-0.9685,-0.9899,-0.98,-0.9696,-0.9308,-0.8689,-0.8591,-0.8273,-0.7783,-0.7476,-0.7169,-0.678,-0.5693,-0.4999,-0.4457,-0.3452,-0.3005,-0.2808,0.842,0.8206,0.8062,0.7783,0.771,0.7714,0.7638,0.7176,0.6795,0.6641,0.6093,0.5547,0.4932,0.4779,0.4465,0.3997,0.3841,0.3763,0.3763,0.3136,0.2744,0.2744,0.1881,0.1332,0.1175,0.0392,-0.0627,-0.1649,-0.1807,-0.1887,-0.1887,-0.1887,-0.1808,-0.1807,-0.1807,-0.1807,-0.1808,-0.1808,-0.2199,-0.282,-0.2898,-0.3287,-0.3984,-0.4688,-0.5076,-0.5231,-0.5928,-0.6318,-0.6472,-0.663,-0.6707,-0.6707,-0.6865,-0.6865,-0.6861,-0.6865,-0.6865,-0.6861,-0.6865,-0.6865,-0.6865,-0.6865,-0.6865,-0.7019,-0.7326,-0.7407,-0.7407,-0.7407,-0.7407,-0.7407,-0.7407,-0.7407,-0.7484,-0.7484,-0.7484,-0.7484,-0.7484,-0.7484,-0.7484,-0.7484,-0.7484,-0.7557,-0.7744,-0.784,-0.7975,-0.8464,-0.8489,-0.8658,-0.9196,-0.9209,-0.9226,-0.9262,-0.9432,-0.9253,-0.8632,-0.9387,-0.9104,-0.788,-0.9074,-0.9429,-0.9306,-0.9233,-0.8773,-0.7907,-0.7878,-0.754,-0.6861,-0.6784,-0.6402,-0.586,-0.5234,-0.4535,-0.3765,-0.3233,-0.2813,-0.2647,0.8968,0.8655,0.8426,0.8519,0.8551,0.8399,0.8102,0.7949,0.7565,0.6718,0.6483,0.6247,0.5547,0.5007,0.4698,0.4621,0.4075,0.3763,0.3763,0.3684,0.3606,0.3606,0.3448,0.3057,0.2275,0.2117,0.1175,-0.0784,-0.1492,-0.1808,-0.165,-0.165,-0.1572,-0.1415,-0.1415,-0.1415,-0.1415,-0.1572,-0.1572,-0.157,-0.1885,-0.2042,-0.2041,-0.2277,-0.2823,-0.3443,-0.3363,-0.383,-0.4611,-0.5467,-0.5777,-0.5931,-0.663,-0.6865,-0.6865,-0.6714,-0.6791,-0.6865,-0.6714,-0.6788,-0.6865,-0.6865,-0.6865,-0.6942,-0.6942,-0.7019,-0.7019,-0.7019,-0.7019,-0.7019,-0.7019,-0.7099,-0.7257,-0.7257,-0.7411,-0.7484,-0.7484,-0.7484,-0.7484,-0.7484,-0.7484,-0.7557,-0.7744,-0.784,-0.7841,-0.8032,-0.8048,-0.8296,-0.8653,-0.8662,-0.891,-0.9253,-0.9345,-0.9262,-0.917,-0.8824,-0.8479,-0.8308,-0.7991,-0.7903,-0.7932,-0.7628,-0.7461,-0.7331,-0.7114,-0.7038,-0.6865,-0.6247,-0.6015,-0.5783,-0.4462,-0.3919,-0.3694,-0.297,-0.2744,-0.276,0.9749,0.928,0.8929,0.8926,0.8678,0.8496,0.8461,0.8403,0.8246,0.7863,0.7787,0.7553,0.6934,0.6237,0.5619,0.5079,0.4768,0.4382,0.3841,0.3763,0.3763,0.3763,0.3763,0.3606,0.3214,0.2744,0.2038,0.1097,0.0314,-0.0314,-0.0706,-0.0706,-0.0942,-0.1335,-0.1335,-0.1335,-0.1335,-0.1415,-0.1415,-0.1335,-0.1493,-0.1493,-0.1493,-0.2042,-0.2433,-0.2821,-0.3209,-0.3599,-0.3988,-0.4453,-0.4608,-0.4686,-0.5074,-0.5151,-0.5151,-0.5076,-0.5076,-0.5151,-0.5076,-0.5076,-0.5151,-0.5151,-0.5151,-0.5151,-0.5151,-0.5151,-0.5461,-0.663,-0.6865,-0.6865,-0.6865,-0.6942,-0.7022,-0.7022,-0.7173,-0.7322,-0.7322,-0.7403,-0.7484,-0.7484,-0.7484,-0.7516,-0.7598,-0.7211,-0.7202,-0.7858,-0.7049,-0.6788,-0.7533,-0.7119,-0.6982,-0.7137,-0.7307,-0.7222,-0.6796,-0.7063,-0.6773,-0.602,-0.6055,-0.6597,-0.7398,-0.7247,-0.6972,-0.6496,-0.6352,-0.6012,-0.547,-0.516,-0.4929,-0.4618,-0.3765,-0.3322,-0.3129,-0.2794,-0.2707,-0.2788]},{"header":{"parameterUnit":"m.s-1","parameterCategory":1,"la1":30.6,"la2":28.766,"lo1":-90.7593,"lo2":-88.6598,"dy":0.0162,"dx":0.0183,"nx":116,"ny":114,"refTime":"2023-04-24T06:00:00:Z","depth":0,"parameterNumber":3,"parameterNumberName":"V-component_of_WINDS"},"data":[0.0,0.0,0.0,0.0,0.0,0.0,0.0,0.0,0.0,0.0,0.0,0.0,0.0,0.0,0.0,0.0,0.0,0.0,0.0,0.0,0.0,0.0,0.0,0.0,0.0,0.0,0.0,0.0,0.0,0.0,0.0,0.0,0.0,0.0,0.0,0.0,0.0,0.0,0.0,0.0,0.0,0.0,0.0,0.0,0.0,0.0,0.0,0.0,0.0,0.0,0.0,0.0,0.0,0.0,0.0,0.0,0.0,0.0,0.0,0.0,0.0,0.0,0.0,0.0,0.0,0.0,0.0,0.0,0.0,0.0,0.0,0.0,0.0,0.0,0.0,0.0,0.0,0.0,0.0,0.0,0.0,0.0,0.0,0.0,0.0,0.0,0.0,0.0,0.0,0.0,0.0,0.0,0.0,0.0,0.0,0.0,0.0,0.0,0.0,0.0,0.0,0.0,0.0,0.0,0.0,0.0,0.0,0.0,0.0,0.0,0.0,0.0,0.0,0.0,0.0,0.0,0.0,0.0,0.0,0.0,0.0,0.0,0.0,0.0,0.0,0.0,0.0,0.0,0.0,0.0,0.0,0.0,0.0,0.0,0.0,0.0,0.0,0.0,0.0,0.0,0.0,0.0,0.0,0.0,0.0,0.0,0.0,0.0,0.0,0.0,0.0,0.0,0.0,0.0,0.0,0.0,0.0,0.0,0.0,0.0,0.0,0.0,0.0,0.0,0.0,0.0,0.0,0.0,0.0,0.0,0.0,0.0,0.0,0.0,0.0,0.0,0.0,0.0,0.0,0.0,0.0,0.0,0.0,0.0,0.0,0.0,0.0,0.0,0.0,0.0,0.0,0.0,0.0,0.0,0.0,0.0,0.0,0.0,0.0,0.0,0.0,0.0,0.0,0.0,0.0,0.0,0.0,0.0,0.0,0.0,0.0,0.0,0.0,0.0,0.0,0.0,0.0,0.0,0.0,0.0,0.0,0.0,0.0,0.0,0.0,0.0,0.0,0.0,0.0,0.0,0.0,0.0,0.0,0.0,0.0,0.0,0.0,0.0,0.0,0.0,0.0,0.0,0.0,0.0,0.0,0.0,0.0,0.0,0.0,0.0,0.0,0.0,0.0,0.0,0.0,0.0,0.0,0.0,0.0,0.0,0.0,0.0,0.0,0.0,0.0,0.0,0.0,0.0,0.0,0.0,0.0,0.0,0.0,0.0,0.0,0.0,0.0,0.0,0.0,0.0,0.0,0.0,0.0,0.0,0.0,0.0,0.0,0.0,0.0,0.0,0.0,0.0,0.0,0.0,0.0,0.0,0.0,0.0,0.0,0.0,0.0,0.0,0.0,0.0,0.0,0.0,0.0,0.0,0.0,0.0,0.0,0.0,0.0,0.0,0.0,0.0,0.0,0.0,0.0,0.0,0.0,0.0,0.0,0.0,0.0,0.0,0.0,0.0,0.0,0.0,0.0,0.0,0.0,0.0,0.0,0.0,0.0,0.0,0.0,0.0,0.0,0.0,0.0,0.0,0.0,0.0,0.0,0.0,0.0,0.0,0.0,0.0,0.0,0.0,0.0,0.0,0.0,0.0,0.0,0.0,0.0,0.0,0.0,0.0,0.0,0.0,0.0,0.0,0.0,0.0,0.0,0.0,0.0,0.0,0.0,0.0,0.0,0.0,0.0,0.0,0.0,0.0,0.0,0.0,0.0,0.0,0.0,0.0,0.0,0.0,0.0,0.0,0.0,0.0,0.0,0.0,0.0,0.0,0.0,0.0,0.0,0.0,0.0,0.0,0.0,0.0,0.0,0.0,0.0,0.0,0.0,0.0,0.0,0.0,0.0,0.0,0.0,0.0,0.0,0.0,0.0,0.0,0.0,0.0,0.0,0.0,0.0,0.0,0.0,0.0,0.0,0.0,0.0,0.0,0.0,0.0,0.0,0.0,0.0,0.0,0.0,0.0,0.0,0.0,0.0,0.0,0.0,0.0,0.0,0.0,0.0,0.0,0.0,0.0,0.0,0.0,0.0,0.0,0.0,0.0,0.0,0.0,0.0,0.0,0.0,0.0,0.0,0.0,0.0,0.0,0.0,0.0,0.0,0.0,0.0,0.0,0.0,0.0,0.0,0.0,0.0,0.0,0.0,0.0,0.0,0.0,0.0,0.0,0.0,0.0,0.0,0.0,0.0,0.0,0.0,0.0,0.0,0.0,0.0,0.0,0.0,0.0,0.0,0.0,0.0,0.0,0.0,0.0,0.0,0.0,0.0,0.0,0.0,0.0,0.0,0.0,0.0,0.0,0.0,0.0,0.0,0.0,0.0,0.0,0.0,0.0,0.0,0.0,0.0,0.0,0.0,0.0,0.0,0.0,0.0,0.0,0.0,0.0,0.0,0.0,0.0,0.0,0.0,0.0,0.0,0.0,0.0,0.0,0.0,0.0,0.0,0.0,0.0,0.0,0.0,0.0,0.0,0.0,0.0,0.0,0.0,0.0,0.0,0.0,0.0,0.0,0.0,0.0,0.0,0.0,0.0,0.0,0.0,0.0,0.0,0.0,0.0,0.0,0.0,0.0,0.0,0.0,0.0,0.0,0.0,0.0,0.0,0.0,0.0,0.0,0.0,0.0,0.0,0.0,0.0,0.0,0.0,0.0,0.0,0.0,0.0,0.0,0.0,0.0,0.0,0.0,0.0,0.0,0.0,0.0,0.0,0.0,0.0,0.0,0.0,0.0,0.0,0.0,0.0,0.0,0.0,0.0,0.0,0.0,0.0,0.0,0.0,0.0,0.0,0.0,0.0,0.0,0.0,0.0,0.0,0.0,0.0,0.0,0.0,0.0,0.0,0.0,0.0,0.0,0.0,0.0,0.0,0.0,0.0,0.0,0.0,0.0,0.0,0.0,0.0,0.0,0.0,0.0,0.0,0.0,0.0,0.0,0.0,0.0,0.0,0.0,0.0,0.0,0.0,0.0,0.0,0.0,0.0,0.0,0.0,0.0,0.0,0.0,0.0,0.0,0.0,0.0,0.0,0.0,0.0,0.0,0.0,0.0,0.0,0.0,0.0,0.0,0.0,0.0,0.0,0.0,0.0,0.0,0.0,0.0,0.0,0.0,0.0,0.0,0.0,0.0,0.0,0.0,0.0,0.0,0.0,0.0,0.0,0.0,0.0,0.0,0.0,0.0,0.0,0.0,0.0,0.0,0.0,0.0,0.0,0.0,0.0,0.0,0.0,0.0,0.0,0.0,0.0,0.0,0.0,0.0,0.0,0.0,0.0,0.0,0.0,0.0,0.0,0.0,0.0,0.0,0.0,0.0,0.0,0.0,0.0,0.0,0.0,0.0,0.0,0.0,0.0,0.0,0.0,0.0,0.0,0.0,0.0,0.0,0.0,0.0,0.0,0.0,0.0,0.0,0.0,0.0,0.0,0.0,0.0,0.0,0.0,0.0,0.0,0.0,0.0,0.0,0.0,0.0,0.0,0.0,0.0,0.0,0.0,0.0,0.0,0.0,0.0,0.0,0.0,0.0,0.0,0.0,0.0,0.0,0.0,0.0,0.0,0.0,0.0,0.0,0.0,0.0,0.0,0.0,0.0,0.0,0.0,0.0,0.0,0.0,0.0,0.0,0.0,0.0,0.0,0.0,0.0,0.0,0.0,0.0,0.0,0.0,0.0,0.0,0.0,0.0,0.0,0.0,0.0,0.0,0.0,0.0,0.0,0.0,0.0,0.0,0.0,0.0,0.0,0.0,0.0,0.0,0.0,0.0,0.0,0.0,0.0,0.0,0.0,0.0,0.0,0.0,0.0,0.0,0.0,0.0,0.0,0.0,0.0,0.0,0.0,0.0,0.0,0.0,0.0,0.0,0.0,0.0,0.0,0.0,0.0,0.0,0.0,0.0,0.0,0.0,0.0,0.0,0.0,0.0,0.0,0.0,0.0,0.0,0.0,0.0,0.0,0.0,0.0,0.0,0.0,0.0,0.0,0.0,0.0,0.0,0.0,0.0,0.0,0.0,0.0,0.0,0.0,0.0,0.0,0.0,0.0,0.0,0.0,0.0,0.0,0.0,0.0,0.0,0.0,0.0,0.0,0.0,0.0,0.0,0.0,0.0,0.0,0.0,0.0,0.0,0.0,0.0,0.0,0.0,0.0,0.0,0.0,0.0,0.0,0.0,0.0,0.0,0.0,0.0,0.0,0.0,0.0,0.0,0.0,0.0,0.0,0.0,0.0,0.0,0.0,0.0,0.0,0.0,0.0,0.0,0.0,0.0,0.0,0.0,0.0,0.0,0.0,0.0,0.0,0.0,0.0,0.0,0.0,0.0,0.0,0.0,0.0,0.0,0.0,0.0,0.0,0.0,0.0,0.0,0.0,0.0,0.0,0.0,0.0,0.0,0.0,0.0,0.0,0.0,0.0,0.0,0.0,0.0,0.0,0.0,0.0,0.0,0.0,0.0,0.0,0.0,0.0,0.0,0.0,0.0,0.0,0.0,0.0,0.0,0.0,0.0,0.0,0.0,0.0,0.0,0.0,0.0,0.0,0.0,0.0,0.0,0.0,0.0,0.0,0.0,0.0,0.0,0.0,0.0,0.0,0.0,0.0,0.0,0.0,0.0,0.0,0.0,0.0,0.0,0.0,0.0,0.0,0.0,0.0,0.0,0.0,0.0,0.0,0.0,0.0,0.0,0.0,0.0,0.0,0.0,0.0,0.0,0.0,0.0,0.0,0.0,0.0,0.0,0.0,0.0,0.0,0.0,0.0,0.0,0.0,0.0,0.0,0.0,0.0,0.0,0.0,0.0,0.0,0.0,0.0,0.0,0.0,0.0,0.0,0.0,0.0,0.0,0.0,0.0,0.0,0.0,0.0,0.0,0.0,0.0,0.0,0.0,0.0,0.0,0.0,0.0,0.0,0.0,0.0,0.0,0.0,0.0,0.0,0.0,0.0,0.0,0.0,0.0,0.0,0.0,0.0,0.0,0.0,0.0,0.0,0.0,0.0,0.0,0.0,0.0,0.0,0.0,0.0,0.0,0.0,0.0,0.0,0.0,0.0,0.0,0.0,0.0,0.0,0.0,0.0,0.0,0.0,0.0,0.0,0.0,0.0,0.0,0.0,0.0,0.0,0.0,0.0,0.0,0.0,0.0,0.0,0.0,0.0,0.0,0.0,0.0,0.0,0.0,0.0,0.0,0.0,0.0,0.0,0.0,0.0,0.0,0.0,0.0,0.0,0.0,0.0,0.0,0.0,0.0,0.0,0.0,0.0,0.0,0.0,0.0,0.0,0.0,0.0,0.0,0.0,0.0,0.0,0.0,0.0,0.0,0.0,0.0,0.0,0.0,0.0,0.0,0.0,0.0,0.0,0.0,0.0,0.0,0.0,0.0,0.0,0.0,0.0,0.0,0.0,0.0,0.0,0.0,0.0,0.0,0.0,0.0,0.0,0.0,0.0,0.0,0.0,0.0,0.0,0.0,0.0,0.0,0.0,0.0,0.0,0.0,0.0,0.0,0.0,0.0,0.0,0.0,0.0,0.0,0.0,0.0,0.0,0.0,0.0,0.0,0.0,0.0,0.0,0.0,0.0,0.0,0.0,0.0,0.0,0.0,0.0,0.0,0.0,0.0,0.0,0.0,0.0,0.0,0.0,0.0,0.0,0.0,0.0,0.0,0.0,0.0,0.0,0.0,0.0,0.0,0.0,0.0,0.0,0.0,0.0,0.0,0.0,0.0,0.0,0.0,0.0,0.0,0.0,0.0,0.0,0.0,0.0,0.0,0.0,0.0,0.0,0.0,0.0,0.0,0.0,0.0,0.0,0.0,0.0,0.0,0.0,0.0,0.0,0.0,0.0,0.0,0.0,0.0,0.0,0.0,0.0,0.0,0.0,0.0,0.0,0.0,0.0,0.0,0.0,0.0,0.0,0.0,0.0,0.0,0.0,0.0,0.0,0.0,0.0,0.0,0.0,0.0,0.0,0.0,0.0,0.0,0.0,0.0,0.0,0.0,0.0,0.0,0.0,0.0,0.0,0.0,0.0,0.0,0.0,0.0,0.0,0.0,0.0,0.0,0.0,0.0,0.0,0.0,0.0,0.0,0.0,0.0,0.0,0.0,-3.7979,-3.7386,0.0,0.0,0.0,0.0,0.0,0.0,0.0,0.0,0.0,0.0,0.0,0.0,0.0,0.0,0.0,0.0,0.0,0.0,0.0,0.0,0.0,0.0,0.0,0.0,0.0,0.0,0.0,0.0,0.0,0.0,0.0,0.0,0.0,0.0,0.0,0.0,0.0,0.0,-3.9063,-3.8802,-3.8232,-3.7837,-3.7325,-3.6764,0.0,0.0,0.0,0.0,0.0,0.0,0.0,0.0,0.0,0.0,0.0,0.0,0.0,0.0,0.0,0.0,0.0,0.0,0.0,0.0,0.0,0.0,0.0,0.0,0.0,0.0,0.0,0.0,0.0,0.0,0.0,0.0,0.0,0.0,0.0,0.0,0.0,0.0,0.0,0.0,0.0,0.0,0.0,0.0,0.0,0.0,0.0,0.0,0.0,0.0,0.0,0.0,0.0,0.0,0.0,0.0,0.0,0.0,0.0,0.0,0.0,0.0,0.0,0.0,0.0,0.0,0.0,0.0,0.0,0.0,-3.8575,-3.8173,0.0,0.0,0.0,0.0,0.0,0.0,0.0,0.0,0.0,0.0,0.0,0.0,0.0,0.0,0.0,0.0,0.0,0.0,0.0,0.0,0.0,0.0,0.0,0.0,0.0,0.0,0.0,0.0,0.0,0.0,0.0,0.0,0.0,0.0,0.0,0.0,0.0,-3.7683,-3.8368,-3.8209,-3.7305,-3.6803,-3.658,-3.6504,-3.6071,0.0,0.0,0.0,0.0,0.0,0.0,0.0,0.0,0.0,0.0,0.0,0.0,0.0,0.0,0.0,0.0,0.0,0.0,0.0,0.0,0.0,0.0,0.0,0.0,0.0,0.0,0.0,0.0,0.0,0.0,0.0,0.0,0.0,0.0,0.0,0.0,0.0,0.0,0.0,0.0,0.0,0.0,0.0,0.0,0.0,0.0,0.0,0.0,0.0,0.0,0.0,0.0,0.0,0.0,0.0,0.0,0.0,0.0,0.0,0.0,0.0,0.0,0.0,-3.7924,-3.8193,-3.8091,-3.8091,-3.8385,-3.8994,-3.8311,-3.8531,-3.9086,-3.7745,0.0,0.0,0.0,0.0,0.0,0.0,0.0,0.0,0.0,0.0,0.0,0.0,0.0,0.0,0.0,0.0,0.0,0.0,0.0,0.0,0.0,-3.4245,-3.4591,-3.5064,-3.5114,-3.5264,0.0,0.0,0.0,0.0,0.0,0.0,0.0,-3.6328,-3.6464,-3.6868,-3.6961,-3.7106,-3.7305,-3.6724,-3.6224,-3.5888,-3.5605,-3.552,-3.5605,0.0,0.0,0.0,0.0,0.0,0.0,0.0,0.0,0.0,0.0,0.0,0.0,0.0,0.0,0.0,0.0,0.0,0.0,0.0,0.0,0.0,0.0,0.0,0.0,0.0,0.0,0.0,0.0,0.0,0.0,0.0,0.0,0.0,0.0,0.0,0.0,0.0,0.0,0.0,0.0,0.0,-3.8513,-3.7655,0.0,0.0,0.0,0.0,0.0,0.0,0.0,0.0,0.0,0.0,0.0,0.0,0.0,-3.9247,-3.9265,-3.9352,-3.8967,-3.8213,-3.8299,-3.8087,-3.7535,-3.7535,-3.7521,-3.7674,-3.7535,0.0,-3.8527,-3.8284,0.0,0.0,0.0,0.0,0.0,0.0,0.0,0.0,0.0,0.0,0.0,0.0,0.0,0.0,0.0,0.0,0.0,0.0,0.0,0.0,0.0,-3.4316,-3.4545,-3.4944,-3.4999,-3.5146,-3.5554,0.0,0.0,0.0,0.0,0.0,-3.5401,-3.5675,-3.5936,-3.6069,-3.6206,-3.6237,-3.6176,-3.6,-3.5871,-3.5667,-3.556,-3.5814,-3.6282,-3.5623,0.0,0.0,0.0,0.0,0.0,0.0,0.0,0.0,0.0,0.0,0.0,0.0,0.0,0.0,0.0,0.0,0.0,0.0,0.0,0.0,0.0,0.0,0.0,0.0,0.0,0.0,0.0,0.0,0.0,0.0,0.0,0.0,0.0,0.0,0.0,0.0,0.0,0.0,0.0,-3.9033,-3.8969,-3.8481,-3.8888,-3.9038,0.0,0.0,0.0,0.0,0.0,0.0,0.0,0.0,0.0,-3.9424,-3.9035,-3.8841,-3.8841,-3.8467,-3.8138,-3.7838,-3.7838,-3.7689,-3.7404,-3.7404,-3.7404,-3.7404,-3.7404,-3.7375,-3.7345,-3.7704,-3.7659,-3.7404,0.0,0.0,0.0,0.0,-3.7404,-3.7404,0.0,0.0,0.0,0.0,0.0,0.0,0.0,0.0,0.0,0.0,0.0,0.0,-3.434,-3.4386,-3.4542,-3.487,-3.4908,-3.5069,-3.5483,-3.5551,0.0,0.0,0.0,-3.5386,-3.4714,-3.5086,-3.5347,-3.5416,-3.5348,-3.534,-3.5431,-3.5335,-3.5436,-3.5622,-3.5622,-3.5989,-3.6639,-3.6108,-3.6057,-3.6239,0.0,0.0,0.0,0.0,0.0,0.0,0.0,0.0,0.0,0.0,0.0,0.0,0.0,0.0,0.0,0.0,0.0,0.0,0.0,0.0,0.0,0.0,0.0,0.0,0.0,0.0,0.0,0.0,0.0,0.0,0.0,0.0,0.0,0.0,0.0,0.0,0.0,-3.9553,-3.9736,-3.9167,-4.0007,-4.019,0.0,0.0,0.0,0.0,0.0,0.0,-3.917,-3.9155,-3.908,-3.8916,-3.8407,-3.8138,-3.8138,-3.7823,-3.7584,-3.7404,-3.7584,-3.7569,-3.7404,-3.7404,-3.7404,-3.7404,-3.724,-3.6911,-3.6522,-3.6985,-3.7075,-3.6926,-3.6926,-3.6926,-3.6926,-3.6926,-3.6926,-3.6926,0.0,0.0,0.0,0.0,0.0,0.0,0.0,0.0,0.0,0.0,0.0,-3.3947,-3.434,-3.4386,-3.4542,-3.487,-3.4908,-3.5069,-3.5483,-3.5551,-3.56,-3.5608,-3.5665,-3.5391,-3.4714,-3.4173,-3.4247,-3.4942,-3.4124,-3.4429,-3.5782,-3.4957,-3.4928,-3.5622,-3.5622,-3.5639,-3.5628,-3.5088,-3.4899,-3.4837,-3.3761,0.0,0.0,0.0,0.0,0.0,0.0,0.0,0.0,0.0,0.0,0.0,0.0,0.0,0.0,0.0,0.0,0.0,0.0,0.0,0.0,0.0,0.0,0.0,0.0,0.0,0.0,0.0,0.0,0.0,0.0,0.0,0.0,0.0,0.0,0.0,0.0,0.0,0.0,-3.9323,-4.0737,0.0,0.0,0.0,0.0,-3.9409,-3.9424,-3.9125,-3.8482,-3.8437,-3.8153,-3.7524,-3.7479,-3.7464,-3.7464,-3.8048,-3.8018,-3.7419,-3.8048,-3.8018,-3.7404,-3.7404,-3.7404,-3.7375,-3.6791,-3.6507,-3.6492,-3.6522,-3.6163,-3.5609,-3.5609,-3.5609,-3.5609,-3.5609,-3.5609,-3.5609,0.0,0.0,0.0,0.0,0.0,0.0,0.0,0.0,0.0,-3.355,-3.3734,-3.3947,-3.4293,-3.4363,-3.4473,-3.4628,-3.4689,-3.4832,-3.5114,-3.5303,-3.541,-3.541,-3.5597,-3.5391,-3.4714,-3.4284,-3.3968,-3.3796,-3.3687,-3.3741,-3.4007,-3.4353,-3.4641,-3.4912,-3.5006,-3.527,-3.5577,-3.5379,-3.5131,-3.4785,-3.4366,-3.402,0.0,0.0,0.0,0.0,0.0,0.0,0.0,0.0,0.0,0.0,0.0,0.0,0.0,0.0,0.0,0.0,0.0,0.0,0.0,0.0,0.0,0.0,0.0,0.0,0.0,0.0,0.0,0.0,0.0,0.0,0.0,0.0,0.0,0.0,0.0,0.0,0.0,-4.1358,-4.1629,0.0,-4.0485,-3.9595,-3.9018,-3.8751,-3.8362,-3.8018,-3.7778,-3.7764,-3.7838,-3.8033,-3.7629,-3.7614,-3.8033,-3.7853,-3.7644,-3.7404,-3.7644,-3.7644,-3.7404,-3.7404,-3.7404,-3.7404,-3.718,-3.7075,-3.7075,-3.7075,-3.6462,-3.5504,-3.5504,-3.5504,-3.5504,-3.5504,-3.5504,-3.5504,0.0,0.0,0.0,0.0,0.0,0.0,0.0,0.0,0.0,-3.3578,-3.3815,-3.4023,-3.4269,-3.4363,-3.4427,-3.4495,-3.4561,-3.4711,-3.4978,-3.5193,-3.5334,-3.5427,-3.5503,-3.527,-3.4714,-3.4379,-3.388,-3.3184,-3.3262,-3.3178,-3.2983,-3.3577,-3.4075,-3.4523,-3.4621,-3.5036,-3.5622,-3.5667,-3.5424,-3.5068,-3.488,-3.4625,-3.4333,0.0,0.0,0.0,0.0,0.0,0.0,0.0,0.0,0.0,0.0,0.0,0.0,0.0,0.0,0.0,0.0,0.0,0.0,0.0,0.0,0.0,0.0,0.0,0.0,0.0,0.0,0.0,0.0,0.0,0.0,0.0,0.0,0.0,0.0,-4.2521,-4.3098,-4.204,-4.2164,-4.1739,-4.0158,-3.922,-3.8569,-3.8132,-3.7853,-3.7644,-3.7419,-3.7614,-3.7838,-3.8048,-3.7644,-3.7614,-3.8063,-3.7853,-3.7749,-3.7749,-3.7973,-3.8078,-3.8078,-3.8078,-3.8078,-3.8078,-3.7838,-3.7749,-3.7719,-3.7494,-3.6911,-3.6133,-3.5923,-3.5833,-3.5804,-3.5594,-3.5504,-3.5504,0.0,0.0,0.0,0.0,0.0,0.0,0.0,-3.2912,-3.3321,-3.3321,-3.3831,-3.4221,-3.4293,-3.434,-3.4409,-3.4495,-3.4561,-3.4772,-3.5149,-3.5268,-3.5431,-3.5681,-3.5377,-3.5051,-3.4714,-3.4379,-3.388,-3.322,-3.2862,-3.2807,-3.2968,-3.265,-3.3209,-3.4421,-3.4472,-3.4895,-3.5588,-3.5711,-3.5728,-3.5577,-3.5021,-3.4927,-3.4975,0.0,0.0,0.0,0.0,0.0,0.0,0.0,0.0,0.0,0.0,0.0,0.0,0.0,0.0,0.0,0.0,0.0,0.0,0.0,0.0,0.0,0.0,0.0,0.0,0.0,0.0,0.0,0.0,0.0,0.0,0.0,0.0,0.0,-4.2349,-4.3087,-4.2884,-4.1346,-4.2261,-4.1822,-3.8963,-3.9092,-3.89,-3.7571,-3.8003,-3.8093,-3.7449,-3.8018,-3.8078,-3.7464,-3.7434,-3.7449,-3.7464,-3.8108,-3.8422,-3.8437,-3.9095,-3.9424,-3.9424,-3.9424,-3.9424,-3.9379,-3.8706,-3.8422,-3.8377,-3.7734,-3.7479,-3.7404,-3.6776,-3.6507,-3.6432,-3.5804,-3.5549,-3.5534,0.0,0.0,0.0,0.0,0.0,0.0,0.0,-3.305,-3.3379,-3.3625,-3.3998,-3.4197,-3.4221,-3.4293,-3.434,-3.4427,-3.4495,-3.4649,-3.4963,-3.5144,-3.5364,-3.5686,-3.5521,-3.5219,-3.4775,-3.4634,-3.4284,-3.3707,-3.3032,-3.2743,-3.2788,-3.2645,-3.2753,-3.3138,-3.3852,-3.4563,-3.5078,-3.5262,-3.5588,-3.5888,-3.5739,-3.5694,-3.5694,0.0,0.0,0.0,0.0,0.0,0.0,0.0,0.0,0.0,0.0,0.0,0.0,0.0,0.0,0.0,0.0,0.0,0.0,0.0,0.0,0.0,0.0,0.0,0.0,0.0,0.0,0.0,0.0,0.0,0.0,0.0,-4.0456,-4.1971,-4.1667,-4.2649,-4.3071,-4.2078,-4.2252,-4.1825,-4.0388,-3.9846,-3.9404,-3.8984,-3.8182,-3.7805,-3.8213,-3.7843,-3.7808,-3.8108,-3.8123,-3.8362,-3.8871,-3.905,-3.914,-3.914,-3.9334,-3.9424,-3.9424,-3.9424,-3.9424,-3.9409,-3.9215,-3.914,-3.9125,-3.8945,-3.8942,-3.8948,-3.7668,-3.715,-3.7135,-3.6956,-3.6663,-3.6391,0.0,0.0,0.0,0.0,0.0,0.0,0.0,-3.297,-3.3273,-3.3734,-3.3947,-3.4074,-3.4197,-3.4173,-3.4197,-3.434,-3.434,-3.4498,-3.4831,-3.5153,-3.5449,-3.572,-3.5651,-3.5359,-3.4849,-3.4775,-3.4338,-3.3486,-3.3014,-3.2619,-3.2231,-3.2214,-3.2342,-3.2622,-3.3675,-3.4389,-3.4916,-3.56,-3.6011,-3.6233,-3.636,-3.6276,-3.6062,-3.6062,-3.6276,-3.6509,-3.6533,-3.6615,-3.6719,-3.6825,0.0,0.0,0.0,0.0,0.0,0.0,0.0,0.0,0.0,0.0,0.0,0.0,0.0,0.0,0.0,0.0,0.0,0.0,0.0,0.0,0.0,0.0,0.0,0.0,-4.0372,-4.1528,-4.0953,-4.2038,-4.2777,-4.2337,-4.2222,-4.1873,-4.1091,-4.0198,-3.9705,-3.9656,-3.8522,-3.8152,-3.8893,-3.8493,-3.8437,-3.8811,-3.8826,-3.902,-3.9424,-3.9424,-3.9424,-3.9424,-3.9424,-3.9424,-3.9424,-3.9424,-3.9424,-3.9424,-3.9424,-3.9424,-3.9424,-3.9424,-3.9553,-3.9576,0.0,0.0,0.0,0.0,-3.7451,-3.7268,0.0,0.0,0.0,0.0,0.0,0.0,0.0,-3.2781,-3.3014,-3.3606,-3.3734,-3.3868,-3.4099,-3.3972,-3.3972,-3.4179,-3.4105,-3.4274,-3.4753,-3.5215,-3.5565,-3.5742,-3.5701,-3.5446,-3.4947,-3.485,-3.4218,-3.2978,-3.2965,-3.2517,-3.1728,-3.1691,-3.1977,-3.2625,-3.3697,-3.4416,-3.4964,-3.6267,-3.6713,-3.6585,-3.6869,-3.669,-3.6293,-3.6335,-3.6574,-3.6978,-3.7058,-3.7152,-3.7303,-3.7613,0.0,0.0,0.0,0.0,0.0,0.0,0.0,0.0,0.0,0.0,0.0,0.0,0.0,0.0,0.0,0.0,0.0,0.0,0.0,0.0,0.0,0.0,0.0,0.0,-3.9633,-4.0497,-4.0337,-4.1392,-4.2168,-4.2168,-4.223,-4.1988,-4.1361,-4.061,-4.0096,-4.0142,-3.9267,-3.9039,-3.9704,-3.9561,0.0,0.0,0.0,-3.9424,-3.9424,-3.9424,-3.9424,-3.9424,-3.9424,-3.9424,-3.9424,-3.9424,-3.9424,-3.9424,-3.9409,-3.9409,-3.9424,-3.9496,-3.9553,-3.9707,-3.9118,-3.8946,-3.9078,-3.8485,-3.8211,-3.8135,0.0,0.0,0.0,0.0,0.0,0.0,0.0,-3.2654,-3.2858,-3.2983,-3.3447,-3.3707,-3.3504,-3.3662,-3.3762,-3.3588,-3.3797,-3.416,-3.4693,-3.5108,-3.5392,-3.5464,-3.5561,-3.546,-3.5158,-3.492,-3.4389,-3.3552,-3.3266,-3.2908,-3.2386,-3.2249,-3.2214,-3.2423,-3.391,-3.4664,-3.4853,-3.6352,-3.693,-3.6908,-3.697,-3.6948,-3.6851,-3.7091,-3.7226,-3.7339,-3.7506,-3.756,-3.7596,-3.7666,-3.7666,-3.7649,-3.7649,-3.7649,0.0,0.0,0.0,0.0,0.0,0.0,0.0,0.0,0.0,0.0,0.0,0.0,0.0,0.0,0.0,0.0,0.0,0.0,0.0,-3.8294,-3.9169,-3.9911,-4.04,-4.1086,-4.1545,-4.1424,-4.2419,-4.2853,-4.2063,-4.2354,-4.2561,-4.239,-4.1209,-4.0707,-4.1272,-4.0263,-3.9553,-3.9424,-3.9424,-3.9424,-3.9424,-3.9424,-3.9424,-3.9424,-3.9424,0.0,-3.9424,-3.9424,-3.9424,-3.9424,-3.9553,-3.9625,-3.961,-3.9854,-3.9996,-4.0191,-3.9844,-3.9798,-3.9783,-3.9856,-3.9512,-3.9023,0.0,0.0,0.0,0.0,0.0,0.0,0.0,-3.2606,-3.2719,-3.3001,-3.3332,-3.355,-3.355,-3.3707,-3.3815,-3.3805,-3.3979,-3.4302,-3.4813,-3.503,-3.5287,-3.5582,-3.5591,-3.5522,-3.5353,-3.5085,-3.454,-3.3695,-3.3478,-3.3105,-3.2636,-3.242,-3.2453,-3.283,-3.4421,-3.5099,-3.5119,-3.709,-3.7755,-3.7524,-3.779,-3.791,-3.7841,-3.7542,-3.7505,-3.7703,-3.8041,-3.8158,-3.8194,-3.8413,-3.84,-3.8245,-3.8245,-3.8245,-3.8245,0.0,0.0,0.0,0.0,0.0,0.0,0.0,0.0,0.0,0.0,0.0,0.0,0.0,0.0,-3.6502,-3.6502,0.0,-3.8163,-3.8453,-3.9468,-4.0418,-4.1077,-4.1681,-4.2005,-4.1867,-4.2797,-4.3389,-4.3404,-4.3346,-4.3426,-4.3647,-4.1997,-4.1245,-4.1804,-4.0615,-3.9768,-3.9711,-3.9625,-3.9553,-3.9553,-3.9409,-3.9424,-3.9424,-3.9481,-3.9553,-3.9553,-3.964,-3.9711,-3.9711,-3.9783,-3.9839,-3.9854,-4.0066,-4.0207,-4.0277,-4.0261,-4.0261,-4.0261,-4.0331,-4.0171,-3.9864,0.0,0.0,0.0,0.0,0.0,0.0,0.0,0.0,-3.2574,-3.305,-3.3172,-3.3321,-3.3578,-3.368,-3.3815,-3.4099,-3.4173,-3.439,-3.4832,-3.4925,-3.5168,-3.563,-3.5621,-3.5593,-3.5524,-3.5257,-3.4718,-3.3833,-3.3721,-3.3393,-3.2872,-3.2681,-3.2885,-3.3411,-3.4861,-3.5525,-3.5643,-3.7702,-3.8407,-3.819,-3.8626,-3.882,-3.8733,-3.8011,-3.7928,-3.8209,-3.8626,-3.8781,-3.8836,-3.92,-3.9165,-3.895,-3.895,-3.895,-3.8902,-3.8807,-3.8759,0.0,0.0,0.0,0.0,0.0,0.0,0.0,0.0,-3.7105,-3.7066,-3.7027,-3.6869,-3.6777,-3.6893,-3.7733,-3.8518,-3.875,-3.9853,-4.0875,-4.1518,-4.2261,-4.2706,-4.2567,-4.3206,-4.3893,-4.4519,-4.3948,-4.3814,-4.431,-4.2458,-4.1509,-4.2062,-4.0752,-4.0081,-4.0011,-3.9839,-3.9768,-3.9768,-3.964,-3.9496,-3.9496,-3.9696,-3.9768,-3.9768,-3.9925,-4.0011,-4.0011,-4.0066,-4.0066,-4.0137,-4.0261,-4.0331,-4.0347,-4.047,-4.0524,-4.0524,-4.0524,-4.0524,-4.0524,0.0,0.0,0.0,0.0,0.0,0.0,0.0,0.0,0.0,-3.2491,-3.2719,-3.2858,-3.2921,-3.3184,-3.3494,-3.3815,-3.3842,-3.3998,-3.4274,-3.4675,-3.4961,-3.5081,-3.548,-3.566,-3.5587,-3.5379,-3.4963,-3.431,-3.424,-3.3969,-3.3497,-3.366,-3.3784,-3.3943,-3.4768,-3.556,-3.6343,-3.7322,-3.8118,-3.8718,-3.8841,-3.886,-3.8822,-3.8952,-3.9036,-3.9073,-3.9313,-3.9408,-3.9408,-3.9458,-3.9433,-3.9408,-3.9408,-3.9408,-3.9408,-3.9408,-3.9279,-3.9064,-3.8789,-3.853,-3.8373,-3.8486,-3.8277,-3.8013,0.0,-3.7429,-3.722,-3.7027,-3.6987,-3.7119,-3.7614,-3.7791,-3.8244,-3.9399,-3.9715,-4.0112,-4.0888,-4.2068,-4.2809,-4.2706,-4.3736,-4.4485,-4.457,-4.4514,-4.4514,-4.457,-4.3152,-4.2316,-4.2269,-4.1024,-4.0207,-4.0011,-3.9996,-3.9996,-3.9996,-3.9925,-3.9925,-3.9925,-3.994,-3.9996,-3.9996,-3.9996,-4.0011,-4.0011,-4.0207,-4.0331,-4.047,-4.047,-4.0455,-4.0455,-4.0455,-4.0524,-4.0524,-4.0524,-4.0524,-4.0524,0.0,0.0,0.0,0.0,0.0,0.0,0.0,0.0,0.0,0.0,-3.2621,-3.2795,-3.2795,-3.3273,-3.3652,-3.3807,-3.3895,-3.4099,-3.4409,-3.4693,-3.4943,-3.517,-3.548,-3.5667,-3.571,-3.5553,-3.5268,-3.4811,-3.4696,-3.4488,-3.417,-3.4101,-3.4244,-3.4567,-3.5221,-3.5736,-3.6213,-3.7671,-3.8399,-3.8634,-3.9317,-3.9571,-3.9571,-3.9679,-3.9721,-3.9717,-3.9693,-3.9623,0.0,-3.9647,-3.9623,-3.9551,-3.9508,-3.9526,-3.9575,-3.958,-3.958,-3.9508,-3.9338,-3.9197,-3.909,-3.899,-3.873,-3.8405,-3.8065,-3.7756,-3.7503,-3.7354,-3.7259,-3.739,-3.8086,-3.8474,-3.8971,-3.9815,-4.0308,-4.0816,-4.1453,-4.2341,-4.3065,-4.3494,-4.4275,-4.4776,-4.4643,-4.4587,-4.4587,-4.4587,-4.3663,-4.3075,-4.3015,-4.2078,-4.1327,-4.0888,-4.0836,-4.0578,-4.0207,-4.0066,-4.0011,-4.0011,-4.0137,-4.0137,-4.0207,-4.0277,-4.0261,-4.0261,-4.0401,-4.047,-4.0524,-4.0524,-4.0524,-4.0524,-4.0524,-4.0524,-4.0524,-4.0524,-4.0524,-4.0524,0.0,0.0,0.0,0.0,0.0,0.0,0.0,0.0,0.0,0.0,0.0,-3.2734,-3.2795,-3.3302,-3.3707,-3.3788,-3.3921,-3.4124,-3.445,-3.4588,-3.4794,-3.5105,-3.5338,-3.5546,-3.5734,-3.5653,-3.5492,-3.5276,-3.513,-3.4994,-3.484,-3.4659,-3.4734,-3.5081,-3.5512,-3.5875,-3.6217,-3.7603,-3.8347,-3.8639,-3.9489,-3.9947,-4.0138,-4.0137,-4.0117,-4.0077,-3.9933,-3.9826,-3.9758,-3.9848,-3.9826,-3.9735,-3.967,-3.9712,-3.9758,-3.9804,-3.9804,-3.9762,-3.9785,-3.9717,-3.9623,-3.9383,-3.9045,-3.8681,-3.8405,-3.805,-3.7721,-3.7649,-3.7503,-3.764,-3.8323,-3.8982,-3.955,-4.0106,-4.0767,-4.1354,-4.1722,-4.227,-4.2927,-4.3666,-4.4369,-4.4756,-4.4703,-4.4682,-4.4626,-4.457,-4.3914,-4.3512,-4.3512,-4.2876,-4.2269,-4.1771,-4.1525,-4.1158,-4.0662,-4.0331,-4.0137,-4.0137,-4.0277,-4.0347,-4.0331,-4.047,-4.0524,-4.0524,-4.0524,-4.0524,-4.0524,-4.0524,-4.0524,-4.0524,-4.0524,-4.0524,-4.0524,-4.0524,-4.0646,-4.0904,0.0,0.0,0.0,0.0,0.0,0.0,0.0,0.0,0.0,0.0,0.0,0.0,0.0,-3.3124,-3.3437,-3.3762,-3.3753,-3.3834,-3.4099,-3.4237,-3.4423,-3.4714,-3.4966,-3.527,-3.5601,-3.5606,-3.5634,-3.5685,-3.5541,-3.5482,-3.5469,-3.5469,-3.5461,-3.5474,-3.5499,-3.5932,-3.6689,-3.6727,-3.7621,-3.899,-3.9084,-3.9563,-4.0196,-4.0196,-4.0157,-4.0117,-4.0077,-4.0096,-4.0096,-4.0096,-4.0096,-4.0077,-4.0077,-4.0077,-4.0096,-4.0096,-3.9911,-3.9739,-3.9954,-3.9804,-3.9623,-3.967,-3.9294,-3.8839,-3.873,-3.8267,-3.7864,-3.7703,-3.7703,-3.7827,-3.8327,-3.9045,-3.9741,-4.0305,-4.0857,-4.1209,-4.1226,-4.167,-4.2253,-4.2842,-4.3632,-4.4351,-4.491,-4.4886,-4.4737,-4.4626,-4.3914,-4.3512,-4.3512,-4.2876,-4.252,-4.2458,-4.1836,-4.1459,-4.1459,-4.0836,-4.0455,-4.0455,-4.0455,-4.0455,-4.0455,-4.0524,-4.0524,-4.0524,-4.0524,-4.0524,-4.0524,-4.0524,-4.0524,-4.0524,-4.0524,-4.0524,-4.0524,-4.0524,-4.0904,-4.1591,0.0,0.0,0.0,0.0,0.0,0.0,0.0,0.0,0.0,0.0,0.0,0.0,0.0,0.0,0.0,0.0,-3.3426,-3.3652,-3.3698,-3.4049,-3.4292,-3.4423,-3.4829,-3.5096,-3.5206,-3.5327,-3.5471,-3.5574,-3.5525,-3.5523,-3.5564,-3.5616,-3.558,-3.5499,-3.5553,-3.5718,-3.6009,-3.6585,-3.7127,-3.7643,-3.8152,-3.8877,-3.9576,-3.9517,-3.9811,-4.029,0.0,-4.0234,-4.0176,-4.0176,-4.0176,-4.0157,-4.0098,-4.0137,-4.0176,-4.0176,-4.0077,-3.9975,-4.0057,-4.0015,-3.9933,-3.9892,-3.9628,-3.9287,-3.8896,-3.8566,-3.8204,-3.7916,-3.7846,-3.8008,-3.8631,-3.895,-3.9363,-4.0027,-4.0207,-4.0279,-4.0334,-4.1067,-4.1681,-4.1886,-4.3289,-4.4285,-4.4386,-4.4741,-4.4923,-4.4886,-4.4575,-4.4333,-4.4333,-4.4047,-4.3486,-4.252,-4.2269,-4.1706,-4.0836,-4.0578,-4.0524,-4.0524,-4.0524,-4.0524,-4.0524,-4.0524,-4.0524,-4.0524,-4.0524,-4.0524,-4.0524,-4.0524,-4.0783,-4.1142,-4.1142,-4.1459,-4.1901,-4.2474,-4.2831,-4.297,0.0,0.0,0.0,0.0,0.0,0.0,0.0,0.0,0.0,0.0,0.0,0.0,0.0,0.0,0.0,0.0,0.0,-3.3368,-3.3296,-3.3768,-3.4068,-3.408,-3.4478,-3.4755,-3.4971,-3.5136,-3.5321,-3.5502,-3.5528,-3.5558,-3.5608,-3.5642,-3.5623,-3.5532,-3.5639,-3.5671,-3.5719,-3.6268,-3.6856,-3.7415,-3.7522,-3.8286,-3.9278,-3.8834,-3.9207,0.0,-3.9936,-4.0077,-4.0272,-4.0234,-4.0234,-4.0234,-4.0195,-4.0215,-4.0253,-4.0253,-4.0215,-4.0177,-4.0138,-4.0137,-4.0137,-4.0057,-3.9826,-3.9532,-3.9063,-3.877,-3.846,-3.8002,-3.7916,-3.8078,-3.8474,-3.8743,-3.902,-3.9308,-3.9678,-3.979,-3.9647,-4.0459,-4.1137,-4.1359,-4.2603,-4.3682,-4.413,-4.4507,-4.4795,-4.5015,-4.494,-4.4886,-4.4886,-4.4776,-4.4293,-4.3333,-4.3026,-4.2346,-4.1209,-4.1049,-4.093,-4.0836,-4.0578,-4.0524,-4.0524,-4.0524,-4.0524,-4.0524,-4.0524,-4.0662,-4.0836,-4.0836,-4.1276,-4.1836,-4.1836,-4.2141,-4.2645,-4.3229,-4.3469,-4.3512,0.0,0.0,0.0,0.0,0.0,0.0,0.0,0.0,0.0,0.0,0.0,0.0,0.0,0.0,0.0,0.0,0.0,0.0,-3.2934,-3.3476,-3.377,-3.3688,-3.3935,-3.4348,-3.4851,-3.499,-3.5207,-3.5485,-3.5546,-3.5573,-3.5619,-3.5612,-3.5612,-3.5619,-3.5758,-3.5804,-3.5816,-3.5813,-3.6727,-3.8097,-3.7133,-3.7754,-3.9182,-3.8201,-3.8364,-3.9112,-3.9112,-3.9668,-4.0379,-4.0325,-4.0308,-4.031,-4.0328,-4.0326,-4.0325,-4.0309,-4.0308,-4.0288,-4.0215,-4.0215,-4.0196,-4.0118,-3.9914,-3.9628,-3.9205,-3.8924,-3.8579,-3.8101,-3.7984,-3.7967,-3.7934,-3.8384,-3.8627,-3.8223,-3.9111,-3.9675,-3.9129,-3.9876,-4.0643,-4.124,-4.1711,-4.2561,-4.4027,-4.4234,-4.4475,-4.493,-4.5015,-4.5032,-4.5032,-4.4978,-4.494,-4.4776,-4.3937,-4.3185,-4.252,-4.2137,-4.1821,-4.1525,-4.0904,-4.0593,-4.0524,-4.0593,-4.0593,-4.0524,-4.0578,-4.0956,-4.1525,-4.1525,-4.1949,-4.2583,-4.2583,-4.2707,-4.2909,-4.2876,-4.2965,-4.3234,0.0,0.0,0.0,0.0,0.0,0.0,0.0,0.0,0.0,0.0,0.0,0.0,0.0,0.0,0.0,0.0,0.0,0.0,-3.3214,-3.3578,-3.3762,-3.3707,-3.3868,-3.4055,-3.4302,-3.4449,-3.4737,-3.5211,-3.5235,-3.5374,-3.5669,-3.5681,-3.5712,-3.5757,-3.5834,-3.5899,-3.5954,-3.5947,-3.6174,-3.6473,-3.6112,-3.6606,-3.7498,-3.7132,-3.7939,-3.9246,-3.9246,-3.9788,-4.0449,-4.0415,-4.0425,-4.0457,-4.0571,-4.0591,-4.0578,-4.0481,-4.0446,-4.0427,-4.0306,-4.0308,-4.0308,-4.0215,-4.0119,-3.9939,-3.9364,-3.92,-3.898,-3.8368,-3.8002,-3.781,-3.7967,-3.7536,-3.7294,-3.7607,-3.7922,-3.8147,-3.8285,-3.9089,-3.9815,-4.0239,-4.1103,-4.1933,-4.2526,-4.3613,-4.4354,-4.444,-4.4868,-4.514,-4.514,-4.5032,-4.4742,-4.4243,-4.3722,-4.328,-4.2876,-4.2794,-4.2502,-4.211,-4.1933,-4.1688,-4.1323,-4.1688,-4.1491,-4.0987,-4.1852,-4.1965,-4.1525,-4.2221,-4.2847,-4.3469,-4.3555,-4.3922,-4.4361,-4.3914,-4.3766,-4.3807,0.0,0.0,0.0,0.0,0.0,0.0,0.0,0.0,0.0,0.0,0.0,0.0,0.0,0.0,0.0,0.0,0.0,0.0,0.0,-3.3698,-3.391,-3.3828,-3.3986,-3.4148,-3.4316,-3.439,-3.4632,-3.5015,-3.5064,-3.5228,-3.5438,-3.5523,-3.5584,-3.5635,-3.5759,-3.5863,-3.5907,-3.5936,-3.6161,0.0,0.0,-3.6222,-3.6883,-3.6369,-3.7002,-3.82,-3.8584,-3.9518,-4.0583,-4.0534,-4.0568,-4.0597,-4.0688,-4.0721,-4.0699,-4.0557,-4.053,-4.0516,-4.0375,-4.0362,-4.0344,-4.0252,-4.0158,-3.9918,-3.9414,-3.9208,-3.898,-3.8401,-3.7967,-3.7739,-3.7792,-3.7321,-3.6921,-3.6801,-3.7182,-3.7486,-3.7496,-3.8432,-3.9206,-3.9627,-4.0392,-4.1036,-4.1511,-4.2466,-4.3151,-4.3477,-4.4629,-4.53,-4.53,-4.5194,-4.4961,-4.4524,-4.4367,-4.4198,-4.3939,-4.3317,-4.3015,-4.3031,-4.2785,-4.2474,-4.2237,-4.2474,-4.2237,-4.1688,-4.2537,-4.2645,-4.2348,-4.3015,-4.3506,-4.3844,-4.3956,-4.4028,-4.4042,-4.3718,-4.3632,-4.3632,0.0,0.0,0.0,0.0,0.0,0.0,0.0,0.0,0.0,0.0,0.0,0.0,0.0,0.0,0.0,0.0,0.0,0.0,0.0,0.0,0.0,0.0,-3.4242,-3.4431,-3.4626,-3.4632,-3.4754,-3.4963,-3.5083,-3.5146,-3.5178,-3.5364,-3.5418,-3.5451,-3.5628,-3.5754,-3.5827,-3.5885,-3.639,-3.703,-3.6149,-3.6223,-3.6716,0.0,0.0,-3.6834,-3.7815,-3.9185,-4.0539,-4.0655,-4.0715,-4.0742,-4.0742,-4.0791,-4.0791,-4.0604,-4.0578,-4.059,-4.0444,-4.0379,-4.0342,-4.0325,-4.0139,-3.9854,-3.9427,-3.9099,-3.8781,-3.8336,-3.788,-3.7523,-3.7469,-3.7283,-3.6882,-3.602,-3.6697,-3.7246,-3.697,-3.7885,-3.8755,-3.9335,-3.9661,-4.0085,-4.0759,-4.1119,-4.1596,-4.2241,-4.3973,-4.5112,-4.5268,-4.5268,-4.5267,-4.523,-4.5333,-4.5297,-4.5155,-4.3939,-4.3597,-4.4095,-4.3479,-4.318,-4.312,-4.318,-4.2953,-4.249,-4.3059,-4.3317,-4.341,-4.3822,-4.3961,-4.392,-4.3835,-4.3477,-4.2944,-4.2791,-4.2875,-4.3059,0.0,0.0,0.0,0.0,0.0,0.0,0.0,0.0,0.0,0.0,-3.447,-3.4405,0.0,0.0,0.0,0.0,0.0,0.0,0.0,0.0,0.0,0.0,-3.4473,-3.4597,-3.4696,-3.4794,-3.499,-3.5321,-3.535,-3.5438,-3.5608,-3.5558,-3.5589,-3.5651,-3.5743,-3.5815,-3.5895,-3.595,-3.6031,-3.6113,-3.5895,-3.5812,-3.5816,0.0,0.0,0.0,-3.8507,-3.9301,-3.9727,-4.0462,-4.081,-4.0948,-4.0948,-4.0986,-4.1008,-4.081,-4.0761,-4.0718,-4.0523,-4.0479,-4.0476,-4.0466,-4.0398,-4.0158,-3.9576,-3.9175,-3.8736,-3.815,-3.7414,-3.6921,-3.7111,-3.6474,-3.5898,-3.5907,-3.6214,-3.6582,-3.7003,-3.7748,-3.8565,-3.9299,-3.9435,-3.9573,-3.9795,-4.0486,-4.0959,-4.1093,-4.2274,-4.3425,-4.444,-4.4475,-4.4768,-4.5353,-4.5388,-4.5388,-4.5335,-4.5123,-4.4818,-4.458,-4.4468,-4.4226,-4.3839,-4.4226,-4.398,-4.3333,-4.4395,-4.4468,-4.3889,-4.4045,-4.4076,-4.4027,-4.3511,-4.3235,-4.3078,-4.2423,-4.2181,-4.2112,0.0,0.0,0.0,0.0,0.0,0.0,0.0,-3.6598,-3.6477,-3.6054,-3.593,-3.563,-3.4889,-3.4773,-3.4753,0.0,0.0,0.0,0.0,0.0,0.0,0.0,0.0,0.0,-3.5059,-3.5057,-3.5146,-3.5346,0.0,-3.5507,-3.5641,-3.5693,-3.5712,-3.5742,-3.5817,-3.5873,-3.5889,-3.597,-3.5976,-3.5955,-3.5879,-3.5762,0.0,0.0,0.0,0.0,0.0,-3.8568,-3.9456,-3.9843,-4.0378,-4.089,-4.089,-4.0921,-4.0928,-4.078,-4.0757,-4.0703,-4.0554,-4.0495,-4.0495,-4.0502,-4.0342,-4.0081,-3.9618,-3.9245,-3.8812,-3.815,-3.7487,-3.6943,-3.6781,-3.635,-3.5924,-3.5633,-3.5847,-3.6169,-3.6472,-3.7168,-3.7897,-3.8662,-3.8954,-3.9115,-3.9206,-3.9591,-3.9951,-4.0163,-4.0916,-4.1938,-4.3288,-4.358,-4.3871,-4.4234,-4.4251,-4.444,-4.482,-4.4837,-4.4922,-4.5069,-4.5069,-4.4961,-4.4725,-4.4944,-4.4504,-4.3614,-4.4416,-4.4141,-4.3247,-4.3528,-4.3356,-4.2961,-4.2699,-4.2319,-4.1988,-4.1561,-4.1405,-4.1371,0.0,0.0,0.0,0.0,0.0,0.0,0.0,-3.828,-3.8062,-3.7369,-3.7272,-3.6794,-3.5473,-3.5138,-3.4975,0.0,0.0,0.0,0.0,0.0,0.0,0.0,0.0,0.0,0.0,0.0,0.0,-3.5398,-3.5507,0.0,0.0,0.0,0.0,0.0,-3.5844,-3.5892,-3.5901,-3.5951,-3.5971,0.0,0.0,-3.5787,0.0,0.0,0.0,0.0,0.0,-3.761,-3.8865,-3.9187,-3.9831,-4.0507,-4.0682,-4.0771,-4.0791,-4.0711,-4.0694,-4.0668,-4.0534,-4.0511,-4.0499,-4.0499,-4.0251,-3.9943,-3.9599,-3.9238,-3.8773,-3.8032,-3.7524,-3.702,-3.6416,-3.6308,-3.6097,-3.5412,-3.556,-3.5842,-3.599,-3.6506,-3.7151,-3.7975,-3.8339,-3.8641,-3.8733,-3.886,-3.9077,-3.9401,-3.9952,-4.0899,-4.233,-4.2943,-4.3264,-4.3214,-4.3214,-4.3508,-4.4044,-4.4044,-4.4354,-4.4941,-4.4941,-4.4941,-4.4941,-4.4941,-4.4387,-4.3541,-4.3924,-4.3546,-4.2671,-4.2875,-4.2543,-4.1974,-4.1819,-4.1436,-4.0965,-4.0965,-4.1012,-4.1059,0.0,0.0,0.0,0.0,0.0,0.0,0.0,-3.8306,-3.8266,-3.819,-3.8174,-3.7834,-3.6913,-3.6095,-3.5621,0.0,0.0,0.0,0.0,0.0,0.0,0.0,0.0,0.0,0.0,0.0,0.0,-3.5758,-3.5708,0.0,0.0,0.0,0.0,0.0,0.0,-3.5834,-3.5902,-3.5912,0.0,0.0,0.0,0.0,0.0,0.0,0.0,0.0,0.0,-3.6796,-3.7194,-3.8772,-3.9364,-3.9572,-4.0303,-4.0636,-4.0791,-4.0711,-4.0694,-4.0668,-4.0534,-4.0489,-4.0508,-4.0508,-4.0304,-4.0002,-3.9668,-3.9096,-3.8425,-3.7703,-3.7228,-3.6741,-3.6131,-3.6062,-3.5888,-3.5383,-3.5337,-3.5496,-3.5942,-3.6059,-3.6505,-3.7597,-3.7773,-3.803,-3.8551,-3.8616,-3.8711,-3.8843,-3.9697,-4.0776,-4.1995,-4.293,-4.3395,-4.3232,-4.3214,-4.3249,-4.3318,-4.3318,-4.337,-4.3371,-4.3371,-4.3371,-4.3371,-4.3371,-4.3337,-4.3217,-4.3268,-4.3233,-4.3062,-4.2388,-4.2061,-4.1923,-4.125,-4.1064,-4.1163,-4.1163,-4.1318,-4.1515,0.0,0.0,0.0,0.0,0.0,0.0,-3.9994,-3.9994,-3.98,-3.9276,-3.9199,-3.8848,-3.7886,-3.746,-3.6845,-3.5791,0.0,0.0,0.0,0.0,0.0,0.0,0.0,0.0,0.0,0.0,-3.5799,-3.5684,-3.5682,0.0,0.0,0.0,0.0,0.0,0.0,-3.5633,-3.5762,-3.5657,0.0,0.0,0.0,0.0,0.0,0.0,0.0,0.0,0.0,0.0,-3.6561,-3.7266,-3.8148,-3.8991,-3.9316,-3.9715,-4.013,-4.0477,-4.0593,-4.0579,-4.0519,-4.0489,-4.0473,-4.0339,-4.0251,-4.0002,-3.9383,-3.8952,-3.8407,-3.7506,-3.7094,-3.6719,-3.6088,-3.6019,-3.5739,-3.4897,-3.4754,-3.4643,-3.4374,-3.4948,-3.5605,-3.6072,-3.7147,-3.7908,-3.8025,-3.8449,-3.886,-3.9115,-3.9902,-4.0585,-4.125,-4.1816,-4.2084,-4.2007,-4.1719,-4.1943,-4.2718,-4.2408,-4.2532,-4.3214,-4.3214,-4.3214,-4.3214,-4.3214,-4.2973,-4.2506,-4.267,-4.2441,-4.1973,-4.1801,-4.1789,-4.1754,-4.1457,-4.1363,-4.1453,-4.1453,-4.1498,-4.1604,0.0,0.0,0.0,0.0,0.0,-4.1699,-4.1459,-4.1371,-4.1022,-4.0174,-4.0072,-3.9705,-3.8721,-3.8636,-3.8029,-3.654,-3.6191,0.0,0.0,0.0,0.0,0.0,0.0,0.0,0.0,0.0,-3.5578,-3.5392,-3.5412,-3.5427,0.0,0.0,-3.5427,-3.5463,0.0,0.0,0.0,0.0,0.0,0.0,0.0,0.0,0.0,0.0,0.0,0.0,0.0,0.0,0.0,0.0,0.0,-3.8267,-3.8533,-3.9072,-3.969,-4.0138,-4.0319,-4.0389,-4.0408,-4.0457,-4.0457,-4.0251,-4.012,-3.988,-3.9152,-3.8773,-3.8282,-3.7377,-3.7017,-3.6719,-3.6088,-3.5871,-3.5481,-3.4642,-3.4333,-3.3953,-3.3355,-3.3994,-3.4655,-3.4985,-3.6434,-3.7511,-3.7761,-3.8487,-3.9115,-3.9575,-4.0003,-4.04,-4.0659,-4.0849,-4.1053,-4.13,-4.0836,-4.1112,-4.2137,-4.1791,-4.1971,-4.2736,-4.2736,-4.2736,-4.2736,-4.2736,-4.2423,-4.1886,-4.2091,-4.1823,-4.1346,-4.1498,-4.1604,-4.1604,-4.1604,-4.1648,-4.1675,-4.1675,-4.1736,-4.1823,0.0,0.0,0.0,0.0,0.0,0.0,-4.2298,-4.2023,-4.1613,-4.0796,-4.0687,-4.0346,-3.9475,-3.9398,-3.903,-3.8148,-3.7346,0.0,0.0,0.0,0.0,0.0,0.0,0.0,0.0,0.0,-3.5162,-3.4908,-3.4833,-3.4804,-3.48,-3.4737,-3.4774,-3.4907,0.0,0.0,0.0,0.0,0.0,0.0,0.0,0.0,0.0,0.0,0.0,0.0,0.0,0.0,0.0,0.0,0.0,0.0,0.0,-3.8961,-3.9622,-3.9687,-3.9901,-4.012,-4.0196,-4.0339,-4.0457,-4.0251,-3.9943,-3.9576,-3.9117,-3.8603,-3.8013,-3.7321,-3.7017,-3.6719,-3.6088,-3.5571,-3.5098,-3.4739,-3.4086,-3.3547,-3.3423,-3.3319,-3.3625,-3.4764,-3.554,-3.6551,-3.7867,-3.8805,-3.9504,-3.9952,-4.0003,-4.0103,-4.04,-4.04,-4.0754,-4.156,-4.1053,-4.1053,-4.1604,-4.1604,-4.1622,-4.1639,-4.1639,-4.1639,-4.1639,-4.1639,-4.1622,-4.1604,-4.1622,-4.1604,-4.1604,-4.1604,-4.1604,-4.1604,-4.1604,-4.1719,-4.1892,-4.1892,-4.2061,-4.2287,0.0,0.0,0.0,0.0,0.0,0.0,0.0,-4.2826,-4.2712,-4.2441,-4.2402,-4.2184,-4.1581,-4.1184,-4.0447,-3.9083,-3.8214,0.0,0.0,0.0,0.0,0.0,0.0,0.0,0.0,0.0,-3.4861,-3.468,-3.4718,-3.4737,-3.4718,-3.4716,-3.4716,-3.4756,-3.4561,-3.4609,0.0,0.0,0.0,0.0,0.0,0.0,-3.4715,0.0,0.0,0.0,0.0,0.0,0.0,0.0,0.0,0.0,0.0,0.0,0.0,-3.8859,-3.9402,-3.9775,-3.9797,-3.984,-3.9861,-3.9702,-3.9314,-3.8906,-3.848,-3.7841,-3.7285,-3.6913,-3.6673,-3.6266,-3.5599,-3.5328,-3.483,-3.3716,-3.3355,-3.2986,-3.2413,-3.2602,-3.2881,-3.3154,-3.4494,-3.5935,-3.7357,-3.8089,-3.8788,-3.9451,-3.9504,-3.9696,-4.0103,-3.9833,-3.9986,-4.0754,-4.0286,-4.0286,-4.0802,-4.0802,-4.0849,-4.1053,-4.1408,-4.1604,-4.1604,-4.1604,-4.1604,-4.1604,-4.1762,-4.1805,-4.1805,-4.1977,-4.2079,-4.2079,-4.2079,-4.2121,-4.2187,-4.2187,-4.2246,-4.2287,0.0,0.0,0.0,0.0,0.0,0.0,0.0,-4.3551,-4.3384,-4.3096,-4.3057,-4.2883,-4.2482,-4.2125,-4.1489,-4.044,-3.9561,0.0,0.0,0.0,0.0,0.0,0.0,0.0,0.0,-3.5461,-3.5327,-3.5008,-3.5058,-3.4989,-3.4851,-3.4851,-3.4851,-3.4858,-3.4408,-3.433,0.0,0.0,0.0,0.0,0.0,0.0,-3.4024,0.0,0.0,0.0,0.0,0.0,0.0,0.0,0.0,0.0,0.0,0.0,0.0,0.0,-3.8566,-3.8795,-3.9156,-3.9327,-3.9308,-3.9007,-3.8659,-3.8327,-3.7929,-3.7377,-3.69,-3.6725,-3.6377,-3.5924,-3.5311,-3.4941,-3.4301,-3.3235,-3.2841,-3.2437,-3.1996,-3.2135,-3.2435,-3.2848,-3.4304,-3.5808,-3.7161,-3.7834,-3.8495,-3.9218,-3.9272,-3.9415,-3.9731,-3.9451,-3.952,-3.9986,-3.9885,-4.0037,-4.0563,-4.0546,-4.0642,-4.0802,-4.1146,-4.1391,-4.1569,-4.1569,-4.1675,-4.1866,-4.1788,-4.1874,0.0,-4.2002,-4.2103,-4.2287,-4.2287,-4.2287,-4.2287,-4.2287,-4.2287,-4.2287,0.0,0.0,0.0,0.0,0.0,0.0,0.0,-4.4173,-4.3784,-4.3021,-4.2926,-4.2783,-4.2461,-4.2385,-4.2227,-4.1957,0.0,0.0,0.0,0.0,0.0,0.0,0.0,0.0,-3.6552,-3.6552,-3.626,-3.5698,-3.5698,-3.5486,-3.5081,-3.5081,-3.5116,-3.513,-3.4449,-3.4157,0.0,0.0,0.0,0.0,0.0,0.0,0.0,0.0,0.0,0.0,0.0,0.0,0.0,0.0,0.0,0.0,0.0,0.0,0.0,0.0,0.0,0.0,0.0,-3.8711,-3.8739,-3.8217,-3.7998,-3.7819,-3.7451,-3.7094,0.0,-3.6684,-3.6191,-3.5677,-3.5237,-3.4464,-3.3681,-3.3251,-3.2547,-3.2109,-3.2191,-3.194,-3.2224,-3.3429,-3.4588,-3.5784,-3.7025,-3.7737,-3.843,-3.9148,-3.9218,-3.9272,-3.9272,-3.9325,-3.9325,-3.9325,-3.9731,-4.0203,-4.0707,-4.0707,-4.0754,-4.0754,-4.0802,-4.1036,-4.1428,-4.1472,-4.1727,-4.2187,-4.1709,-4.1813,-4.2246,-4.177,-4.1856,-4.2328,-4.2328,-4.2328,-4.2328,-4.2328,-4.2328,-4.2328,0.0,0.0,0.0,0.0,0.0,0.0,0.0,0.0,0.0,0.0,-4.4007,-4.392,-4.3631,-4.3202,-4.2726,0.0,0.0,0.0,0.0,0.0,0.0,0.0,0.0,0.0,-3.6142,-3.6142,-3.5915,-3.5472,-3.5472,-3.5252,-3.4801,-3.4801,-3.4801,-3.4818,-3.4659,-3.4234,0.0,0.0,0.0,0.0,0.0,0.0,0.0,0.0,0.0,0.0,-3.2713,-3.2763,0.0,0.0,0.0,0.0,0.0,0.0,0.0,0.0,-3.7106,-3.687,-3.7029,0.0,-3.7698,-3.7718,-3.7434,-3.7155,0.0,-3.6741,-3.6409,-3.6402,-3.6088,-3.5616,-3.5035,-3.448,-3.3933,-3.3081,-3.2827,-3.2554,-3.2262,-3.194,-3.1902,-3.2209,-3.2901,-3.3891,-3.519,-3.5996,-3.6975,-3.8124,-3.8639,-3.8914,-3.8914,-3.9362,-3.9625,-3.9625,-3.9713,-3.9713,-3.9661,-4.002,-4.0203,-4.0203,-4.0594,-4.0849,-4.099,-4.1065,-4.1174,-4.1311,-4.1666,-4.1881,-4.2026,-4.2251,-4.2432,-4.253,-4.253,-4.253,-4.253,-4.253,-4.253,-4.253,0.0,0.0,0.0,0.0,0.0,0.0,0.0,0.0,0.0,0.0,0.0,-4.4289,-4.4017,-4.3632,0.0,0.0,0.0,0.0,0.0,0.0,0.0,0.0,0.0,-3.7127,-3.6566,-3.6566,-3.6343,-3.5951,-3.5951,-3.5711,-3.531,-3.531,-3.531,-3.5292,-3.4944,-3.437,0.0,0.0,0.0,0.0,-3.2826,0.0,0.0,0.0,0.0,0.0,-3.3354,-3.3424,0.0,-3.3424,-3.3424,-3.3618,0.0,0.0,0.0,0.0,-3.6516,-3.6184,-3.6232,-3.6603,-3.6943,-3.6865,-3.6661,-3.6516,-3.6539,-3.635,-3.6174,-3.6174,-3.5783,-3.5316,-3.48,-3.435,-3.3745,-3.2812,-3.2812,-3.2742,-3.216,-3.2007,-3.1796,-3.1409,-3.1916,-3.2721,-3.3875,-3.4697,-3.5607,-3.6862,-3.7229,-3.7449,-3.7449,-3.8002,-3.8498,-3.8847,-3.9072,-3.9291,-3.9468,-3.9747,-3.9885,-3.9885,-4.0137,-4.0434,-4.0611,-4.0689,-4.0849,-4.11,-4.1157,-4.1455,-4.1881,-4.1692,-4.1864,-4.2292,-4.2292,-4.2169,-4.1984,-4.2432,-4.2472,-4.2292,0.0,0.0,0.0,0.0,0.0,0.0,0.0,0.0,0.0,0.0,0.0,0.0,0.0,0.0,0.0,0.0,0.0,0.0,0.0,0.0,0.0,0.0,0.0,-3.8577,-3.7506,-3.7382,-3.7136,-3.6713,-3.6609,-3.635,-3.5932,-3.5888,-3.5827,-3.581,-3.518,-3.4491,0.0,0.0,-3.3854,-3.3769,-3.3448,0.0,0.0,0.0,0.0,0.0,0.0,0.0,0.0,-3.4265,-3.4265,-3.4405,-3.5227,0.0,0.0,0.0,0.0,0.0,-3.5728,-3.6088,-3.635,-3.6045,-3.6019,-3.6019,-3.6019,-3.6019,-3.5975,-3.5871,-3.5424,-3.493,-3.4593,-3.4068,-3.3382,-3.2672,-3.2726,-3.2602,-3.1946,-3.1905,-3.1694,-3.0955,-3.141,-3.2064,-3.2993,-3.3658,-3.4434,-3.5435,-3.5671,-3.5726,-3.5726,-3.6296,-3.6921,-3.7544,-3.81,-3.8672,-3.9274,-3.956,-3.9677,-3.9677,-3.9677,-3.9901,-4.0302,-4.0319,-4.0563,-4.0977,-4.0611,-4.0955,-4.1648,-4.0908,-4.1094,-4.1966,-4.1966,-4.1709,-4.1463,-4.2251,-4.2292,-4.2008,0.0,0.0,0.0,0.0,0.0,0.0,0.0,0.0,0.0,0.0,0.0,0.0,0.0,0.0,0.0,0.0,0.0,0.0,0.0,0.0,0.0,-4.0253,-3.9582,-3.9118,-3.8789,-3.8181,-3.7703,-3.7275,-3.6636,-3.6131,-3.5667,-3.5224,-3.4958,-3.4958,-3.4858,-3.4631,-3.4421,-3.4918,-3.4798,-3.4248,-3.4681,0.0,0.0,0.0,0.0,0.0,0.0,0.0,0.0,-3.3212,-3.3212,-3.3363,-3.4199,0.0,0.0,0.0,0.0,0.0,-3.5537,-3.5611,-3.5728,-3.5932,-3.6019,-3.6019,-3.6019,-3.6019,-3.5871,-3.5436,-3.4958,-3.4593,-3.4382,-3.3797,-3.3309,-3.3187,-3.2578,-3.2023,-3.1595,-3.1495,-3.1394,-3.1219,-3.1308,-3.1649,-3.2363,-3.2883,-3.348,-3.4206,-3.4992,-3.5443,-3.5443,-3.6013,-3.6381,-3.6548,-3.7065,-3.7386,-3.7502,-3.8938,-3.9677,-3.9677,-3.9677,-3.9729,-3.9816,-3.9918,-4.0037,-4.0138,-4.0531,-4.0849,-4.099,-4.123,-4.1674,-4.2157,-4.2157,-4.2115,-4.2074,-4.2216,-4.2216,-4.2216,0.0,0.0,0.0,0.0,0.0,0.0,0.0,0.0,0.0,0.0,0.0,0.0,0.0,0.0,0.0,0.0,0.0,0.0,0.0,0.0,0.0,-4.0652,-4.0078,-3.9325,-3.8487,-3.8126,-3.7865,-3.7672,-3.7331,-3.7024,-3.681,-3.6285,-3.5761,-3.5324,-3.5324,-3.5426,-3.5594,-3.5527,-3.5711,-3.5976,0.0,0.0,0.0,0.0,0.0,0.0,0.0,0.0,0.0,0.0,-3.4253,-3.432,-3.4688,0.0,0.0,0.0,0.0,0.0,-3.54,-3.54,-3.5429,-3.5594,-3.5711,-3.5694,-3.5328,-3.522,-3.5081,-3.4479,-3.4087,-3.3751,-3.3511,-3.2809,-3.2095,-3.1585,-3.1201,-3.0899,-3.077,-3.0952,-3.1029,-3.0687,-3.0642,-3.0878,-3.1411,-3.1679,-3.2034,-3.2628,-3.302,-3.3419,-3.377,-3.434,-3.4977,-3.5695,-3.6256,-3.6705,-3.7119,-3.7885,-3.8438,-3.8706,-3.8706,-3.8925,-3.9345,-3.9396,-3.9615,-4.0037,-4.0303,-4.058,-4.0802,-4.0737,-4.1001,-4.1455,-4.1455,-4.1276,-4.1094,-4.1366,-4.176,-4.2239,0.0,0.0,0.0,0.0,0.0,0.0,0.0,0.0,0.0,0.0,0.0,0.0,0.0,0.0,0.0,0.0,0.0,0.0,0.0,0.0,-4.0926,-4.0802,-4.0434,-3.9628,-3.8447,-3.8261,-3.8159,-3.8159,-3.7812,-3.7467,-3.7153,-3.6713,-3.6173,-3.5561,-3.5561,-3.5931,-3.647,-3.6037,-3.6476,-3.7362,0.0,0.0,0.0,0.0,0.0,0.0,0.0,0.0,0.0,0.0,0.0,0.0,0.0,0.0,0.0,-3.5198,-3.5198,-3.5165,-3.5027,-3.4994,-3.4944,-3.4668,-3.5098,-3.5328,-3.4521,-3.4329,-3.4087,-3.3134,-3.2677,-3.231,-3.2044,-3.1359,-3.0632,-2.9946,-2.9896,-3.0013,-3.0075,-3.05,-3.0644,-3.0219,-3.0172,-3.0355,-3.0702,-3.0821,-3.0984,-3.1379,-3.148,-3.1709,-3.216,-3.2571,-3.3345,-3.4482,-3.5065,-3.5695,-3.6389,-3.6506,-3.6986,-3.7858,-3.7858,-3.8193,-3.8814,-3.8814,-3.912,-3.9662,-3.9662,-3.9976,-4.0466,-4.0097,-4.0297,-4.0849,-4.0849,-4.0628,-4.0303,-4.0676,-4.123,-4.1888,0.0,0.0,0.0,0.0,0.0,0.0,0.0,0.0,0.0,0.0,0.0,0.0,0.0,0.0,0.0,0.0,0.0,0.0,0.0,0.0,-4.1276,-4.0802,-4.0642,-4.0366,-3.9968,-3.9259,-3.892,-3.892,-3.7486,-3.6194,-3.5049,-3.4992,-3.4935,-3.4878,-3.4878,-3.5451,-3.6508,-3.6435,-3.6816,-3.7446,-3.7915,0.0,0.0,0.0,0.0,0.0,0.0,0.0,0.0,0.0,0.0,0.0,0.0,0.0,-3.4947,-3.4947,-3.4947,-3.4797,-3.4255,-3.4101,-3.3844,-3.2859,-3.3964,-3.4998,-3.3752,-3.3494,-3.3013,-3.1363,-3.0516,-3.0068,-2.9879,-2.9535,-2.923,-2.9247,-2.9493,-2.9725,-3.0076,-3.0237,-3.0312,-3.0312,-3.0447,-3.0582,-3.0628,-3.0851,-3.1029,-3.1029,-3.1306,-3.1537,-3.1537,-3.1595,-3.1894,-3.257,-3.3118,-3.369,-3.4297,-3.4807,-3.5937,-3.7696,-3.7696,-3.7905,-3.8252,-3.8252,-3.8286,-3.8338,-3.8338,-3.8794,-3.9508,-3.946,-4.0075,-4.099,-4.099,-4.0896,-4.0754,-4.0802,-4.0849,-4.0972,0.0,0.0,0.0,0.0,0.0,0.0,0.0,0.0,0.0,0.0,0.0,0.0,0.0,0.0,0.0,0.0,0.0,0.0,0.0,-4.0563,-4.0434,-4.0254,-4.0104,-4.0003,-3.9867,-3.9564,-3.9429,-3.9429,-3.8424,-3.7326,-3.6141,-3.6141,-3.5842,-3.537,-3.537,-3.5738,-3.6395,-3.6061,-3.6672,-3.7905,-3.7301,-3.739,0.0,0.0,0.0,0.0,0.0,0.0,0.0,0.0,-3.4899,-3.4899,-3.4899,-3.4899,-3.4899,-3.4899,-3.4568,-3.4154,-3.3918,-3.3549,-3.3072,-3.2566,-3.282,-3.2834,-3.1803,-3.1262,-3.0763,-2.9894,-2.9064,-2.8251,-2.7626,-2.7201,-2.6931,-2.6719,-2.7507,-2.8319,-2.8765,-2.9597,-3.0021,-2.9685,-3.019,-3.0447,-3.0007,-3.0433,-3.0747,-3.0747,-3.0866,-3.1087,-3.148,-3.148,-3.1766,-3.2398,-3.2949,-3.3303,-3.3527,-3.4118,-3.4873,-3.5824,-3.5921,-3.6377,-3.7127,-3.6939,-3.7334,-3.8213,-3.7997,-3.8167,-3.8657,-3.8657,-3.8888,-3.9318,-3.9817,-4.0233,-4.0597,-4.0597,-4.0789,-4.11,0.0,0.0,0.0,0.0,0.0,0.0,0.0,0.0,0.0,0.0,0.0,0.0,0.0,0.0,0.0,0.0,0.0,0.0,-3.9969,-3.9884,-3.9849,-3.9849,-3.9694,-3.9642,-3.9642,-3.959,-3.9504,-3.9365,-3.8469,-3.7499,-3.643,-3.643,-3.618,-3.5653,-3.5653,-3.607,-3.6662,-3.6022,-3.6599,-3.7866,-3.6933,-3.6964,0.0,0.0,0.0,0.0,0.0,0.0,0.0,0.0,-3.4899,-3.4899,-3.4899,-3.4899,-3.4899,-3.4899,-3.4535,-3.4038,-3.3574,-3.3061,-3.2475,-3.1745,-3.1359,-3.0831,-2.979,-2.9438,-2.9132,-2.8385,-2.7315,-2.627,-2.5495,-2.5122,-2.4925,-2.4945,-2.5824,-2.6772,-2.7694,-2.8624,-2.9163,-2.9233,-2.9685,-2.9732,-2.9282,-2.967,-3.0054,-3.0251,-3.0251,-3.0553,-3.1204,-3.1204,-3.148,-3.2104,-3.2461,-3.2772,-3.2986,-3.3387,-3.3713,-3.4068,-3.4267,-3.4954,-3.6055,-3.5835,-3.631,-3.7267,-3.7144,-3.7373,-3.7792,-3.7917,-3.81,-3.8345,-3.9084,-3.9699,-4.0161,-4.0383,-4.071,-4.0977,0.0,0.0,0.0,0.0,0.0,0.0,0.0,0.0,0.0,0.0,0.0,0.0,0.0,0.0,0.0,0.0,0.0,0.0,-3.9729,-3.9677,-3.9677,-3.9677,-3.959,-3.9501,-3.9501,-3.9379,-3.9115,-3.869,-3.7291,-3.6228,-3.5504,-3.5504,-3.5504,-3.5504,-3.5504,-3.6211,-3.737,-3.6662,-3.6679,-3.7187,-3.7187,-3.675,-3.6173,0.0,0.0,0.0,0.0,0.0,0.0,0.0,-3.4899,-3.4899,-3.4899,-3.4899,-3.4899,-3.4899,-3.4883,-3.4551,-3.3077,-3.2574,-3.2048,-3.0061,-2.9544,-2.9182,-2.7978,-2.8379,-2.8447,-2.6664,-2.5148,-2.4092,-2.3675,-2.3399,-2.3552,-2.4368,-2.458,-2.5336,-2.7247,-2.7296,-2.7651,-2.8939,-2.8712,-2.8478,-2.8478,-2.8478,-2.8812,-2.9532,-2.9594,-2.9856,-3.0553,-3.0553,-3.0837,-3.148,-3.148,-3.1864,-3.2586,-3.2437,-3.2437,-3.2586,-3.2986,-3.3903,-3.5178,-3.5178,-3.5178,-3.5224,-3.5633,-3.6191,-3.6899,-3.7325,-3.7816,-3.8437,-3.9115,-3.9375,-3.9477,-4.0195,-4.0517,-4.0534,0.0,0.0,0.0,0.0,0.0,0.0,0.0,0.0,0.0,0.0,0.0,0.0,0.0,0.0,0.0,0.0,0.0,0.0,-3.9729,-3.959,-3.9537,-3.9537,-3.9432,-3.9379,-3.9379,-3.8439,-3.7895,-3.7806,-3.7338,-3.66,-3.5504,-3.5504,-3.5504,-3.5504,-3.5359,-3.5604,-3.6054,-3.5629,-3.5885,-3.6492,-3.5819,-3.5675,-3.5824,0.0,0.0,0.0,0.0,0.0,0.0,0.0,0.0,0.0,-3.4643,-3.4594,-3.4594,-3.4594,-3.3935,-3.3064,-3.2619,-3.1792,-3.0843,-3.0201,-2.9705,-2.9332,-2.8904,-2.8118,-2.6943,-2.5258,-2.4509,-2.4002,-2.3569,-2.3005,-2.2896,-2.3542,-2.3763,-2.4253,-2.5402,-2.5981,-2.6298,-2.6433,-2.6885,-2.701,-2.6648,-2.7085,-2.7469,-2.7652,-2.7726,-2.7848,-2.8148,-2.8519,-2.9072,-2.9739,-3.055,-3.1268,-3.1962,-3.2367,-3.2547,-3.2586,-3.2788,-3.3391,-3.4202,-3.435,-3.4754,-3.5333,-3.5102,-3.5358,-3.5881,-3.6168,-3.6877,-3.7792,-3.7988,-3.8711,-3.964,-3.9864,-4.0311,-4.0776,0.0,0.0,0.0,0.0,0.0,0.0,0.0,0.0,0.0,0.0,0.0,0.0,0.0,0.0,0.0,0.0,0.0,0.0,0.0,-3.9484,-3.9448,-3.9448,-3.9325,-3.9272,-3.9202,-3.8141,-3.7413,-3.7191,-3.6845,-3.6258,-3.5504,-3.5439,-3.5359,-3.5359,-3.5148,-3.5459,-3.6039,-3.5585,-3.5779,-3.6373,-3.5485,-3.5179,-3.5268,0.0,0.0,0.0,0.0,0.0,0.0,0.0,0.0,0.0,-3.4546,-3.4497,-3.4497,-3.4546,-3.4112,-3.347,-3.289,-3.2207,-3.1433,-3.0642,-3.0097,-2.9673,-2.9319,-2.7936,-2.6289,-2.4881,-2.4279,-2.3767,-2.3005,-2.2384,-2.2051,-2.22,-2.2366,-2.2832,-2.3779,-2.443,-2.4874,-2.509,-2.5508,-2.566,-2.5358,-2.5785,-2.6158,-2.6451,-2.6451,-2.6648,-2.701,-2.7426,-2.7844,-2.8208,-2.8929,-2.9563,-3.0088,-3.0345,-3.0761,-3.1328,-3.1591,-3.2207,-3.3077,-3.3423,-3.4002,-3.4706,-3.4835,-3.5118,-3.547,-3.565,-3.6232,-3.7042,-3.7335,-3.833,-3.9572,-3.9794,-4.0337,-4.1012,0.0,0.0,0.0,0.0,0.0,0.0,0.0,0.0,0.0,0.0,0.0,0.0,0.0,0.0,0.0,0.0,0.0,0.0,0.0,0.0,-3.9272,-3.9272,-3.9272,-3.9148,-3.8914,-3.8181,-3.7472,-3.6829,-3.5958,-3.5504,-3.5439,-3.5294,-3.5148,-3.5148,-3.5067,-3.5672,-3.6783,-3.6094,-3.611,-3.6558,-3.5807,-3.5086,-3.4497,-3.4497,0.0,0.0,0.0,0.0,0.0,0.0,0.0,0.0,-3.4448,-3.4448,-3.4497,-3.4594,-3.4941,-3.497,-3.3625,-3.3313,-3.2988,-3.1221,-3.0543,-3.0081,-2.9303,-2.7902,-2.6409,-2.5329,-2.4368,-2.3505,-2.2408,-2.1741,-2.1187,-2.0782,-2.0752,-2.1156,-2.2472,-2.2731,-2.3256,-2.4404,-2.4375,-2.4295,-2.436,-2.44,-2.4696,-2.5366,-2.5415,-2.5664,-2.6412,-2.6652,-2.6799,-2.6854,-2.7138,-2.7343,-2.7603,-2.7398,-2.7959,-2.9246,-2.9666,-3.0532,-3.1732,-3.2446,-3.314,-3.3761,-3.4594,-3.5228,-3.5577,-3.5577,-3.5827,-3.6327,-3.7042,-3.8061,-3.9203,-3.9818,-4.0478,-4.1122,0.0,0.0,0.0,0.0,0.0,0.0,0.0,0.0,0.0,0.0,0.0,0.0,0.0,0.0,0.0,0.0,0.0,0.0,0.0,0.0,-3.9023,-3.8914,-3.8914,-3.8694,-3.8173,-3.7985,-3.731,-3.6102,-3.5928,-3.5559,-3.5001,-3.5001,-3.4935,-3.5001,-3.5379,-3.5737,-3.6089,-3.5696,-3.5721,-3.5824,-3.4931,-3.448,-3.4349,-3.4349,-3.4349,0.0,0.0,0.0,0.0,0.0,0.0,0.0,-3.4201,-3.4201,-3.4201,-3.4201,-3.423,-3.4013,-3.3067,-3.274,-3.2326,-3.1086,-3.0452,-2.9913,-2.9273,-2.848,-2.7505,-2.5861,-2.4741,-2.3826,-2.3005,-2.1791,-2.1026,-2.1365,-2.0398,-2.0064,-2.1145,-2.1307,-2.1684,-2.2623,-2.2234,-2.2044,-2.2423,-2.2009,-2.1858,-2.2438,-2.2261,-2.2375,-2.2936,-2.3812,-2.4497,-2.5027,-2.6153,-2.6998,-2.7603,-2.7544,-2.7659,-2.7975,-2.8166,-2.8886,-3.0002,-3.1925,-3.314,-3.3694,-3.4,-3.4546,-3.5228,-3.5228,-3.5396,-3.58,-3.6346,-3.7051,-3.7923,-3.9041,-3.9956,-4.0631,0.0,0.0,0.0,0.0,0.0,0.0,0.0,0.0,0.0,0.0,0.0,0.0,0.0,0.0,0.0,0.0,0.0,0.0,0.0,0.0,-3.886,-3.8805,-3.8766,-3.8544,-3.8246,-3.7886,-3.7342,-3.66,-3.5976,-3.5415,-3.4935,-3.4802,-3.5001,-3.5314,-3.5479,-3.573,-3.6073,-3.5587,-3.5402,-3.5395,-3.4522,-3.4201,-3.4201,-3.4201,-3.4201,-3.4201,-3.43,0.0,0.0,0.0,0.0,0.0,0.0,0.0,-3.4349,-3.425,-3.4162,-3.3973,-3.3363,-3.3008,-3.2471,-3.1133,-3.0477,-3.0027,-2.9605,-2.8889,-2.7966,-2.6732,-2.5439,-2.4208,-2.3135,-2.2151,-2.1279,-2.0869,-2.0279,-2.0031,-2.0248,-2.0313,-2.056,-2.1019,-2.0805,-2.0719,-2.1026,-2.0887,-2.0887,-2.1215,-2.1302,-2.1376,-2.1502,-2.247,-2.308,-2.3232,-2.4214,-2.4846,-2.5196,-2.5474,-2.5859,-2.6471,-2.6779,-2.7695,-2.9145,-3.1506,-3.2765,-3.3102,-3.3403,-3.3968,-3.4594,-3.4594,-3.5008,-3.5633,-3.5854,-3.6689,-3.7781,-3.8342,-3.9403,-4.0627,0.0,0.0,0.0,0.0,0.0,0.0,0.0,0.0,0.0,0.0,0.0,0.0,0.0,0.0,0.0,0.0,0.0,0.0,0.0,0.0,0.0,-3.875,-3.86,-3.856,-3.8504,-3.7828,-3.7401,-3.7222,-3.6102,-3.535,-3.4868,-3.4802,-3.5184,-3.58,-3.5785,-3.5938,-3.6263,-3.5728,-3.539,-3.5121,-3.4392,-3.4101,-3.4101,-3.4101,-3.4101,-3.4101,-3.4101,-3.4101,-3.4101,-3.4101,0.0,0.0,0.0,0.0,-3.4659,-3.4448,-3.4449,-3.4361,-3.3792,-3.3296,-3.2599,-3.1258,-3.0625,-3.0225,-3.0017,-2.9166,-2.8273,-2.7674,-2.625,-2.4711,-2.3263,-2.2567,-2.1791,-2.0366,-2.0291,-2.0279,-1.9671,-1.966,-1.9704,-1.9781,-1.9814,-1.9868,-1.9922,-2.0182,-2.044,-2.0504,-2.0974,-2.1187,-2.0933,-2.1776,-2.2087,-2.1815,-2.2359,-2.2592,-2.2592,-2.3065,-2.3893,-2.4965,-2.5689,-2.6874,-2.838,-3.0749,-3.194,-3.2283,-3.2848,-3.3491,-3.4101,-3.4101,-3.4658,-3.5498,-3.5588,-3.6457,-3.7679,-3.7634,-3.8734,-4.0228,0.0,0.0,0.0,0.0,0.0,0.0,0.0,0.0,0.0,0.0,0.0,0.0,0.0,0.0,0.0,0.0,0.0,0.0,0.0,0.0,0.0,-3.8448,-3.8448,-3.8262,-3.8001,-3.7886,-3.7401,-3.6554,-3.6368,-3.5752,-3.4765,-3.5103,-3.5642,-3.6322,-3.6906,-3.6814,-3.6263,-3.622,-3.5813,-3.5121,-3.4392,-3.4101,-3.4101,-3.4101,-3.4101,-3.4101,-3.4101,-3.4101,-3.4101,-3.4101,-3.4349,0.0,0.0,0.0,-3.4691,-3.4643,-3.4767,-3.4676,-3.3549,-3.2548,-3.174,-3.1562,-3.0891,-3.0293,-3.0267,-2.9601,-2.8826,-2.8273,-2.6886,-2.537,-2.4163,-2.3229,-2.2311,-2.1112,-2.0355,-1.9846,-1.9605,-1.9407,-1.933,-1.977,-1.9166,-1.8834,-1.91,-1.8921,-1.8988,-1.9497,-1.9715,-1.9977,-2.0226,-2.106,-2.1514,-2.1451,-2.2175,-2.2592,-2.2592,-2.2823,-2.3283,-2.4034,-2.5588,-2.6465,-2.6791,-2.8536,-3.0143,-3.1551,-3.223,-3.314,-3.4101,-3.4101,-3.4448,-3.5024,-3.5453,-3.5728,-3.6059,-3.7085,-3.7638,-3.8087,0.0,0.0,0.0,0.0,0.0,0.0,0.0,0.0,0.0,0.0,0.0,0.0,0.0,0.0,0.0,0.0,0.0,0.0,0.0,0.0,0.0,-3.7844,-3.7844,-3.7786,-3.7653,-3.7653,-3.7401,-3.6982,-3.6554,-3.6368,-3.618,-3.5658,-3.5413,-3.5445,-3.6028,-3.5985,-3.5466,-3.5482,-3.5041,-3.4349,-3.443,-3.43,-3.4151,-3.4497,-3.4594,-3.4546,-3.4546,-3.4546,-3.4546,-3.4643,-3.4883,-3.5165,-3.5008,0.0,0.0,0.0,-3.4615,-3.4225,-3.3077,-3.2055,-3.13,-3.1184,-3.0707,-3.0267,-3.013,-2.9589,-2.8935,-2.8384,-2.75,-2.6308,-2.4711,-2.3962,-2.3062,-2.1741,-2.1112,-2.0602,-1.9977,-1.9594,-1.9208,-1.8865,-1.8654,-1.8375,-1.8192,-1.8337,-1.8617,-1.8865,-1.9341,-1.9671,-1.9791,-2.056,-2.0955,-2.0955,-2.1565,-2.1939,-2.1939,-2.2396,-2.3065,-2.4002,-2.4776,-2.5472,-2.619,-2.7521,-2.9028,-3.0689,-3.1213,-3.2083,-3.3193,-3.3491,-3.3901,-3.4497,-3.5008,-3.5362,-3.565,-3.6195,-3.6965,-3.7941,0.0,0.0,0.0,0.0,0.0,0.0,0.0,0.0,0.0,0.0,0.0,0.0,0.0,0.0,0.0,0.0,0.0,0.0,0.0,0.0,0.0,-3.7417,-3.7417,-3.7358,-3.7314,-3.7314,-3.7254,-3.7178,-3.6693,-3.6538,-3.6701,-3.5842,-3.4927,-3.4135,-3.5,-3.5159,-3.4643,-3.4643,-3.435,-3.3848,-3.4349,-3.4448,-3.4349,-3.4851,-3.4994,-3.4899,-3.4899,-3.4899,-3.4899,-3.4994,-3.5258,-3.5515,-3.5316,-3.5453,0.0,0.0,0.0,-3.3439,-3.279,-3.1833,-3.1044,-3.0988,-3.0666,-3.0267,-3.013,-2.9722,-2.9166,-2.8638,-2.8094,-2.7232,-2.5494,-2.4711,-2.3859,-2.2408,-2.199,-2.1428,-2.0355,-1.9977,-1.9462,-1.8529,-1.8452,-1.8307,-1.7862,-1.8212,-1.8482,-1.8482,-1.9208,-1.9671,-1.9726,-2.0248,-2.0635,-2.0764,-2.1198,-2.1388,-2.1388,-2.2149,-2.2944,-2.3721,-2.4073,-2.4694,-2.5564,-2.6674,-2.8042,-2.9599,-3.0443,-3.1348,-3.23,-3.2817,-3.3475,-3.4201,-3.4546,-3.5008,-3.5407,-3.5407,-3.6222,-3.7324,0.0,0.0,0.0,0.0,0.0,0.0,0.0,0.0,0.0,0.0,0.0,0.0,-4.1604,-4.0659,-4.0003,-4.0003,-3.8739,-3.777,-3.7476,-3.7417,-3.7417,-3.7417,-3.7417,0.0,-3.6999,-3.6999,-3.6877,-3.6554,-3.6492,-3.5952,-3.4878,-3.5294,-3.4514,-3.2794,-3.4613,-3.4984,-3.4343,-3.4343,-3.4213,-3.4101,-3.4101,-3.4399,-3.4851,-3.4899,-3.4899,-3.4899,-3.4899,-3.4899,-3.4899,-3.4899,-3.5118,-3.5424,-3.5379,-3.5424,-3.5316,0.0,0.0,0.0,-3.3033,-3.2059,-3.0948,-3.1414,-3.0931,-3.0377,-3.0666,-3.0326,-2.9782,-2.9166,-2.8748,-2.8046,-2.6724,-2.5631,-2.454,-2.317,-2.2592,-2.1928,-2.0719,-2.0398,-2.0139,-1.977,-1.8977,-1.8566,-1.87,-1.8596,-1.8482,-1.8482,-1.9208,-1.9736,-2.0042,-2.0442,-2.0764,-2.1158,-2.1336,-2.1388,-2.1388,-2.2372,-2.2823,-2.28,-2.3943,-2.4509,-2.4624,-2.5701,-2.686,-2.814,-3.0108,-3.1305,-3.1867,-3.2431,-3.3282,-3.43,-3.4201,-3.4448,-3.4947,-3.4947,-3.5011,-3.5298,0.0,0.0,0.0,0.0,0.0,0.0,0.0,0.0,0.0,0.0,0.0,0.0,0.0,-4.04,-3.9645,-3.9506,-3.8311,-3.7492,-3.7165,-3.7165,-3.7029,-3.6831,-3.6831,-3.6785,-3.6677,-3.6693,-3.6616,-3.6492,-3.6061,-3.5661,-3.5202,-3.4509,-3.3759,-3.3169,-3.3816,-3.3848,-3.3403,-3.3403,-3.3567,-3.3899,-3.4267,-3.461,-3.4897,-3.5304,-3.5396,-3.535,-3.535,-3.535,-3.535,-3.5441,-3.5532,-3.5667,-3.5756,-3.58,-3.5694,-3.527,-3.3776,-3.2397,-3.2917,-3.1663,-3.0284,-3.0666,-3.0393,-3.0087,-3.0172,-3.0103,-2.9842,-2.9212,-2.8795,-2.8271,-2.7449,-2.6026,-2.4724,-2.3859,-2.316,-2.2506,-2.1865,-2.1491,-2.1049,-2.0215,-1.9955,-1.9507,-1.87,-1.8998,-1.9019,-1.8549,-1.9208,-1.9726,-2.0096,-2.0442,-2.0764,-2.1158,-2.1486,-2.1675,-2.1925,-2.2161,-2.2519,-2.2992,-2.38,-2.4394,-2.4878,-2.5906,-2.6732,-2.7483,-2.8929,-3.0228,-3.1305,-3.1843,-3.2504,-3.3282,-3.3984,-3.43,-3.4448,-3.4787,-3.5118,-3.5458,0.0,0.0,0.0,0.0,0.0,0.0,0.0,0.0,0.0,-4.1498,0.0,0.0,0.0,0.0,-3.9506,-3.881,-3.8042,-3.7373,-3.6877,-3.6816,-3.6754,-3.6492,-3.6492,-3.6492,-3.6492,-3.6261,-3.6153,-3.6153,-3.5476,-3.5029,-3.4768,-3.3829,-3.3275,-3.3059,-3.3059,-3.294,-3.2718,-3.2718,-3.3171,-3.3832,-3.4251,-3.4673,-3.5131,-3.5577,-3.5667,-3.5622,-3.5622,-3.5622,-3.5622,-3.5711,-3.5728,-3.5773,-3.5844,-3.5739,-3.5588,-3.556,-3.4251,-3.28,-3.2868,-3.1687,-3.0397,-3.0333,-3.0087,-2.9902,-3.0017,-3.0017,-2.9886,-2.9499,-2.9074,-2.8638,-2.811,-2.6739,-2.5412,-2.4681,-2.3943,-2.3245,-2.2689,-2.2372,-2.1865,-2.106,-2.0752,-2.0237,-1.9365,-1.9462,-1.9407,-1.8875,-1.9208,-1.966,-2.0107,-2.0302,-2.07,-2.136,-2.1486,-2.1812,-2.2197,-2.1999,-2.2161,-2.2677,-2.3551,-2.4208,-2.4637,-2.5797,-2.651,-2.6945,-2.7869,-2.9071,-3.0517,-3.1303,-3.1896,-3.2491,-3.336,-3.3933,-3.425,-3.4546,-3.4961,-3.5453,0.0,0.0,0.0,0.0,0.0,0.0,0.0,0.0,-4.1209,-4.1209,0.0,0.0,0.0,0.0,0.0,-3.8042,-3.7886,-3.7476,-3.6616,-3.6492,-3.6492,-3.6492,-3.6492,-3.6476,-3.6461,-3.5814,-3.5476,-3.546,-3.4783,-3.4091,-3.3398,-3.3383,-3.3013,-3.2398,-3.2398,-3.2398,-3.2437,-3.2437,-3.3002,-3.3986,-3.4036,-3.4673,-3.5622,-3.5622,-3.5622,-3.5622,-3.5622,-3.5622,-3.5622,-3.5622,-3.5622,-3.5622,-3.5622,-3.5224,-3.4927,-3.5577,-3.4751,-3.3482,0.0,0.0,0.0,-3.0491,-3.0087,-2.9989,-3.0225,-3.0113,-3.0017,-3.0017,-2.9661,-2.9271,-2.8779,-2.7803,-2.6672,-2.5605,-2.4894,-2.4176,-2.3245,-2.2798,-2.2494,-2.2247,-2.1285,-2.07,-2.0903,-2.0118,-1.9671,-1.9605,-1.9341,-1.9452,-2.0096,-2.0096,-2.0635,-2.1698,-2.1474,-2.1663,-2.2185,-2.1999,-2.1925,-2.1925,-2.3327,-2.3904,-2.3859,-2.5258,-2.6096,-2.651,-2.6916,-2.797,-2.9438,-3.0669,-3.1473,-3.2024,-3.2431,-3.3387,-3.4448,-3.4184,-3.4546,-3.5135,0.0,0.0,0.0,0.0,0.0,0.0,-4.1436,-4.1283,-4.1163,0.0,0.0,0.0,-4.0888,-4.0187,-3.9401,-3.8623,-3.7943,-3.7417,-3.7194,-3.6723,-3.6492,-3.6492,-3.6492,-3.6261,-3.5768,-3.5584,-3.5245,-3.4752,-3.4044,-3.3598,-3.3398,-3.2906,-3.2567,-3.2398,-3.2398,-3.2602,-3.2986,-3.2986,-3.3355,-3.4036,-3.4431,-3.4975,-3.5622,-3.5622,-3.5622,-3.5622,-3.5622,-3.5622,-3.5622,-3.5622,-3.5622,-3.5622,-3.5622,-3.5515,-3.5379,-3.5412,-3.4509,-3.3329,-3.2731,0.0,0.0,0.0,0.0,0.0,-2.9973,-3.0017,-3.0017,-3.0017,-2.9661,-2.9287,-2.8889,-2.8192,-2.7384,-2.6481,-2.5398,-2.4408,-2.3747,-2.339,-2.3005,-2.2555,-2.2149,-2.1588,-2.0764,-2.0869,-2.0869,-2.0344,-2.0484,-2.0613,-2.0805,-2.088,-2.1158,-2.1698,-2.1474,-2.1663,-2.2185,-2.1999,-2.2111,-2.2494,-2.3292,-2.393,-2.4337,-2.523,-2.5948,-2.651,-2.6916,-2.7548,-2.8384,-2.998,-3.0913,-3.1512,-3.2377,-3.3198,-3.3869,-3.4086,-3.4578,-3.5088,0.0,0.0,0.0,0.0,0.0,-4.1856,-4.1552,-4.1418,-4.1192,0.0,0.0,0.0,-4.0728,-4.0204,-3.9627,-3.9007,-3.8479,-3.7911,-3.7401,-3.7074,-3.6661,-3.6091,-3.6076,-3.5753,-3.5076,-3.4768,-3.4414,-3.4029,-3.3321,-3.2982,-3.2967,-3.2582,-3.2398,-3.2398,-3.2641,-3.2895,-3.3251,-3.37,-3.407,-3.4382,-3.4673,-3.5131,-3.5622,-3.5622,-3.5622,-3.5622,-3.5622,-3.5622,-3.5622,-3.5622,-3.5622,-3.5622,-3.5622,-3.5622,-3.5577,-3.5458,-3.4755,-3.3867,-3.3036,-3.2022,-3.0999,-3.0322,0.0,0.0,-2.9946,-2.9989,-3.0017,-3.0146,-3.0,-2.9705,-2.9348,-2.8779,-2.8094,-2.7195,-2.6201,-2.53,-2.4593,-2.4176,-2.3754,-2.3386,-2.2871,-2.2322,-2.1678,-2.1616,-2.1491,-2.1175,-2.1187,-2.1262,-2.1262,-2.1463,-2.1612,-2.1698,-2.1474,-2.1663,-2.2185,-2.2161,-2.2347,-2.2616,-2.3531,-2.4047,-2.4221,-2.5131,-2.5702,-2.6111,-2.6759,-2.7174,-2.7533,-2.9128,-3.0188,-3.0884,-3.1942,-3.2893,-3.3649,-3.4036,-3.4578,-3.5088,0.0,0.0,-4.2939,-4.2976,-4.2693,-4.232,-4.1924,-4.1648,-4.1373,0.0,-4.0888,-4.0776,-4.0534,-4.0387,-4.002,-3.9365,-3.9176,-3.8641,-3.7584,-3.727,-3.6707,-3.5612,-3.5536,-3.5199,-3.4599,-3.3967,-3.3598,-3.3521,-3.2844,-3.2505,-3.2505,-3.2428,-3.2437,-3.2492,-3.2986,-3.3287,-3.3443,-3.4415,-3.4816,-3.488,-3.488,-3.5178,-3.5622,-3.5622,-3.5622,-3.5622,-3.5622,-3.5622,-3.5622,-3.5622,-3.5622,-3.5622,-3.5622,-3.5622,-3.5577,-3.5577,-3.5224,-3.4667,-3.3691,-3.2767,-3.1834,-3.0796,-3.0306,0.0,-2.9989,-2.9973,-3.0076,-3.0316,-3.0375,-3.0231,-2.975,-2.9348,-2.8732,-2.7685,-2.7108,-2.6457,-2.5618,-2.5036,-2.4697,-2.4394,-2.3577,-2.31,-2.3148,-2.2408,-2.1978,-2.2175,-2.1877,-2.1628,-2.1577,-2.1963,-2.2099,-2.1874,-2.1714,-2.1827,-2.242,-2.2616,-2.2738,-2.2653,-2.3872,-2.4279,-2.3975,-2.4948,-2.5439,-2.555,-2.6443,-2.6849,-2.6997,-2.8321,-2.9331,-3.0143,-3.1285,-3.2431,-3.3537,-3.3885,-3.448,-3.5088,0.0,0.0,-4.2655,-4.2882,-4.2537,-4.2115,-4.1648,-4.1516,-4.1373,-4.0965,-4.0793,-4.0648,-4.0355,-4.0305,-4.0188,-3.9969,-3.892,-3.8206,-3.7978,-3.6517,-3.5859,-3.6111,-3.576,-3.5414,-3.5291,-3.5153,-3.4814,-3.426,-3.3552,-3.3198,-3.3183,-3.2644,-3.2641,-3.3039,-3.3145,-3.37,-3.4512,-3.4721,-3.5021,-3.5424,-3.5424,-3.5532,-3.5622,-3.5622,-3.5622,-3.5622,-3.5622,-3.5622,-3.5622,-3.5622,-3.5622,-3.5622,-3.5622,-3.5622,-3.5577,-3.5429,-3.4802,-3.4088,-3.3532,-3.2805,-3.1978,-3.105,-3.0768,0.0,-3.0048,-2.9902,-2.9946,-3.0076,-3.006,-2.9826,-2.9058,-2.8826,-2.8496,-2.756,-2.7321,-2.6945,-2.6026,-2.555,-2.5161,-2.4811,-2.4425,-2.4034,-2.3682,-2.3859,-2.4021,-2.4155,-2.3774,-2.3182,-2.2421,-2.2482,-2.2665,-2.2967,-2.2955,-2.3135,-2.3623,-2.3669,-2.3859,-2.4105,-2.4176,-2.435,-2.4765,-2.4708,-2.5005,-2.555,-2.6258,-2.6707,-2.6967,-2.7825,-2.8596,-2.9362,-3.0548,-3.1731,-3.2864,-3.3339,-3.4202,-3.5105,0.0,-4.3426,-4.3069,-4.3214,-4.3014,-4.2637,-4.1948,-4.1864,-4.1622,-4.0965,-4.0745,-4.0397,-3.9795,-3.9695,-3.9493,-3.9022,-3.8387,-3.8054,-3.8079,-3.6956,-3.643,-3.6766,-3.5966,-3.5486,-3.5424,-3.5146,-3.4814,-3.4475,-3.4106,-3.3752,-3.3398,-3.3308,-3.3262,-3.3235,-3.3751,-3.4317,-3.4833,-3.5085,-3.5362,-3.5622,-3.5622,-3.5622,-3.5622,-3.5622,-3.5622,-3.5622,-3.5622,-3.5622,-3.5622,-3.5622,-3.5622,-3.5622,-3.5622,-3.5622,-3.5577,-3.5503,-3.4738,-3.3955,-3.3762,-3.2994,-3.2092,-3.1677,-3.1212,0.0,0.0,-3.0206,-2.9989,-3.006,-3.0103,-2.9957,-2.9544,-2.9012,-2.8606,-2.8204,-2.791,-2.7545,-2.6953,-2.6602,-2.6269,-2.5957,-2.5577,-2.519,-2.4854,-2.4811,-2.4824,-2.4937,-2.4768,-2.431,-2.3374,-2.3433,-2.3386,-2.3113,-2.3207,-2.3374,-2.3577,-2.4079,-2.4253,-2.4073,-2.4421,-2.4549,-2.4563,-2.4523,-2.4694,-2.5061,-2.5974,-2.6496,-2.664,-2.7458,-2.7986,-2.8429,-2.9724,-3.0896,-3.1962,-3.288,-3.3762,-3.4496,-4.3883,-4.3734,-4.3582,-4.3582,-4.3532,-4.3214,-4.232,-4.2297,-4.1979,-4.0972,-4.0676,-4.0195,-3.9268,-3.9088,-3.8755,-3.8082,-3.7895,-3.786,-3.8069,-3.74,-3.7113,-3.7427,-3.6416,-3.5837,-3.5814,-3.5299,-3.4979,-3.486,-3.4737,-3.4426,-3.3955,-3.4148,-3.4032,-3.3754,-3.448,-3.488,-3.4975,-3.5424,-3.5622,-3.5622,-3.5622,-3.5622,-3.5622,-3.5622,-3.5622,-3.5622,-3.5622,-3.5622,-3.5622,-3.5622,-3.5622,-3.5622,-3.5622,-3.5622,-3.5622,-3.547,-3.4769,-3.402,-3.4036,-3.3246,-3.2424,-3.2384,-3.1855,-3.1299,0.0,0.0,0.0,-3.0315,-3.0244,-3.0103,-3.0017,-2.9348,-2.8842,-2.8858,-2.8415,-2.8027,-2.7925,-2.764,-2.7372,-2.7071,-2.6649,-2.6318,-2.6065,-2.5741,-2.5536,-2.555,-2.5605,-2.5217,-2.4368,-2.461,-2.4337,-2.3424,-2.3564,-2.3623,-2.3484,-2.431,-2.4439,-2.3852,-2.4593,-2.4664,-2.4157,-2.4363,-2.4523,-2.4738,-2.5728,-2.6283,-2.651,-2.7306,-2.7625,-2.7735,-2.8939,-2.9959,-3.0937,-3.2208,-3.311,-3.3779,-4.3804,-4.3652,-4.3532,-4.3532,-4.3532,-4.3214,-4.232,-4.2537,-4.2304,-4.0901,-4.0711,-4.0285,-3.9258,-3.9128,-3.8921,-3.847,-3.7851,-3.7575,-3.7908,-3.6819,-3.6721,-3.7926,-3.7443,-3.711,-3.7164,-3.7121,-3.6839,-3.6261,-3.566,-3.5605,-3.6048,-3.477,-3.4711,-3.5646,-3.5066,-3.5068,-3.5515,-3.5577,-3.5622,-3.5622,-3.5622,-3.5622,-3.5622,-3.5622,-3.5622,-3.5622,-3.5622,-3.5622,-3.5622,-3.5622,-3.5622,-3.5622,-3.5622,-3.5667,-3.5667,-3.5068,-3.456,-3.4153,-3.4118,-3.363,-3.3144,-3.3045,-3.2919,-3.2676,-3.2028,0.0,-3.0797,-3.0814,0.0,-2.9798,-2.9319,0.0,0.0,-2.8795,-2.8352,-2.8125,-2.8207,-2.7959,-2.769,-2.756,-2.7225,-2.7004,-2.6953,-2.693,-2.6916,-2.6872,-2.6587,-2.6176,-2.5618,-2.5618,-2.5508,-2.5119,-2.5175,-2.5021,-2.4778,-2.4878,-2.4935,-2.4835,-2.4637,-2.4523,-2.4465,-2.4216,-2.4593,-2.5342,-2.5673,-2.6336,-2.7115,-2.7473,-2.7625,-2.7685,-2.8426,-2.9057,-2.9754,-3.0921,-3.2128,-3.3257,-4.3667,-4.36,-4.3497,-4.3497,-4.3497,-4.3286,-4.2711,-4.1962,-4.0991,-3.9736,-3.9391,-3.8849,-3.7885,-3.7772,-3.7627,-3.724,-3.6956,-3.7197,-3.8191,-3.7435,-3.7634,-3.921,-3.8389,-3.8042,-3.8407,-3.8067,-3.7796,-3.7546,-3.7261,-3.7084,-3.6894,-3.5867,-3.5613,-3.5975,-3.5164,-3.5115,-3.5622,-3.5622,-3.5622,-3.5622,-3.5667,-3.5728,-3.5728,-3.5622,-3.5622,-3.5622,-3.5622,-3.5622,-3.5622,-3.5622,-3.5622,-3.5622,-3.5667,-3.5711,-3.5577,-3.5068,-3.4512,-3.407,-3.3933,-3.3607,-3.3335,-3.3393,-3.3273,-3.3016,-3.2708,-3.2077,-3.1558,-3.1558,0.0,0.0,0.0,0.0,0.0,0.0,-2.8764,-2.8622,-2.7978,-2.8334,-2.8446,-2.789,-2.7775,-2.771,-2.7625,-2.756,-2.753,-2.755,-2.76,-2.7348,-2.6611,-2.6625,-2.6361,-2.5673,-2.5837,-2.5797,-2.5481,-2.5811,-2.5811,-2.5481,-2.5189,-2.5119,-2.5231,-2.4821,-2.4991,-2.5673,-2.6122,-2.6563,-2.6959,-2.7423,-2.7625,-2.7655,-2.7889,-2.8519,-2.9359,-3.0227,-3.126,-3.2311,-4.3582,-4.3513,-4.3497,-4.3497,-4.3497,-4.3336,-4.2814,-4.1414,-4.0053,-3.9118,-3.8783,-3.8225,-3.7283,-3.7197,-3.7015,-3.665,-3.683,-3.7401,-3.8429,-3.8316,-3.873,-4.002,-3.9242,-3.8903,-3.9206,-3.8739,-3.8407,-3.8067,-3.8238,-3.8075,-3.7556,-3.702,-3.6631,-3.6486,-3.5719,-3.5425,-3.5622,-3.5622,-3.5667,-3.5667,-3.5817,-3.5861,-3.5861,-3.5711,-3.5667,-3.5667,-3.5667,-3.5667,-3.5667,-3.5711,-3.5711,-3.5711,-3.5817,-3.58,-3.5667,-3.5207,-3.4673,-3.4185,-3.3933,-3.3658,-3.345,-3.3745,-3.3579,-3.3356,-3.3356,-3.2821,-3.2303,-3.2303,-3.172,0.0,0.0,0.0,-2.9651,-2.9435,0.0,-2.918,-2.8319,-2.8795,-2.8936,-2.8103,-2.8152,-2.8284,-2.8284,-2.8057,-2.7963,-2.8255,-2.8415,-2.8207,-2.757,-2.7635,-2.7268,-2.6438,-2.652,-2.6414,-2.6026,-2.6322,-2.6229,-2.5783,-2.5618,-2.5618,-2.5783,-2.5425,-2.5536,-2.6068,-2.651,-2.6788,-2.6997,-2.7408,-2.7625,-2.7625,-2.7625,-2.8125,-2.8936,-2.9659,-3.0518,-3.1512,-4.3532,-4.3497,-4.3497,-4.3497,-4.3497,-4.3222,-4.2417,-4.123,-4.0202,-3.9665,-3.9556,-3.9197,-3.8267,-3.816,-3.7969,-3.7505,-3.8164,-3.8598,-3.8491,-3.9204,-3.9774,-4.0087,-4.007,-3.9799,-3.9206,-3.9206,-3.859,-3.7417,-3.801,-3.8278,-3.823,-3.813,-3.797,-3.779,-3.7077,-3.6315,-3.5622,-3.5728,-3.5773,-3.5817,-3.5932,-3.5975,-3.5975,-3.5861,-3.5773,-3.5773,-3.5773,-3.5773,-3.5817,-3.5932,-3.5975,-3.5975,-3.5975,-3.6079,-3.6036,-3.5374,-3.4971,-3.4704,-3.4382,-3.4,-3.3745,-3.4,-3.4084,-3.4068,-3.4068,-3.3534,-3.3048,-3.3048,-3.2481,-3.1963,-3.1963,-3.1564,-3.1209,-3.1209,-3.0396,0.0,0.0,-2.9348,-2.8811,-2.8103,-2.8201,-2.8589,-2.9029,-2.8606,-2.8543,-2.9198,-2.8811,-2.8559,-2.8638,-2.8638,-2.8417,-2.7969,-2.752,-2.7049,-2.6576,-2.6065,-2.5837,-2.5783,-2.5783,-2.5783,-2.5783,-2.5783,-2.6122,-2.6669,-2.6683,-2.7049,-2.7575,-2.7575,-2.7625,-2.7625,-2.7625,-2.7894,-2.84,-2.8967,-2.9902,-3.0985,-4.2883,-4.2724,-4.2708,-4.2708,-4.2708,-4.2249,-4.091,-4.0117,-3.9369,-3.8572,-3.8239,-3.7918,-3.7468,-3.7395,-3.7432,-3.7505,-3.8237,-3.8734,-3.8893,-3.9634,-4.0101,-4.0087,-4.007,-4.002,-3.9799,-3.9799,-3.9575,-3.9189,-3.9401,-3.9506,0.0,-3.8548,-3.8054,-3.7872,-3.6762,-3.6085,-3.5728,-3.5773,-3.5861,-3.5932,-3.6079,-3.6122,-3.6122,-3.5975,-3.5932,-3.5932,-3.5932,-3.5932,-3.5932,-3.5975,-3.6019,-3.6019,-3.6122,-3.6122,-3.5975,-3.5481,-3.522,-3.4941,-3.4431,-3.4201,-3.4101,-3.4101,-3.4101,-3.4101,-3.4101,-3.3922,-3.3761,-3.3761,-3.321,-3.2724,-3.2724,-3.2266,-3.1808,-3.1544,-3.1173,-3.0717,0.0,-2.9635,-2.9241,-2.9058,-2.9212,-2.9409,-2.9544,-2.9601,-2.9717,-2.9968,-2.9777,-2.9629,-2.9422,-2.9227,-2.8889,-2.8465,-2.8336,-2.8176,-2.8,-2.7819,-2.76,-2.7378,-2.699,-2.6834,-2.6982,-2.6549,-2.6721,-2.7306,-2.7306,-2.7408,-2.7625,-2.7625,-2.7625,-2.7625,-2.7625,-2.8091,-2.8842,-2.8935,-2.9462,-3.0298,-4.2124,-4.193,-4.1882,-4.1882,-4.1644,-4.1093,-4.0047,-3.9433,-3.8849,-3.8204,-3.7911,-3.7685,-3.7506,-3.7506,-3.7596,-3.7791,-3.8834,-3.9439,-3.9411,-4.031,-4.0725,-4.0417,-4.032,-4.0221,-4.0221,-4.0188,-4.007,-3.985,-4.002,-3.9969,0.0,0.0,-3.8522,-3.7889,-3.7062,-3.6384,-3.5817,-3.5905,-3.5993,-3.6079,-3.6191,-3.6251,-3.6251,-3.6148,-3.6062,-3.6019,-3.6062,-3.6062,-3.6062,-3.6105,-3.6105,-3.6148,-3.6191,-3.6191,-3.6045,-3.5793,-3.5554,-3.5283,-3.4754,-3.4529,-3.4399,-3.4151,-3.4101,-3.4101,-3.4101,-3.4101,-3.4101,-3.4101,-3.3761,-3.3453,-3.3502,-3.3046,-3.2541,-3.2367,-3.2105,-3.1637,0.0,-3.0247,-2.9951,-3.0038,-2.9924,-2.9853,-2.9941,-3.0156,-3.0326,-3.0452,-3.0435,-3.0351,-3.0182,-2.9968,-2.975,-2.954,-2.9225,-2.9088,-2.9118,-2.881,-2.8606,-2.835,-2.7815,-2.763,-2.7775,-2.7152,-2.7115,-2.7539,-2.7473,-2.7473,-2.7473,-2.7473,-2.756,-2.776,-2.7745,-2.8271,-2.9044,-2.8951,-2.9364,-3.007,-4.1346,-4.1066,-4.1001,-4.1001,-4.0359,-3.9827,-3.9827,-3.9184,-3.8658,-3.851,-3.851,-3.8478,-3.8415,-3.8415,-3.8415,-3.8382,-3.9841,-4.0545,-4.0032,-4.1184,-4.1613,-4.1019,-4.0693,-4.0517,-4.0485,-4.0387,-4.0003,-3.9437,-3.9901,-3.9799,0.0,0.0,-3.9342,-3.7905,-3.7967,-3.7211,-3.5817,-3.6079,-3.6208,-3.6208,-3.6259,-3.6301,-3.6301,-3.6301,-3.6174,-3.6019,-3.6165,-3.6208,-3.6208,-3.6259,-3.6301,-3.6301,-3.6301,-3.6301,-3.6301,-3.6301,-3.6088,-3.5722,-3.5316,-3.4961,-3.4643,-3.4201,-3.4101,-3.4101,-3.4101,-3.4101,-3.4101,-3.4101,-3.4101,-3.4151,-3.43,-3.3827,-3.3512,-3.3653,-3.3135,-3.2481,-3.1735,-3.125,-3.0945,-3.0912,-3.03,-2.9984,-3.0231,-3.0231,-3.0401,-3.0692,-3.0733,-3.0757,-3.0804,-3.0804,-3.0861,-3.0975,-3.0241,-2.9865,-2.9946,-2.9164,-2.8779,-2.8732,-2.8192,-2.8076,-2.8186,-2.7575,-2.7335,-2.7452,-2.7335,-2.7269,-2.7269,-2.7269,-2.761,-2.8125,-2.8012,-2.8352,-2.8904,-2.8904,-2.9544,-3.0375,-4.056,-3.981,-3.9331,-3.9331,-3.9148,-3.9019,-3.9019,-3.8836,-3.8707,-3.8658,-3.8658,-3.8609,-3.8478,-3.8478,-3.8446,-3.8415,-3.9312,-3.9962,-4.0073,-4.0927,-4.1351,-4.1105,-4.1001,-4.0802,-4.0534,-4.0387,-4.0288,-4.0204,-4.0238,-4.0238,-4.0154,0.0,-3.9569,-3.8138,-3.812,-3.7393,-3.6079,-3.6182,-3.6251,-3.6276,-3.6301,-3.6276,-3.6251,-3.6259,-3.6233,-3.6165,-3.6233,-3.6259,-3.6276,-3.6301,-3.6301,-3.6301,-3.6301,-3.6301,-3.6301,-3.6301,-3.6259,-3.6028,-3.5362,-3.5131,-3.4897,-3.4234,-3.4101,-3.4151,-3.425,-3.425,-3.43,-3.4399,-3.4399,-3.4399,-3.4448,-3.4382,-3.4363,-3.4411,-3.3895,-3.3167,-3.2033,-3.1767,-3.1573,-3.1179,-3.0975,-3.0855,-3.0952,-3.0998,-3.1061,-3.114,-3.1015,-3.0935,-3.0958,-3.0797,-3.0716,-3.0773,-3.0617,-3.0543,-3.0567,-3.0107,-2.9761,-2.9512,-2.912,-2.8811,-2.8559,-2.8415,-2.8304,-2.8367,-2.8319,-2.8304,-2.8304,-2.8304,-2.84,-2.8543,-2.8496,-2.8795,-2.9198,-2.9289,-2.9649,-3.0215,-3.9811,-3.9135,-3.875,-3.875,-3.8719,-3.8707,-3.8707,-3.8707,-3.8707,-3.8707,-3.8707,-3.8658,-3.8609,-3.8609,-3.8559,-3.8546,-3.9278,-3.9786,-3.9894,-4.0546,-4.0876,-4.0742,-4.0609,-4.0412,-4.0227,-3.9882,-3.9915,-4.0336,-4.0038,-4.0129,-4.0485,0.0,-3.9665,-3.8213,-3.8259,-3.7528,-3.6208,-3.6251,-3.6276,-3.6301,-3.6301,-3.6276,0.0,-3.6301,-3.6276,-3.6233,-3.6301,-3.6301,-3.6301,-3.6301,-3.6301,-3.6301,-3.6301,-3.6301,-3.6301,-3.6301,-3.6216,-3.5941,-3.5362,-3.5148,-3.4913,-3.4349,-3.425,-3.43,-3.4349,-3.4399,-3.4399,-3.4497,-3.4497,-3.4497,-3.4594,-3.4643,-3.4691,-3.4804,-3.4223,-3.3599,-3.2961,-3.2352,-3.1909,-3.1635,-3.1337,-3.119,-3.119,-3.1213,-3.1274,-3.1295,-3.1196,-3.1173,-3.123,-3.1112,-3.1072,-3.1072,-3.0958,-3.0902,-3.0902,-3.0617,-3.0225,-2.9793,-2.9544,-2.9212,-2.8795,-2.8591,-2.8543,-2.8591,-2.8543,-2.8543,-2.8543,-2.8543,-2.8685,-2.8982,-2.9166,-2.9364,-2.9576,-2.9766,-3.0,-3.03,-3.9194,-3.891,-3.8822,-3.8792,-3.875,-3.8738,-3.8707,-3.8707,-3.8707,-3.875,-3.8719,-3.8707,-3.8707,-3.8707,-3.8707,-3.8707,-3.9331,-3.974,-3.9717,-4.0104,-4.0347,-4.0329,-4.0014,-3.986,-3.9783,-3.9341,-3.9433,-4.0141,-3.9698,-3.9795,-4.038,-4.038,-3.9576,-3.8105,-3.8231,-3.7487,-3.6208,-3.6276,-3.6301,-3.6301,-3.6301,-3.6301,-3.6301,-3.6301,-3.6301,-3.6301,-3.6301,-3.6301,-3.6301,-3.6301,-3.6301,-3.6301,-3.6301,-3.6301,-3.6301,-3.6301,-3.6088,-3.5739,-3.5316,-3.5055,-3.4851,-3.4448,-3.4399,-3.4497,-3.4497,-3.4546,-3.4546,-3.4546,-3.4546,-3.4594,-3.4691,-3.4756,-3.4739,-3.4899,-3.4352,-3.3918,-3.3872,-3.2887,-3.2085,-3.1974,-3.154,0.0,-3.119,-3.119,-3.1252,-3.1334,-3.1295,-3.1351,-3.15,-3.15,-3.1462,-3.1462,-3.123,-3.1072,-3.1072,-3.0855,-3.0468,-2.9984,-2.9777,-2.9467,-2.8997,-2.8685,-2.8591,-2.8606,-2.8543,-2.8496,-2.8496,-2.8496,-2.8842,-2.9441,-2.9886,-3.0017,-2.9989,-3.0267,-3.0493,-3.0634,-3.9082,-3.8939,-3.8881,-3.8822,-3.8851,-3.8822,-3.8738,-3.8707,-3.878,-3.9007,-3.8822,-3.8707,-3.8707,-3.8707,-3.8707,-3.8707,-3.8836,-3.9184,-3.9813,-3.9946,-4.0112,-4.0366,-4.033,-4.0146,-3.9822,-3.9585,-3.9752,-4.0272,-4.0053,-3.9915,-3.9859,-3.9859,-3.9066,-3.7637,-3.7637,-3.7137,-3.6259,-3.6301,-3.6301,-3.6301,-3.6301,-3.6301,-3.6301,-3.6301,-3.6301,-3.6301,-3.6301,-3.6301,-3.6301,-3.6301,-3.6301,-3.6301,-3.6301,-3.6301,-3.6301,-3.6301,-3.6131,-3.5888,-3.547,-3.5211,-3.4947,-3.4546,-3.4497,-3.4546,-3.4643,-3.4643,-3.4707,-3.4804,-3.4851,-3.4851,-3.4851,-3.4835,-3.4899,-3.4899,-3.4783,-3.4363,-3.3311,-3.2971,-3.2437,-3.1489,-3.1258,-3.119,-3.119,-3.119,-3.1329,-3.162,-3.1389,-3.1368,-3.1657,-3.1449,-3.1351,-3.1351,-3.1385,-3.1385,-3.1385,-3.1095,-3.0878,-3.0797,-3.051,-3.0113,-2.9661,-2.981,-2.9694,-2.9335,-2.9515,-2.9621,-2.9621,-2.9621,-2.9681,-2.9814,-3.0113,-3.0225,-3.0267,-3.0584,-3.0885,-3.1179,-3.9298,-3.9073,-3.8979,-3.9101,-3.9101,-3.9165,-3.9345,-3.9242,-3.9119,-3.8921,-3.891,-3.8851,-3.8707,-3.8707,-3.8707,-3.8707,-3.8707,-3.8854,-3.9239,-3.9276,-3.9328,-3.9513,-3.9531,-3.9431,-3.9226,-3.8995,-3.9062,-3.9434,-3.9188,-3.9138,-3.9129,-3.9129,-3.8543,-3.75,-3.728,-3.6963,-3.6597,-3.6597,-3.6597,-3.6597,-3.6367,-3.6301,-3.6301,-3.6301,-3.6301,-3.6301,-3.6301,-3.6301,-3.6301,-3.6301,-3.6301,-3.6301,-3.6301,-3.6301,-3.6343,-3.6461,-3.6276,-3.5985,-3.5661,-3.5391,-3.5148,-3.4691,-3.4659,-3.4739,-3.4804,-3.4787,-3.4804,-3.4899,-3.4899,-3.4899,-3.4899,-3.4899,-3.4899,-3.4994,-3.4678,-3.4272,-3.3745,-3.3007,-3.2337,-3.1833,-3.1427,-3.1269,-3.1466,-3.1449,-3.1524,-3.1694,-3.1562,-3.1524,-3.1677,-3.1582,-3.1507,-3.1507,-3.1406,-3.1423,-3.1617,-3.1312,-3.1038,-3.074,-3.0757,-3.051,-3.0,-3.0258,-3.0258,-3.013,-3.0076,-3.006,-3.013,-3.013,-3.0215,-3.0368,-3.0518,-3.0543,-3.0584,-3.0925,-3.1162,-3.1334,-3.9561,-3.9357,-3.9227,-3.9433,-3.9433,-3.9537,-3.984,-3.9797,-3.9524,-3.9027,-3.9027,-3.8998,-3.881,-3.8719,-3.8707,-3.8707,-3.8707,-3.8707,-3.8707,-3.8707,-3.8707,-3.8719,-3.8719,-3.8719,-3.875,-3.8491,-3.8495,-3.8796,-3.8493,-3.8392,-3.8512,-3.8397,-3.8027,-3.7394,-3.7061,-3.696,-3.7058,-3.7058,-3.7038,-3.6978,-3.6638,-3.6492,-3.6468,-3.6468,-3.6468,-3.6468,-3.6468,-3.6468,-3.6468,-3.6468,-3.6385,-3.6301,-3.636,-3.6402,-3.6444,-3.6684,-3.6485,-3.6182,-3.5933,-3.5715,-3.5464,-3.4991,-3.4977,-3.5024,-3.4947,-3.4899,-3.4899,-3.4899,-3.4899,-3.4899,-3.4899,-3.4899,-3.4947,-3.5041,-3.4489,-3.4046,-3.4007,-3.3043,-3.2285,-3.219,-3.1822,-3.1637,-3.1804,-3.1823,-3.186,-3.1914,-3.186,-3.186,-3.1914,-3.186,-3.1823,-3.1823,-3.1562,-3.1524,-3.1677,-3.1507,-3.1123,-3.0642,-3.0918,-3.0773,-3.0258,-3.0485,-3.0609,-3.0568,-3.0401,-3.0342,-3.0418,-3.0418,-3.0543,-3.0804,-3.0885,-3.0925,-3.0965,-3.1295,-3.1428,-3.1411,-3.9819,-3.9754,-3.9709,-3.9687,-3.9709,-3.9731,-3.9645,-3.9861,-3.9982,-3.9816,-3.9383,-3.9109,-3.9073,-3.8851,-3.8707,-3.8707,-3.8707,-3.8707,-3.8707,-3.8707,-3.8719,-3.8792,-3.8792,-3.8822,-3.8881,-3.8833,-3.9019,-3.9415,-3.8978,-3.8584,-3.8222,-3.7818,-3.7384,-3.7066,-3.7017,-3.723,-3.7631,-3.7631,-3.7524,-3.7339,-3.7301,-3.7129,-3.693,-3.693,-3.693,-3.693,-3.693,-3.693,-3.693,-3.693,-3.6632,-3.6343,-3.6602,-3.6643,-3.6684,-3.6908,-3.6753,-3.6533,-3.6533,-3.6333,-3.602,-3.5616,-3.5543,-3.5407,-3.4977,-3.4899,-3.4899,-3.4899,-3.4899,-3.4899,-3.4899,-3.4994,-3.5041,-3.4947,-3.4489,-3.3924,-3.3232,-3.3117,-3.2763,-3.184,-3.2328,-3.2619,-3.2284,-3.2231,-3.2368,-3.2666,-3.2401,-3.2368,-3.2699,-3.2401,-3.2231,-3.2231,-3.2214,-3.2039,-3.1714,-3.1694,-3.147,-3.1134,-3.1151,-3.0918,-3.0477,-3.0716,-3.0651,-3.0274,-3.0526,-3.0716,-3.0747,-3.0747,-3.0764,-3.0845,-3.1123,-3.1257,-3.1295,-3.1634,-3.1746,-3.1763,-4.0063,-3.9924,-3.984,-3.9982,-4.0022,-4.0043,-4.0138,-4.0248,-4.0321,-4.027,-3.9901,-3.9548,-3.9245,-3.911,-3.9007,-3.8822,-3.8822,-3.8822,-3.8822,-3.8822,-3.8822,-3.8881,-3.8881,-3.8862,-3.891,-3.8921,-3.8902,-3.8769,-3.8619,-3.8328,-3.7879,-3.7709,-3.7569,-3.7434,-3.7684,-3.7857,-3.8077,-3.8077,-3.8011,-3.7911,-3.7559,-3.7356,-3.7206,-3.7048,-3.6987,-3.6987,-3.6987,-3.6987,-3.6987,-3.6987,-3.6891,-3.6731,-3.6829,-3.6869,-3.6926,-3.7105,-3.7087,-3.7009,-3.6799,-3.6701,-3.6522,-3.6062,-3.5933,-3.5864,-3.5407,-3.5316,-3.5241,-3.493,-3.4899,-3.4947,-3.4994,-3.5041,-3.5152,-3.5245,-3.4348,-3.3616,-3.359,-3.2838,-3.2252,-3.2073,-3.2353,-3.2564,-3.2603,-3.2601,-3.2749,-3.3129,-3.2813,-3.2666,-3.2795,-3.2666,-3.2586,-3.2519,-3.2317,-3.2109,-3.1896,-3.1731,-3.1449,-3.1072,-3.1151,-3.1095,-3.0918,-3.1015,-3.0912,-3.0609,-3.0912,-3.1015,-3.1038,-3.11,-3.1218,-3.1411,-3.1542,-3.1596,-3.1634,-3.1746,-3.1929,-3.2091,-4.0315,-4.0175,-4.0082,-4.0286,-4.0304,-4.0339,-4.0473,-4.0489,-4.0508,-4.0515,-4.0286,-3.9983,-3.9561,-3.9439,-3.9279,-3.9045,-3.9036,-3.8979,-3.891,-3.891,-3.891,-3.8921,-3.8921,-3.8921,-3.895,-3.9007,-3.8855,-3.853,-3.8449,-3.8241,-3.7907,-3.7771,-3.7771,-3.7907,-3.8209,-3.8405,-3.853,-3.853,-3.8517,-3.8423,-3.7964,-3.7774,-3.7667,-3.7411,-3.7299,-3.7261,-3.7203,-3.7182,-3.7182,-3.7182,-3.7182,-3.7182,-3.7105,-3.7105,-3.7143,-3.7334,-3.7372,-3.7372,-3.7167,-3.7111,-3.6978,-3.6522,-3.6298,-3.6105,-3.5705,-3.5498,-3.5316,-3.5041,-3.4994,-3.5041,-3.5152,-3.5198,-3.5245,-3.5446,-3.43,-3.3556,-3.3882,-3.2924,-3.2247,-3.2437,-3.2664,-3.2851,-3.2975,-3.2988,-3.3099,-3.3364,-3.3147,-3.2988,-3.2988,-3.2988,-3.2957,-3.2912,-3.2687,-3.2437,-3.2214,-3.202,-3.1694,-3.1295,-3.1329,-3.1329,-3.1291,-3.123,-3.1151,-3.1015,-3.1173,-3.1252,-3.1329,-3.1389,-3.1542,-3.18,-3.1893,-3.1965,-3.1965,-3.2055,-3.2231,-3.2437,-4.0607,-4.0598,-4.0588,-4.0588,-4.0539,-4.0489,-4.0489,-4.0489,-4.0489,-4.0489,-4.0489,-4.0372,-4.0042,-3.9754,-3.9524,-3.9305,-3.9298,-3.9165,-3.8939,-3.891,-3.8921,-3.8997,-3.8979,-3.9036,-3.9101,-3.9101,-3.9101,-3.9101,-3.8621,-3.8387,-3.8387,-3.7907,-3.7959,-3.8387,-3.8387,-3.8651,-3.9101,-3.9101,-3.8979,-3.8773,-3.8792,-3.8621,-3.835,-3.8086,-3.7984,-3.7949,-3.7685,-3.7577,-3.7577,-3.7577,-3.7577,-3.7558,-3.7372,-3.7314,-3.7334,-3.7558,-3.7594,-3.7594,-3.7577,-3.7577,-3.7485,-3.7034,-3.6563,-3.6105,-3.5705,-3.5241,-3.4947,-3.5088,-3.5198,-3.5308,-3.5291,-3.54,-3.5446,-3.5337,-3.4542,-3.3962,-3.3825,-3.3564,-3.323,-3.282,-3.3512,-3.3838,-3.3436,-3.3393,-3.3393,-3.3393,-3.3411,-3.3393,-3.3393,-3.3393,-3.3393,-3.3393,-3.3411,-3.3165,-3.2702,-3.2702,-3.2453,-3.1986,-3.1711,-3.1579,-3.1579,-3.1329,-3.1252,-3.1295,-3.1295,-3.1411,-3.1579,-3.1579,-3.1671,-3.1819,-3.2144,-3.2283,-3.2352,-3.2684,-3.2795,-3.2795,-4.0687,-4.064,-4.0593,-4.0593,-4.0579,-4.0564,-4.0573,-4.0573,-4.0539,-4.0523,-4.0489,-4.0457,-4.0336,-4.0139,-3.9901,-3.9641,-3.9641,-3.9595,-3.9524,-3.9408,-3.9324,-3.935,-3.9183,-3.9073,-3.9101,-3.9101,-3.9101,-3.9101,-3.8952,-3.8894,-3.8865,-3.8711,-3.8741,-3.8894,-3.8894,-3.897,-3.9101,-3.9101,-3.9073,-3.8989,-3.8881,-3.8762,-3.8652,-3.8382,-3.8153,-3.7984,-3.7915,-3.7757,-3.7577,-3.7577,-3.7577,-3.7594,-3.7503,-3.7503,-3.7521,-3.7577,-3.7577,-3.7577,-3.7577,-3.7577,-3.7577,-3.7411,-3.7301,-3.7132,-3.6701,-3.6079,-3.5543,-3.5274,-3.5291,-3.5354,-3.5446,-3.5684,-3.5744,-3.5232,-3.4743,-3.4294,-3.3987,-3.3386,-3.3066,-3.3214,-3.343,-3.3545,-3.3429,-3.3393,-3.3393,-3.3393,-3.3393,-3.3393,-3.3393,-3.3393,-3.3334,-3.3196,-3.3274,-3.3042,-3.2437,-3.2555,-3.242,-3.1913,-3.1877,-3.1913,-3.2002,-3.1445,-3.1329,-3.1582,-3.1372,-3.1487,-3.1839,-3.193,-3.2179,-3.2437,-3.2586,-3.2651,-3.2651,-3.2763,-3.2952,-3.3154,-4.0823,-4.0739,-4.0668,-4.0668,-4.0635,-4.0607,-4.0598,-4.0598,-4.0583,-4.0549,-4.0534,-4.0534,-4.0534,-4.0422,-4.023,-3.9963,-3.9943,-3.988,-3.9705,-3.9561,-3.9452,-3.935,-3.9192,-3.9101,-3.9101,-3.9101,-3.9101,-3.9101,-3.9101,-3.9101,-3.9101,-3.9101,-3.9101,-3.9101,-3.9101,-3.9101,-3.9101,-3.9101,-3.9101,-3.9101,-3.896,-3.8862,-3.8792,-3.851,-3.8219,-3.7984,-3.7898,-3.7757,-3.7577,-3.7577,-3.7577,-3.7577,-3.7577,-3.7577,-3.7577,-3.7577,-3.7577,-3.7577,-3.7577,-3.7613,-3.7649,-3.7649,-3.7577,-3.7413,-3.6978,-3.6504,-3.6147,-3.5881,-3.5854,-3.5941,-3.6002,-3.6,-3.5786,-3.5416,-3.4806,-3.4288,-3.4033,-3.3444,-3.3099,-3.3364,-3.3393,-3.3393,-3.3393,-3.3393,-3.3393,-3.3393,-3.3393,-3.3411,-3.3352,-3.3352,-3.3304,-3.3165,-3.3214,-3.3011,-3.2573,-3.2672,-3.2747,-3.2739,-3.2634,-3.2616,-3.2599,-3.1886,-3.1711,-3.1932,-3.175,-3.1823,-3.2091,-3.2231,-3.2437,-3.2734,-3.2876,-3.297,-3.2983,-3.3154,-3.3302,-3.3494,-4.1001,-4.0905,-4.0815,-4.0822,-4.07,-4.0621,-4.0621,-4.0621,-4.0621,-4.0588,-4.0588,-4.0588,-4.0588,-4.0588,-4.05,-4.0251,-4.0233,-4.0041,-3.9604,-3.9556,-3.9408,-3.9165,-3.9137,-3.9129,-3.9129,-3.9129,-3.9129,-3.9129,-3.9129,-3.9129,-3.9129,-3.9129,-3.9129,-3.9129,-3.9129,-3.9129,-3.9129,-3.9129,-3.9129,-3.9129,-3.9129,-3.8989,-3.8803,-3.8541,-3.8285,-3.7984,-3.7757,-3.7613,-3.7577,-3.7577,-3.7613,-3.7631,-3.7631,-3.7613,-3.7631,-3.7631,-3.7631,-3.7631,-3.7631,-3.7685,-3.7703,-3.7703,-3.7487,-3.7135,-3.6671,-3.6689,-3.6746,-3.6706,-3.6768,-3.6829,-3.6829,-3.618,-3.5636,-3.5583,-3.473,-3.4011,-3.3957,-3.3651,-3.3393,-3.3393,-3.3393,-3.3393,-3.3393,-3.3393,-3.3393,-3.3393,-3.3393,-3.3382,-3.3292,-3.3292,-3.3262,-3.3262,-3.3165,-3.3073,-3.2979,-3.3033,-3.3448,-3.4187,-3.3845,-3.3565,-3.3335,-3.2616,-3.2284,-3.2351,-3.2317,-3.2351,-3.2419,-3.2453,-3.2553,-3.2798,-3.3111,-3.328,-3.3379,-3.368,-3.3807,-3.3788,-4.1003,-4.0976,-4.0954,-4.0943,-4.0875,-4.0817,-4.0746,-4.07,-4.0654,-4.0621,-4.0588,-4.0588,-4.0588,-4.0588,-4.0574,-4.0515,-4.0523,-4.0425,-4.0285,-4.0023,-3.9859,-3.9794,-3.9537,-3.9401,-3.9401,-3.9401,-3.9401,-3.9401,-3.9401,-3.9401,-3.9401,-3.9401,-3.9401,-3.9401,-3.9401,-3.9401,-3.9401,-3.9401,-3.9401,-3.9401,-3.9298,-3.9219,-3.9165,-3.8998,-3.8676,-3.8285,-3.8219,-3.7949,-3.7577,-3.7577,-3.7649,-3.7667,-3.7667,-3.7739,-3.781,-3.7721,-3.7667,-3.7721,-3.781,-3.7828,-3.7846,-3.7846,-3.781,-3.7703,-3.734,-3.7303,-3.7228,-3.6921,-3.6387,-3.5966,-3.5966,-3.5595,-3.5048,-3.4498,-3.4425,-3.4248,-3.3635,-3.346,-3.3393,-3.3393,-3.3393,-3.3393,-3.3393,-3.3393,-3.3393,-3.3393,-3.3393,-3.3393,-3.3382,-3.3226,-3.3135,-3.3091,-3.3104,-3.3024,-3.2916,-3.3588,-3.4253,-3.4954,-3.4641,-3.4358,-3.4059,-3.3371,-3.2914,-3.2666,-3.2419,-3.2435,-3.2699,-3.283,-3.3068,-3.3397,-3.3512,-3.3625,-3.368,-3.3762,-3.3807,-3.3815,-4.1058,-4.1027,-4.0994,-4.101,-4.0975,-4.0916,-4.0892,-4.0836,-4.0784,-4.0739,-4.07,-4.0681,-4.0681,-4.0681,-4.0668,-4.0654,-4.0612,-4.0554,-4.0422,-4.0248,-4.0063,-3.9945,-3.9778,-3.9641,-3.9585,-3.9585,-3.9561,-3.9502,-3.9502,-3.9502,-3.9502,-3.9502,-3.9502,-3.9502,-3.9502,-3.9502,-3.9502,-3.9502,-3.9502,-3.9483,-3.9427,-3.935,-3.9245,-3.9165,-3.8923,-3.8579,-3.8579,-3.8392,-3.8132,-3.7982,-3.7929,-3.7948,-3.7828,-3.7846,-3.7899,-3.7863,-3.7828,-3.781,-3.7864,-3.7916,-3.7951,-3.8003,-3.8054,-3.7946,-3.7377,-3.7253,-3.7128,-3.6506,-3.6061,-3.5758,-3.5758,-3.5287,-3.4756,-3.4329,-3.4158,-3.39,-3.3465,-3.3393,-3.3393,-3.3393,-3.3393,-3.3393,-3.3393,-3.3393,-3.3393,-3.3393,-3.3393,-3.3382,-3.3352,-3.3244,-3.3152,-3.3042,-3.3042,-3.3158,-3.3437,-3.4613,-3.5381,-3.5757,-3.5652,-3.549,-3.5247,-3.428,-3.3743,-3.349,-3.3023,-3.2912,-3.3068,-3.3147,-3.3345,-3.3633,-3.378,-3.3895,-3.3998,-3.4087,-3.4136,-3.4136,-4.1105,-4.1052,-4.1023,-4.1019,-4.1013,-4.1006,-4.1003,-4.0928,-4.0897,-4.0919,-4.0848,-4.081,-4.081,-4.081,-4.0778,-4.0733,-4.0668,-4.0545,-4.0351,-4.0334,-4.0229,-4.0005,-3.9967,-3.9906,-3.9778,-3.9775,-3.9705,-3.958,-3.9556,-3.9575,-3.9575,-3.9575,-3.9575,-3.9575,-3.9575,-3.9575,-3.9575,-3.9575,-3.9575,-3.9575,-3.9551,-3.9427,-3.9279,-3.9253,-3.9073,-3.8839,-3.8839,-3.881,-3.8693,-3.8387,-3.8277,-3.8231,-3.7967,-3.7934,-3.7969,-3.8002,-3.7985,-3.7934,-3.7934,-3.7985,-3.8052,-3.8029,-3.8011,-3.7794,-3.6979,-3.6816,-3.6616,-3.5946,-3.5711,-3.5639,-3.5639,-3.4969,-3.4425,-3.4425,-3.3846,-3.3393,-3.3393,-3.3393,-3.3393,-3.3393,-3.3393,-3.3393,-3.3393,-3.3393,-3.3393,-3.3393,-3.3393,-3.3382,-3.334,-3.331,-3.3316,-3.3296,-3.3158,-3.3541,-3.4454,-3.5757,-3.6453,-3.6577,-3.6719,-3.6664,-3.6467,-3.5235,-3.4573,-3.4393,-3.3707,-3.3393,-3.3393,-3.3393,-3.3491,-3.3671,-3.3895,-3.4099,-3.4274,-3.4442,-3.4508,-3.4508,-4.1094,-4.1099,-4.1087,-4.1073,-4.103,-4.1003,-4.0998,-4.0948,-4.0926,-4.0982,-4.0938,-4.0868,-4.0868,-4.0829,-4.079,-4.079,-4.0759,-4.07,-4.0559,-4.05,-4.0438,-4.0422,-4.03,-4.0229,-4.0211,-4.0101,-4.0041,-4.0021,-3.9895,-3.9845,-3.9845,-3.9845,-3.9845,-3.9845,-3.9845,-3.9845,-3.9845,-3.9845,-3.9845,-3.9826,-3.9717,-3.9647,-3.9623,-3.9502,-3.9331,-3.9146,-3.9146,-3.8799,-3.8355,-3.8323,-3.8198,-3.8034,-3.8002,-3.8054,-3.8158,-3.8192,-3.814,-3.8158,-3.8158,-3.814,-3.8011,-3.7341,-3.7178,-3.6961,-3.6182,-3.6001,-3.5965,-3.5838,-3.5276,-3.4806,-3.4806,-3.4135,-3.3592,-3.3592,-3.3484,-3.3393,-3.3393,-3.3393,-3.3393,-3.3393,-3.3393,-3.3393,-3.3393,-3.3393,-3.3393,-3.3393,-3.3393,-3.3411,-3.3382,-3.3322,-3.3617,-3.4253,-3.4096,-3.4664,-3.6024,-3.6274,-3.6738,-3.7398,-3.7506,-3.7237,-3.6642,-3.5807,-3.5128,-3.4521,-3.3755,-3.3393,-3.3393,-3.3393,-3.3587,-3.3947,-3.3972,-3.4203,-3.4464,-3.4486,-3.4508,-3.4529,-4.1108,-4.0756,-4.0447,-4.0452,-4.0034,-3.9707,-3.9706,-3.9647,-3.9794,-4.0292,-4.0295,-4.0427,-4.0843,-4.0867,-4.083,-4.08,-4.0796,-4.0757,-4.0713,-4.0673,-4.066,-4.066,-4.0612,-4.0515,-4.0415,-4.0283,-4.0212,-4.0212,-4.0061,-4.0,-4.0,-3.9935,-3.9889,-3.9889,-3.9889,-3.9889,-3.9889,-3.9889,-3.9889,-3.9889,-3.9826,-3.9804,-3.9804,-3.9735,-3.9647,-3.9575,-3.9575,-3.9389,-3.9144,-3.9008,-3.8868,-3.877,-3.8591,-3.8162,-3.7776,-3.7776,-3.7667,-3.754,-3.754,-3.7232,-3.6816,-3.6453,-3.6345,-3.6146,-3.5349,-3.5168,-3.5041,-3.4606,-3.4208,-3.3954,-3.3954,-3.3647,-3.3393,-3.3393,-3.3393,-3.3393,-3.3393,-3.3393,-3.3393,-3.3393,-3.3393,-3.3393,-3.3393,-3.3393,-3.3393,-3.3393,-3.3393,-3.3393,-3.3393,-3.3798,-3.4135,-3.4483,-3.5184,-3.5856,-3.6539,-3.6987,-3.7381,-3.7739,-3.7828,-3.7665,-3.7306,-3.6215,-3.5521,-3.5087,-3.4047,-3.3633,-3.3633,-3.378,-3.3954,-3.4184,-3.4325,-3.4526,-3.4733,-3.4832,-3.487,-3.4889,-4.0522,-4.0015,-3.9605,-3.9605,-3.9039,-3.8593,-3.8593,-3.8554,-3.8766,-3.9431,-3.9451,-3.9661,-4.027,-4.0505,-4.0604,-4.0556,-4.0722,-4.0819,-4.0815,-4.0812,-4.0827,-4.079,-4.079,-4.0733,-4.0574,-4.0415,-4.0351,-4.0351,-4.0212,-4.0158,-4.0139,-4.0,-3.9935,-3.9935,-3.9911,-3.9889,-3.9889,-3.9889,-3.9889,-3.9889,-3.9889,-3.9889,-3.9889,-3.9889,-3.9889,-3.9889,-3.9889,-3.9735,-3.9479,-3.9274,-3.9021,-3.877,-3.8442,-3.7763,-3.7099,-3.704,-3.6747,-3.6504,-3.6653,-3.6272,-3.5765,-3.5584,-3.553,-3.5331,-3.4516,-3.4317,-3.4154,-3.3538,-3.3393,-3.3393,-3.3393,-3.3393,-3.3393,-3.3393,-3.3393,-3.3393,-3.3393,-3.3393,-3.3393,-3.3393,-3.3393,-3.3393,-3.3393,-3.3393,-3.3393,-3.3393,-3.3574,-3.3683,-3.3683,-3.4443,-3.4938,-3.5074,-3.6149,-3.6802,-3.6982,-3.7593,-3.7899,-3.7899,-3.7967,-3.8002,-3.8018,-3.6721,-3.6054,-3.5763,-3.466,-3.406,-3.3895,-3.4124,-3.4279,-3.4401,-3.4632,-3.4812,-3.5001,-3.5143,-3.5193,-3.519,-3.8788,-3.8749,-3.871,-3.871,-3.8632,-3.8593,-3.8593,-3.8595,-3.8617,-3.8676,-3.8632,-3.8615,-3.8673,-3.9334,-3.9799,-3.9775,-4.0461,-4.0901,-4.0894,-4.0896,-4.0848,-4.0803,-4.079,-4.079,-4.0778,-4.0593,-4.0496,-4.0496,-4.0351,-4.0283,-4.0283,-4.0158,-4.0081,-4.0081,-3.9956,-3.9889,-3.9889,-3.9889,-3.9889,-3.9889,-3.9889,-3.9889,-3.9889,-3.9889,-3.9889,-3.9889,-3.9889,-3.9207,-3.8324,-3.83,-3.7636,-3.6756,-3.6481,-3.6347,-3.6252,-3.5999,-3.5411,-3.5024,-3.5693,-3.5856,-3.5639,-3.4878,-3.4697,-3.448,-3.3665,-3.3502,-3.3465,-3.3411,-3.3393,-3.3393,-3.3393,-3.3393,-3.3393,-3.3393,-3.3393,-3.3393,-3.3393,-3.3393,-3.3393,-3.3393,-3.3393,-3.3393,-3.3393,-3.3393,-3.3393,-3.3393,-3.4099,-3.4516,-3.4516,-3.5276,-3.6055,-3.6779,-3.6741,-3.7072,-3.7809,-3.7881,-3.7899,-3.7899,-3.7967,-3.8153,-3.8442,-3.7656,-3.7006,-3.6478,-3.5639,-3.4866,-3.4173,-3.4197,-3.439,-3.4674,-3.4694,-3.4889,-3.5176,-3.5198,-3.5196,-3.5207,-3.8449,-3.8049,-3.7702,-3.7786,-3.734,-3.6989,-3.6989,-3.6989,-3.7184,-3.7711,-3.7766,-3.7966,-3.8494,-3.8808,-3.8934,-3.8892,-3.9165,-3.9338,-3.9299,-3.979,-4.0325,-4.0828,-4.0867,-4.0867,-4.0867,-4.0796,-4.0754,-4.0754,-4.0617,-4.0521,-4.0415,-4.0283,-4.0177,-4.0099,-4.0057,-4.0015,-4.0015,-4.0015,-4.0015,-4.0015,-4.0015,-3.9692,-3.9218,-3.9218,-3.8895,-3.8458,-3.8458,-3.8209,-3.7823,-3.7823,-3.7551,-3.72,-3.7092,-3.6583,-3.5869,-3.5092,-3.467,-3.4504,-3.4792,-3.4651,-3.4375,-3.4066,-3.3993,-3.3902,-3.3593,-3.352,-3.352,-3.352,-3.352,-3.352,-3.352,-3.352,-3.352,-3.352,-3.352,-3.352,-3.352,-3.3481,-3.3452,-3.3452,-3.3422,-3.3393,-3.3393,-3.3393,-3.3393,-3.3393,-3.4154,-3.4606,-3.4606,-3.597,-3.7241,-3.8221,-3.818,-3.8099,-3.8072,-3.809,-3.809,-3.809,-3.8285,-3.8428,-3.8535,-3.7977,-3.7312,-3.6556,-3.5936,-3.5202,-3.4473,-3.4567,-3.4713,-3.4889,-3.4889,-3.4982,-3.5143,-3.5219,-3.5262,-3.5273,-3.7493,-3.7066,-3.6721,-3.6805,-3.6352,-3.5988,-3.5991,-3.5991,-3.6208,-3.6813,-3.6891,-3.7126,-3.7711,-3.7997,-3.8104,-3.8063,-3.8283,-3.8404,-3.8364,-3.8926,-3.9749,-4.0849,-4.0907,-4.0907,-4.0907,-4.0907,-4.0907,-4.0907,-4.0809,-4.0723,-4.0623,-4.0487,-4.0351,-4.0196,-3.991,-3.9738,-3.9698,-3.9431,-3.9317,-3.9317,-3.9317,-3.8975,-3.8423,-3.8423,-3.808,-3.7605,-3.7605,-3.7433,-3.7186,-3.7186,-3.7015,-3.6787,-3.6711,-3.6097,-3.5243,-3.4475,-3.4237,-3.4237,-3.4165,-3.391,-3.3671,-3.3726,-3.3671,-3.3605,-3.3605,-3.3605,-3.3605,-3.3605,-3.3605,-3.3605,-3.3605,-3.3605,-3.3605,-3.3605,-3.3605,-3.3605,-3.3605,-3.3549,-3.352,-3.352,-3.3509,-3.3452,-3.3422,-3.3422,-3.3531,-3.3755,-3.4534,-3.5217,-3.583,-3.7083,-3.8099,-3.8839,-3.8952,-3.877,-3.8322,-3.8401,-3.8446,-3.8446,-3.8628,-3.8778,-3.8876,-3.8542,-3.7841,-3.6849,-3.6449,-3.5708,-3.471,-3.4831,-3.4945,-3.5001,-3.5001,-3.5073,-3.5155,-3.5277,-3.5345,-3.5425,-3.5602,-3.5704,-3.5806,-3.5801,-3.5841,-3.5912,-3.5988,-3.5991,-3.5991,-3.5991,-3.5991,-3.5991,-3.5991,-3.6774,-3.7282,-3.7282,-3.8021,-3.8476,-3.849,-3.8487,-3.9208,-4.082,-4.0888,-4.0888,-4.0888,-4.0888,-4.0888,-4.0888,-4.0888,-4.0888,-4.0888,-4.0749,-4.061,-4.0438,-3.9445,-3.8932,-3.8746,-3.7947,-3.7605,-3.7605,-3.7605,-3.7605,-3.7585,-3.7585,-3.7585,-3.7585,-3.7585,-3.7034,-3.6291,-3.6291,-3.5759,-3.5038,-3.4793,-3.4529,-3.4288,-3.4154,-3.4124,-3.4074,-3.3868,-3.3807,-3.3842,-3.3972,-3.3807,-3.3605,-3.3605,-3.3605,-3.3605,-3.3605,-3.3605,-3.3605,-3.3605,-3.3605,-3.3605,-3.3605,-3.3605,-3.3605,-3.3605,-3.3605,-3.3605,-3.3605,-3.3605,-3.3577,-3.3491,-3.3509,-3.3826,-3.4552,-3.5367,-3.663,-3.8511,-3.8615,-3.8615,-3.8615,-3.8857,-3.8886,-3.8615,-3.8857,-3.9008,-3.9008,-3.9008,-3.9189,-3.9502,-3.9483,-3.8723,-3.739,-3.739,-3.6443,-3.4908,-3.4908,-3.4945,-3.5001,-3.5001,-3.5119,-3.5297,-3.5311,-3.5438,-3.5599,-3.5512,-3.5557,-3.56,-3.5648,-3.576,-3.584,-3.5866,-3.5894,-3.5934,-3.5934,-3.5927,-3.5935,-3.5935,-3.6199,-3.6389,-3.6381,-3.6619,-3.6992,-3.7555,-3.7593,-3.8073,-3.9169,-3.9227,-3.9227,-3.9227,-3.9227,-3.9227,-3.9227,-3.9227,-3.9179,-3.9072,-3.9034,-3.8944,-3.8814,-3.8407,-3.822,-3.8156,-3.7808,-3.7677,-3.7677,-3.7677,-3.7315,-3.6819,-3.6819,-3.6438,-3.5923,-3.5923,-3.5751,-3.5522,-3.5522,-3.537,-3.516,-3.5089,-3.5,-3.4907,-3.487,-3.487,-3.487,-3.4793,-3.4674,-3.4461,-3.3998,-3.3807,-3.3753,-3.3753,-3.3753,-3.3753,-3.3753,-3.3753,-3.3753,-3.3753,-3.3753,-3.3753,-3.3753,-3.3753,-3.3753,-3.3753,-3.3698,-3.3671,-3.3671,-3.3788,-3.3868,-3.3842,-3.4548,-3.505,-3.5214,-3.6491,-3.7859,-3.9152,-3.9227,-3.9331,-3.9508,-3.958,-3.958,-3.9508,-3.9163,-3.9008,-3.9008,-3.9242,-3.9389,-3.9526,-3.9693,-3.8918,-3.739,-3.739,-3.6443,-3.4908,-3.4908,-3.4908,-3.4945,-3.5018,-3.5105,-3.52,-3.5419,-3.5546,-3.5621,-3.5369,-3.5424,-3.547,-3.5508,-3.5621,-3.5715,-3.5713,-3.5806,-3.5866,-3.5866,-3.5875,-3.5895,-3.5895,-3.5947,-3.5958,-3.5957,-3.5964,-3.6169,-3.6659,-3.6687,-3.6925,-3.7453,-3.7469,-3.7784,-3.848,-3.85,-3.85,-3.85,-3.85,-3.8455,-3.8373,-3.8373,-3.8305,-3.8158,-3.7742,-3.7514,-3.7429,-3.7051,-3.6842,-3.6779,-3.6779,-3.6479,-3.5993,-3.5993,-3.5668,-3.5209,-3.5209,-3.5209,-3.5209,-3.5209,-3.5209,-3.5209,-3.5209,-3.5209,-3.5174,-3.5107,-3.5089,-3.5072,-3.4944,-3.4832,-3.4632,-3.4184,-3.4087,-3.4087,-3.4087,-3.4087,-3.4087,-3.4087,-3.4087,-3.4087,-3.4087,-3.4087,-3.4087,-3.4087,-3.4087,-3.4087,-3.4087,-3.4037,-3.4012,-3.4012,-3.4111,-3.4184,-3.416,-3.5048,-3.5866,-3.6404,-3.7638,-3.8712,-3.9464,-3.9502,-3.9575,-3.9735,-3.9826,-3.9845,-3.9735,-3.9489,-3.9345,-3.9345,-3.9556,-3.9647,-3.9647,-3.9845,-3.9001,-3.739,-3.739,-3.6443,-3.4908,-3.4908,-3.4926,-3.4982,-3.507,-3.5184,-3.5325,-3.5527,-3.566,-3.5749,-3.5209,-3.5304,-3.5374,-3.538,-3.5488,-3.5588,-3.5572,-3.5687,-3.5776,-3.5784,-3.5833,-3.5883,-3.5903,-3.5908,-3.5908,-3.5908,-3.5903,-3.59,-3.5903,-3.5897,-3.5896,-3.5895,-3.591,-3.6635,-3.8238,-3.8272,-3.8266,-3.8266,-3.8266,-3.8266,-3.8266,-3.8266,-3.8215,-3.8061,-3.7253,-3.6823,-3.6663,-3.5916,-3.5531,-3.5432,-3.5418,-3.5336,-3.5239,-3.5239,-3.5223,-3.5207,-3.5223,-3.5226,-3.5209,-3.5209,-3.5209,-3.5209,-3.5209,-3.5209,-3.5176,-3.5001,-3.4945,-3.487,-3.4653,-3.4572,-3.4572,-3.4572,-3.4572,-3.4551,-3.4508,-3.4508,-3.4508,-3.4508,-3.4508,-3.4508,-3.4508,-3.4508,-3.4508,-3.4508,-3.4508,-3.4508,-3.4508,-3.4508,-3.4508,-3.4508,-3.4529,-3.4508,-3.4445,-3.5312,-3.6508,-3.7972,-3.8794,-3.9301,-3.9532,-3.9532,-3.9551,-3.9551,-3.9781,-3.9781,-3.9551,-3.9781,-3.9889,-3.9889,-3.9889,-3.9889,-3.9889,-3.9835,-3.8925,-3.739,-3.7315,-3.6367,-3.4908,-3.4908,-3.4982,-3.5105,-3.5138,-3.5325,-3.5581,-3.5621,-3.5749,-3.5908,-3.5209,-3.5226,-3.5239,-3.5235,-3.536,-3.543,-3.5443,-3.5507,-3.5599,-3.5718,-3.5735,-3.5784,-3.5885,-3.5897,-3.5908,-3.5908,-3.5899,-3.5895,-3.59,-3.5893,-3.5908,-3.5896,-3.5898,-3.6073,-3.647,-3.6465,-3.6454,-3.6454,-3.6454,-3.6459,-3.645,-3.645,-3.6489,-3.6484,-3.6184,-3.6032,-3.6009,-3.5718,-3.5581,-3.5551,-3.5566,-3.5543,-3.5504,-3.5519,-3.5445,-3.535,-3.5416,-3.533,-3.5209,-3.5209,-3.5209,-3.5209,-3.5209,-3.5209,-3.5209,-3.5209,-3.5176,-3.5124,-3.5124,-3.5089,-3.5053,-3.5053,-3.5053,-3.4963,-3.4593,-3.4508,-3.4508,-3.4508,-3.4508,-3.4508,-3.4508,-3.4508,-3.4508,-3.4508,-3.4508,-3.4508,-3.4508,-3.4508,-3.4508,-3.4508,-3.4674,-3.4812,-3.4793,-3.6292,-3.7946,-3.9578,-3.98,-3.9892,-3.9892,-3.9892,-3.987,-3.9804,-3.9867,-3.9867,-3.9804,-3.9867,-3.9889,-3.9889,-3.9889,-3.9889,-3.987,-3.9248,-3.8376,-3.7353,-3.6727,-3.5874,-3.4927,-3.5018,-3.507,-3.5122,-3.5325,-3.5469,-3.5549,-3.5771,-3.5872,-3.5996,-3.5126,-3.5143,-3.516,-3.5193,-3.5258,-3.5304,-3.5304,-3.5388,-3.5483,-3.5553,-3.5585,-3.5669,-3.5782,-3.5807,-3.5811,-3.5859,-3.584,-3.5853,-3.5858,-3.5885,-3.5908,-3.5907,-3.5903,-3.5894,-3.5898,-3.5903,-3.5912,-3.5948,-3.5948,-3.5948,-3.5958,-3.5958,-3.5981,-3.6005,-3.5938,-3.5908,-3.5883,-3.582,-3.5745,-3.5693,-3.5696,-3.566,-3.5601,-3.5557,-3.5507,-3.5445,-3.5411,-3.5345,-3.5239,-3.5239,-3.5239,-3.5239,-3.5239,-3.5239,-3.5254,-3.5289,-3.5289,-3.5254,-3.5289,-3.527,-3.5239,-3.5239,-3.5239,-3.519,-3.4889,-3.4832,-3.4832,-3.4832,-3.4832,-3.4832,-3.4832,-3.4832,-3.4832,-3.4832,-3.4832,-3.4832,-3.4832,-3.4832,-3.4832,-3.4832,-3.4963,-3.5226,-3.5625,-3.6555,-3.7811,-3.9452,-3.9547,-3.968,-4.0038,-4.0057,-4.0036,-3.9994,-3.9954,-3.9996,-4.004,-3.9954,-3.9956,-4.0081,-3.9956,-3.9702,-3.9304,-3.8888,-3.8038,-3.6901,-3.6483,-3.5835,-3.5105,-3.5171,-3.5235,-3.5292,-3.5444,-3.5568,-3.566,-3.585,-3.6164,-3.6709,-3.4736,-3.4848,-3.4921,-3.5105,-3.5141,-3.516,-3.5176,-3.5273,-3.5369,-3.5398,-3.5457,-3.5526,-3.5657,-3.5697,-3.5718,-3.5773,-3.5791,-3.5799,-3.5799,-3.584,-3.5872,-3.5872,-3.5888,-3.5893,-3.5899,-3.5896,-3.5932,-3.5978,-3.599,-3.6005,-3.6005,-3.6005,-3.6009,-3.599,-3.599,-3.599,-3.6009,-3.6009,-3.5948,-3.5827,-3.582,-3.5767,-3.5657,-3.5611,-3.5557,-3.5535,-3.5425,-3.5378,-3.535,-3.534,-3.5326,-3.5326,-3.5315,-3.5315,-3.5296,-3.5315,-3.5315,-3.5296,-3.5315,-3.5315,-3.5315,-3.5315,-3.5315,-3.5285,-3.5223,-3.5226,-3.5226,-3.5226,-3.5226,-3.5226,-3.5226,-3.5226,-3.5209,-3.5209,-3.5209,-3.5209,-3.5209,-3.5209,-3.5209,-3.5209,-3.5209,-3.5553,-3.6432,-3.6491,-3.7122,-3.8575,-3.8689,-3.9052,-3.9831,-3.9888,-3.9964,-4.0117,-4.0057,-4.0078,-4.0177,-3.9867,-3.9832,-4.0072,-3.9699,-3.9275,-3.8762,-3.8458,-3.7624,-3.6417,-3.6283,-3.5856,-3.5296,-3.5311,-3.5402,-3.5496,-3.5554,-3.565,-3.5818,-3.6047,-3.6767,-3.7857,-3.3468,-3.3772,-3.4111,-3.4813,-3.4945,-3.4982,-3.5092,-3.5127,-3.5212,-3.5383,-3.5407,-3.543,-3.5526,-3.5626,-3.5688,-3.5698,-3.5765,-3.5799,-3.5799,-3.5807,-3.5815,-3.5815,-3.5811,-3.5846,-3.5904,-3.5895,-3.5899,-3.5909,-3.5965,-3.6009,-3.5997,-3.5997,-3.6001,-3.6007,-3.6007,-3.6007,-3.6007,-3.6001,-3.6001,-3.5962,-3.5966,-3.5958,-3.5938,-3.5943,-3.5866,-3.5753,-3.5741,-3.5693,-3.5621,-3.5519,-3.547,-3.5445,-3.534,-3.5315,-3.5315,-3.5364,-3.535,-3.5315,-3.5364,-3.533,-3.5315,-3.5315,-3.5315,-3.53,-3.53,-3.5285,-3.5285,-3.5285,-3.5285,-3.5285,-3.5285,-3.5289,-3.5277,-3.5277,-3.5245,-3.5209,-3.5209,-3.5209,-3.5209,-3.5209,-3.5209,-3.5553,-3.6432,-3.6491,-3.6891,-3.7789,-3.7865,-3.8211,-3.9033,-3.9071,-3.9376,-4.0078,-4.0077,-4.0117,-4.0118,-3.9395,-3.9051,-3.9088,-3.8416,-3.8414,-3.8986,-3.7494,-3.6671,-3.6438,-3.5764,-3.5381,-3.5315,-3.543,-3.547,-3.5509,-3.5699,-3.5782,-3.5904,-3.6716,-3.8046,-3.9474,-3.2393,-3.2632,-3.3033,-3.3903,-3.4169,-3.4396,-3.4907,-3.5001,-3.5019,-3.5107,-3.5124,-3.5155,-3.5262,-3.5372,-3.5476,-3.5577,-3.562,-3.5689,-3.5791,-3.5799,-3.5799,-3.5799,-3.5799,-3.5815,-3.5833,-3.5872,-3.5899,-3.5901,-3.5936,-3.5936,-3.593,-3.593,-3.5964,-3.5991,-3.5991,-3.5991,-3.5991,-3.6007,-3.6007,-3.5991,-3.6004,-3.6004,-3.6004,-3.5958,-3.5914,-3.5846,-3.5774,-3.5737,-3.5696,-3.5621,-3.5601,-3.5591,-3.5538,-3.5527,-3.5527,-3.5557,-3.5557,-3.5527,-3.5557,-3.5557,-3.5527,-3.5527,-3.5527,-3.5527,-3.5527,-3.5527,-3.5481,-3.534,-3.5315,-3.5315,-3.5315,-3.53,-3.5304,-3.5304,-3.5254,-3.5203,-3.5203,-3.5207,-3.5209,-3.5209,-3.5209,-3.5362,-3.5744,-3.5844,-3.6205,-3.6967,-3.713,-3.7536,-3.8309,-3.8408,-3.8612,-3.8981,-3.8949,-3.8965,-3.9042,-3.8577,-3.8411,-3.8556,-3.77,-3.7411,-3.7619,-3.6853,-3.6289,-3.5921,-3.557,-3.5451,-3.5538,-3.5585,-3.5637,-3.5679,-3.5818,-3.6156,-3.6683,-3.7592,-3.8714,-3.9864]}]]